[[{"header":{"parameterUnit":"m.s-1","parameterCategory":1,"la1":31.0,"la2":29.5877,"lo1":-88.7671,"lo2":-86.6584,"dy":0.0162,"dx":0.0185,"nx":115,"ny":88,"refTime":"2024-06-07T06:00:00:Z","depth":0,"parameterNumber":2,"parameterNumberName":"U-component_of_WINDS"},"data":[0.0,0.0,0.0,0.0,0.0,0.0,0.0,0.0,0.0,0.0,0.0,0.0,0.0,0.0,0.0,0.0,0.0,0.0,0.0,0.0,0.0,0.0,0.0,0.0,0.0,0.0,0.0,0.0,0.0,0.0,0.0,0.0,0.0,0.0,0.0,0.0,0.0,0.0,0.0,0.0,0.0,0.0,0.0,0.0,0.0,0.0,0.0,0.0,0.0,0.0,0.0,0.0,0.0,0.0,0.0,0.0,0.0,0.0,0.0,0.0,0.0,0.0,0.0,0.0,0.0,0.0,0.0,0.0,0.0,0.0,0.0,0.0,0.0,0.0,0.0,0.0,0.0,0.0,0.0,0.0,0.0,0.0,0.0,0.0,0.0,0.0,0.0,0.0,0.0,0.0,0.0,0.0,0.0,0.0,0.0,0.0,0.0,0.0,0.0,0.0,0.0,0.0,0.0,0.0,0.0,0.0,0.0,0.0,0.0,0.0,0.0,0.0,0.0,0.0,0.0,0.0,0.0,0.0,0.0,0.0,0.0,0.0,0.0,0.0,0.0,0.0,0.0,0.0,0.0,0.0,0.0,0.0,0.0,0.0,0.0,0.0,0.0,0.0,0.0,0.0,0.0,0.0,0.0,0.0,0.0,0.0,0.0,0.0,0.0,0.0,0.0,0.0,0.0,0.0,0.0,0.0,0.0,0.0,0.0,0.0,0.0,0.0,0.0,0.0,0.0,0.0,0.0,0.0,0.0,0.0,0.0,0.0,0.0,0.0,0.0,0.0,0.0,0.0,0.0,0.0,0.0,0.0,0.0,0.0,0.0,0.0,0.0,0.0,0.0,0.0,0.0,0.0,0.0,0.0,0.0,0.0,0.0,0.0,0.0,0.0,0.0,0.0,0.0,0.0,0.0,0.0,0.0,0.0,0.0,0.0,0.0,0.0,0.0,0.0,0.0,0.0,0.0,0.0,0.0,0.0,0.0,0.0,0.0,0.0,0.0,0.0,0.0,0.0,0.0,0.0,0.0,0.0,0.0,0.0,0.0,0.0,0.0,0.0,0.0,0.0,0.0,0.0,0.0,0.0,0.0,0.0,0.0,0.0,0.0,0.0,0.0,0.0,0.0,0.0,0.0,0.0,0.0,0.0,0.0,0.0,0.0,0.0,0.0,0.0,0.0,0.0,0.0,0.0,0.0,0.0,0.0,0.0,0.0,0.0,0.0,0.0,0.0,0.0,0.0,0.0,0.0,0.0,0.0,0.0,0.0,0.0,0.0,0.0,0.0,0.0,0.0,0.0,0.0,0.0,0.0,0.0,0.0,0.0,0.0,0.0,0.0,0.0,0.0,0.0,0.0,0.0,0.0,0.0,0.0,0.0,0.0,0.0,0.0,0.0,0.0,0.0,0.0,0.0,0.0,0.0,0.0,0.0,0.0,0.0,0.0,0.0,0.0,0.0,0.0,0.0,0.0,0.0,0.0,0.0,0.0,0.0,0.0,0.0,0.0,0.0,0.0,0.0,0.0,0.0,0.0,0.0,0.0,0.0,0.0,0.0,0.0,0.0,0.0,0.0,0.0,0.0,0.0,0.0,0.0,0.0,0.0,0.0,0.0,0.0,0.0,0.0,0.0,0.0,0.0,0.0,0.0,0.0,0.0,0.0,0.0,0.0,0.0,0.0,0.0,0.0,0.0,0.0,0.0,0.0,0.0,0.0,0.0,0.0,0.0,0.0,0.0,0.0,0.0,0.0,0.0,0.0,0.0,0.0,0.0,0.0,0.0,0.0,0.0,0.0,0.0,0.0,0.0,0.0,0.0,0.0,0.0,0.0,0.0,0.0,0.0,0.0,0.0,0.0,0.0,0.0,0.0,0.0,0.0,0.0,0.0,0.0,0.0,0.0,0.0,0.0,0.0,0.0,0.0,0.0,0.0,0.0,0.0,0.0,0.0,0.0,0.0,0.0,0.0,0.0,0.0,0.0,0.0,0.0,0.0,0.0,0.0,0.0,0.0,0.0,0.0,0.0,0.0,0.0,0.0,0.0,0.0,0.0,0.0,0.0,0.0,0.0,0.0,0.0,0.0,0.0,0.0,0.0,0.0,0.0,0.0,0.0,0.0,0.0,0.0,0.0,0.0,0.0,0.0,0.0,0.0,0.0,0.0,0.0,0.0,0.0,0.0,0.0,0.0,0.0,0.0,0.0,0.0,0.0,0.0,0.0,0.0,0.0,0.0,0.0,0.0,0.0,0.0,0.0,0.0,0.0,0.0,0.0,0.0,0.0,0.0,0.0,0.0,0.0,0.0,0.0,0.0,0.0,0.0,0.0,0.0,0.0,0.0,0.0,0.0,0.0,0.0,0.0,0.0,0.0,0.0,0.0,0.0,0.0,0.0,0.0,0.0,0.0,0.0,0.0,0.0,0.0,0.0,0.0,0.0,0.0,0.0,0.0,0.0,0.0,0.0,0.0,0.0,0.0,0.0,0.0,0.0,0.0,0.0,0.0,0.0,0.0,0.0,0.0,0.0,0.0,0.0,0.0,0.0,0.0,0.0,0.0,0.0,0.0,0.0,0.0,0.0,0.0,0.0,0.0,0.0,0.0,0.0,0.0,0.0,0.0,0.0,0.0,0.0,0.0,0.0,0.0,0.0,0.0,0.0,0.0,0.0,0.0,0.0,0.0,0.0,0.0,0.0,0.0,0.0,0.0,0.0,0.0,0.0,0.0,0.0,0.0,0.0,0.0,0.0,0.0,0.0,0.0,0.0,0.0,0.0,0.0,0.0,0.0,0.0,0.0,0.0,0.0,0.0,0.0,0.0,0.0,0.0,0.0,0.0,0.0,0.0,0.0,0.0,0.0,0.0,0.0,0.0,0.0,0.0,0.0,0.0,0.0,0.0,0.0,0.0,0.0,0.0,0.0,0.0,0.0,0.0,0.0,0.0,0.0,0.0,0.0,0.0,0.0,0.0,0.0,0.0,0.0,0.0,0.0,0.0,0.0,0.0,0.0,0.0,0.0,0.0,0.0,0.0,0.0,0.0,0.0,0.0,0.0,0.0,0.0,0.0,0.0,0.0,0.0,0.0,0.0,0.0,0.0,0.0,0.0,0.0,0.0,0.0,0.0,0.0,0.0,0.0,0.0,0.0,0.0,0.0,0.0,0.0,0.0,0.0,0.0,0.0,0.0,0.0,0.0,0.0,0.0,0.0,0.0,0.0,0.0,0.0,0.0,0.0,0.0,0.0,0.0,0.0,0.0,0.0,0.0,0.0,0.0,0.0,0.0,0.0,0.0,0.0,0.0,0.0,0.0,0.0,0.0,0.0,0.0,0.0,0.0,0.0,0.0,0.0,0.0,0.0,0.0,0.0,0.0,0.0,0.0,0.0,0.0,0.0,0.0,0.0,0.0,0.0,0.0,0.0,0.0,0.0,0.0,0.0,0.0,0.0,0.0,0.0,0.0,0.0,0.0,0.0,0.0,0.0,0.0,0.0,0.0,0.0,0.0,0.0,0.0,0.0,0.0,0.0,0.0,0.0,0.0,0.0,0.0,0.0,0.0,0.0,0.0,0.0,0.0,0.0,0.0,0.0,0.0,0.0,0.0,0.0,0.0,0.0,0.0,0.0,0.0,0.0,0.0,0.0,0.0,0.0,0.0,0.0,0.0,0.0,0.0,0.0,0.0,0.0,0.0,0.0,0.0,0.0,0.0,0.0,0.0,0.0,0.0,0.0,0.0,0.0,0.0,0.0,0.0,0.0,0.0,0.0,0.0,0.0,0.0,0.0,0.0,0.0,0.0,0.0,0.0,0.0,0.0,0.0,0.0,0.0,0.0,0.0,0.0,0.0,0.0,0.0,0.0,0.0,0.0,0.0,0.0,0.0,0.0,0.0,0.0,0.0,0.0,0.0,0.0,0.0,0.0,0.0,0.0,0.0,0.0,0.0,0.0,0.0,0.0,0.0,0.0,0.0,0.0,0.0,0.0,0.0,0.0,0.0,0.0,0.0,0.0,0.0,0.0,0.0,0.0,0.0,0.0,0.0,0.0,0.0,0.0,0.0,0.0,0.0,0.0,0.0,0.0,0.0,0.0,0.0,0.0,0.0,0.0,0.0,0.0,0.0,0.0,0.0,0.0,0.0,0.0,0.0,0.0,0.0,0.0,0.0,0.0,0.0,0.0,0.0,0.0,0.0,0.0,0.0,0.0,0.0,0.0,0.0,0.0,0.0,0.0,0.0,0.0,0.0,0.0,0.0,0.0,0.0,0.0,0.0,0.0,0.0,0.0,-2.6982,0.0,0.0,0.0,0.0,0.0,0.0,0.0,0.0,0.0,0.0,0.0,0.0,0.0,0.0,0.0,0.0,0.0,0.0,0.0,0.0,0.0,0.0,0.0,0.0,0.0,0.0,0.0,0.0,0.0,0.0,0.0,0.0,0.0,0.0,0.0,0.0,0.0,0.0,0.0,0.0,0.0,0.0,0.0,0.0,0.0,0.0,0.0,0.0,0.0,0.0,0.0,0.0,0.0,0.0,0.0,0.0,0.0,0.0,0.0,0.0,0.0,0.0,0.0,0.0,0.0,0.0,0.0,0.0,0.0,0.0,0.0,0.0,0.0,0.0,0.0,0.0,0.0,0.0,0.0,0.0,0.0,0.0,0.0,0.0,0.0,0.0,0.0,0.0,0.0,0.0,0.0,0.0,0.0,0.0,0.0,0.0,0.0,0.0,0.0,0.0,0.0,0.0,0.0,0.0,0.0,0.0,0.0,0.0,0.0,0.0,-3.2672,-3.2196,-3.0644,-2.9377,-2.8388,0.0,0.0,0.0,0.0,0.0,0.0,0.0,0.0,0.0,0.0,0.0,0.0,0.0,0.0,0.0,0.0,0.0,0.0,0.0,0.0,0.0,0.0,0.0,0.0,0.0,0.0,0.0,0.0,0.0,0.0,0.0,0.0,0.0,0.0,0.0,0.0,0.0,0.0,0.0,0.0,0.0,0.0,0.0,0.0,0.0,0.0,0.0,0.0,0.0,0.0,0.0,0.0,0.0,0.0,0.0,0.0,0.0,0.0,0.0,0.0,0.0,0.0,0.0,0.0,0.0,0.0,0.0,0.0,0.0,0.0,0.0,0.0,0.0,0.0,0.0,0.0,0.0,0.0,0.0,0.0,0.0,0.0,0.0,0.0,0.0,0.0,0.0,0.0,0.0,0.0,0.0,0.0,0.0,0.0,0.0,0.0,0.0,0.0,0.0,0.0,0.0,0.0,0.0,0.0,0.0,0.0,0.0,0.0,0.0,0.0,0.0,0.0,-3.214,-3.0431,-2.9022,0.0,0.0,0.0,0.0,0.0,0.0,0.0,0.0,0.0,0.0,0.0,0.0,0.0,0.0,0.0,0.0,0.0,0.0,0.0,0.0,0.0,0.0,0.0,0.0,0.0,0.0,0.0,0.0,0.0,0.0,0.0,0.0,0.0,0.0,0.0,0.0,0.0,0.0,0.0,0.0,0.0,0.0,0.0,0.0,0.0,0.0,0.0,0.0,0.0,0.0,0.0,0.0,0.0,0.0,0.0,0.0,0.0,0.0,0.0,0.0,0.0,0.0,0.0,0.0,0.0,0.0,0.0,0.0,0.0,0.0,0.0,0.0,0.0,0.0,0.0,0.0,0.0,0.0,0.0,0.0,0.0,0.0,0.0,0.0,0.0,0.0,0.0,0.0,0.0,0.0,0.0,0.0,0.0,0.0,0.0,0.0,0.0,0.0,0.0,0.0,0.0,0.0,0.0,0.0,0.0,0.0,0.0,0.0,0.0,0.0,-3.5415,-3.5828,-3.4651,0.0,-2.793,0.0,0.0,0.0,0.0,0.0,0.0,0.0,0.0,0.0,0.0,0.0,0.0,0.0,0.0,0.0,0.0,0.0,0.0,0.0,0.0,0.0,0.0,0.0,0.0,0.0,0.0,0.0,0.0,0.0,0.0,0.0,0.0,0.0,0.0,0.0,0.0,0.0,0.0,0.0,0.0,0.0,0.0,0.0,0.0,0.0,0.0,0.0,0.0,0.0,0.0,0.0,0.0,0.0,0.0,0.0,0.0,0.0,0.0,0.0,0.0,0.0,0.0,0.0,0.0,0.0,0.0,0.0,0.0,0.0,0.0,0.0,0.0,0.0,0.0,0.0,0.0,0.0,0.0,0.0,0.0,0.0,0.0,0.0,0.0,0.0,0.0,0.0,0.0,0.0,0.0,0.0,0.0,0.0,0.0,0.0,0.0,0.0,0.0,0.0,0.0,0.0,0.0,0.0,0.0,0.0,0.0,0.0,0.0,0.0,0.0,-3.6894,-3.7165,-3.4921,-3.1725,0.0,0.0,0.0,0.0,0.0,0.0,0.0,0.0,0.0,0.0,0.0,0.0,0.0,0.0,0.0,0.0,0.0,0.0,0.0,0.0,0.0,0.0,0.0,0.0,0.0,0.0,0.0,0.0,0.0,0.0,0.0,0.0,0.0,0.0,0.0,0.0,0.0,0.0,0.0,0.0,0.0,0.0,0.0,0.0,0.0,0.0,0.0,0.0,0.0,0.0,0.0,0.0,0.0,0.0,0.0,0.0,0.0,0.0,0.0,0.0,0.0,0.0,0.0,0.0,0.0,0.0,0.0,0.0,0.0,0.0,0.0,0.0,0.0,0.0,0.0,0.0,0.0,0.0,0.0,0.0,0.0,0.0,0.0,0.0,0.0,0.0,0.0,0.0,0.0,0.0,0.0,0.0,0.0,0.0,0.0,0.0,0.0,0.0,0.0,0.0,0.0,0.0,0.0,0.0,0.0,0.0,0.0,0.0,0.0,0.0,-3.7322,-3.7539,-3.7154,-3.5349,-3.2284,-2.8072,0.0,0.0,0.0,0.0,0.0,0.0,0.0,0.0,0.0,0.0,0.0,0.0,0.0,0.0,0.0,0.0,0.0,0.0,0.0,0.0,0.0,0.0,0.0,0.0,0.0,0.0,0.0,0.0,0.0,0.0,0.0,0.0,0.0,0.0,0.0,0.0,0.0,0.0,0.0,0.0,0.0,0.0,0.0,0.0,0.0,0.0,0.0,0.0,0.0,0.0,0.0,0.0,0.0,0.0,0.0,0.0,0.0,0.0,0.0,0.0,0.0,0.0,0.0,0.0,0.0,0.0,0.0,0.0,0.0,0.0,0.0,0.0,0.0,0.0,0.0,0.0,0.0,0.0,0.0,0.0,0.0,0.0,0.0,0.0,0.0,0.0,0.0,0.0,0.0,0.0,0.0,0.0,0.0,0.0,0.0,0.0,0.0,0.0,0.0,0.0,0.0,0.0,0.0,0.0,0.0,0.0,0.0,0.0,-3.6845,-3.7386,-3.6989,-3.5778,-3.6559,-3.4518,0.0,0.0,0.0,0.0,0.0,0.0,0.0,0.0,0.0,0.0,0.0,0.0,0.0,0.0,0.0,0.0,0.0,0.0,0.0,0.0,0.0,0.0,0.0,0.0,0.0,0.0,0.0,0.0,0.0,0.0,0.0,0.0,0.0,0.0,0.0,0.0,0.0,0.0,0.0,0.0,0.0,0.0,0.0,0.0,0.0,0.0,0.0,0.0,0.0,0.0,0.0,0.0,0.0,0.0,0.0,0.0,0.0,0.0,0.0,0.0,0.0,0.0,0.0,0.0,0.0,0.0,0.0,0.0,0.0,0.0,0.0,0.0,0.0,0.0,0.0,0.0,0.0,0.0,0.0,0.0,0.0,0.0,0.0,0.0,0.0,0.0,0.0,0.0,0.0,0.0,0.0,0.0,0.0,0.0,0.0,0.0,0.0,0.0,0.0,0.0,0.0,0.0,0.0,0.0,0.0,0.0,0.0,0.0,0.0,-3.6956,-3.7794,-3.7979,-3.7389,-3.5998,-3.3734,0.0,0.0,0.0,0.0,0.0,0.0,0.0,0.0,0.0,0.0,0.0,0.0,0.0,0.0,0.0,0.0,0.0,0.0,0.0,0.0,0.0,0.0,0.0,0.0,0.0,0.0,0.0,0.0,0.0,0.0,0.0,0.0,0.0,0.0,0.0,0.0,0.0,0.0,0.0,0.0,0.0,0.0,0.0,0.0,0.0,0.0,0.0,0.0,0.0,0.0,0.0,0.0,0.0,0.0,0.0,0.0,0.0,0.0,0.0,0.0,0.0,0.0,0.0,0.0,0.0,0.0,0.0,0.0,0.0,0.0,0.0,0.0,0.0,0.0,0.0,0.0,0.0,0.0,0.0,0.0,0.0,0.0,0.0,0.0,0.0,0.0,0.0,0.0,0.0,0.0,0.0,0.0,0.0,0.0,0.0,0.0,0.0,0.0,0.0,0.0,0.0,0.0,0.0,0.0,0.0,0.0,0.0,0.0,0.0,-3.7766,0.0,-3.8407,-3.7754,-3.5909,-3.3737,0.0,0.0,0.0,0.0,0.0,0.0,0.0,0.0,0.0,0.0,0.0,0.0,0.0,0.0,0.0,0.0,0.0,0.0,0.0,0.0,0.0,0.0,0.0,0.0,0.0,0.0,0.0,0.0,0.0,0.0,0.0,0.0,0.0,0.0,0.0,0.0,0.0,0.0,0.0,0.0,0.0,0.0,0.0,0.0,0.0,0.0,0.0,0.0,0.0,0.0,0.0,0.0,0.0,0.0,0.0,0.0,0.0,0.0,0.0,0.0,0.0,0.0,0.0,0.0,0.0,0.0,0.0,0.0,0.0,0.0,0.0,0.0,0.0,0.0,0.0,0.0,0.0,0.0,0.0,0.0,0.0,0.0,0.0,0.0,0.0,0.0,0.0,0.0,0.0,0.0,0.0,0.0,0.0,0.0,0.0,0.0,0.0,0.0,0.0,0.0,0.0,0.0,0.0,0.0,0.0,0.0,0.0,0.0,-3.8552,-3.9261,-3.9045,-3.8169,-3.646,-3.6576,-3.4824,0.0,0.0,0.0,0.0,0.0,0.0,0.0,0.0,0.0,0.0,0.0,0.0,0.0,0.0,0.0,0.0,0.0,0.0,0.0,0.0,0.0,0.0,0.0,0.0,0.0,0.0,0.0,0.0,0.0,0.0,0.0,0.0,0.0,0.0,0.0,0.0,0.0,0.0,0.0,0.0,0.0,0.0,0.0,0.0,0.0,0.0,0.0,0.0,0.0,0.0,0.0,0.0,0.0,0.0,0.0,0.0,0.0,0.0,0.0,0.0,0.0,0.0,0.0,0.0,0.0,0.0,0.0,0.0,0.0,0.0,0.0,0.0,0.0,0.0,0.0,0.0,0.0,0.0,0.0,0.0,0.0,0.0,0.0,0.0,0.0,0.0,0.0,0.0,0.0,0.0,0.0,0.0,0.0,0.0,0.0,0.0,0.0,0.0,0.0,0.0,0.0,0.0,0.0,0.0,0.0,0.0,0.0,0.0,0.0,-4.0566,-3.9623,-3.9352,-3.9785,-3.7454,-3.5517,0.0,0.0,0.0,0.0,0.0,0.0,0.0,0.0,0.0,0.0,0.0,0.0,0.0,0.0,0.0,0.0,0.0,0.0,0.0,0.0,0.0,0.0,0.0,0.0,0.0,0.0,0.0,0.0,0.0,0.0,0.0,0.0,0.0,0.0,0.0,0.0,0.0,0.0,0.0,0.0,0.0,0.0,0.0,0.0,0.0,0.0,0.0,0.0,0.0,0.0,0.0,0.0,0.0,0.0,0.0,0.0,0.0,0.0,0.0,0.0,0.0,0.0,0.0,0.0,0.0,0.0,0.0,0.0,0.0,0.0,0.0,0.0,0.0,0.0,0.0,0.0,0.0,0.0,0.0,0.0,0.0,0.0,0.0,0.0,0.0,0.0,0.0,0.0,0.0,0.0,0.0,0.0,0.0,0.0,0.0,0.0,0.0,0.0,0.0,0.0,0.0,0.0,0.0,0.0,0.0,0.0,0.0,0.0,0.0,-4.1973,-4.0783,-4.0476,-4.1286,-3.8656,-3.6622,-3.5268,0.0,0.0,0.0,0.0,0.0,0.0,0.0,0.0,0.0,0.0,0.0,0.0,0.0,0.0,0.0,0.0,0.0,0.0,0.0,0.0,0.0,0.0,0.0,0.0,0.0,0.0,0.0,0.0,0.0,0.0,0.0,0.0,0.0,0.0,0.0,0.0,0.0,0.0,0.0,0.0,0.0,0.0,0.0,0.0,0.0,0.0,0.0,0.0,0.0,0.0,0.0,0.0,0.0,0.0,0.0,0.0,0.0,0.0,0.0,0.0,0.0,0.0,0.0,0.0,0.0,0.0,0.0,0.0,0.0,0.0,0.0,0.0,0.0,0.0,0.0,0.0,0.0,0.0,0.0,0.0,0.0,0.0,0.0,0.0,0.0,0.0,0.0,0.0,0.0,0.0,0.0,0.0,0.0,0.0,0.0,0.0,0.0,0.0,0.0,0.0,0.0,0.0,0.0,0.0,0.0,0.0,0.0,0.0,-4.3529,-4.2454,-4.1711,-4.1357,-4.0133,-3.8085,0.0,0.0,0.0,0.0,0.0,0.0,0.0,0.0,0.0,0.0,0.0,0.0,0.0,0.0,0.0,0.0,0.0,0.0,0.0,0.0,0.0,0.0,0.0,0.0,0.0,0.0,0.0,0.0,0.0,0.0,0.0,0.0,0.0,0.0,0.0,0.0,0.0,0.0,0.0,0.0,0.0,0.0,0.0,0.0,0.0,0.0,0.0,0.0,0.0,0.0,0.0,0.0,0.0,0.0,0.0,0.0,0.0,0.0,0.0,0.0,0.0,0.0,0.0,0.0,0.0,0.0,0.0,0.0,0.0,0.0,0.0,0.0,0.0,0.0,0.0,0.0,0.0,0.0,0.0,0.0,0.0,0.0,0.0,0.0,0.0,0.0,0.0,0.0,0.0,0.0,0.0,0.0,0.0,0.0,0.0,0.0,0.0,0.0,0.0,0.0,0.0,0.0,0.0,0.0,0.0,0.0,0.0,0.0,0.0,-4.3789,-4.4712,-4.5106,-4.4764,-4.1431,-3.917,0.0,0.0,0.0,0.0,0.0,0.0,0.0,0.0,0.0,0.0,0.0,0.0,0.0,0.0,0.0,0.0,0.0,0.0,0.0,0.0,0.0,0.0,0.0,0.0,0.0,0.0,0.0,0.0,0.0,0.0,0.0,0.0,0.0,0.0,0.0,0.0,0.0,0.0,0.0,0.0,0.0,0.0,0.0,0.0,0.0,0.0,0.0,0.0,0.0,0.0,0.0,0.0,0.0,0.0,0.0,0.0,0.0,0.0,0.0,0.0,0.0,0.0,0.0,0.0,0.0,0.0,0.0,0.0,0.0,0.0,0.0,0.0,0.0,0.0,0.0,0.0,0.0,0.0,0.0,0.0,0.0,0.0,0.0,0.0,0.0,0.0,0.0,0.0,0.0,0.0,0.0,0.0,0.0,0.0,0.0,0.0,0.0,0.0,0.0,0.0,0.0,0.0,0.0,0.0,0.0,0.0,0.0,0.0,-4.3512,-4.4406,-4.6323,-4.7254,-4.7111,-4.3591,-4.1006,0.0,0.0,0.0,0.0,0.0,0.0,0.0,0.0,0.0,0.0,0.0,0.0,0.0,0.0,0.0,0.0,0.0,0.0,0.0,0.0,0.0,0.0,0.0,0.0,0.0,0.0,0.0,0.0,0.0,0.0,0.0,0.0,0.0,0.0,0.0,0.0,0.0,0.0,0.0,0.0,0.0,0.0,0.0,0.0,0.0,0.0,0.0,0.0,0.0,0.0,0.0,0.0,0.0,0.0,0.0,0.0,0.0,0.0,0.0,0.0,0.0,0.0,0.0,0.0,0.0,0.0,0.0,0.0,0.0,0.0,0.0,0.0,0.0,0.0,0.0,0.0,0.0,0.0,0.0,0.0,0.0,0.0,0.0,0.0,0.0,0.0,0.0,0.0,0.0,0.0,0.0,0.0,0.0,0.0,0.0,0.0,0.0,0.0,0.0,0.0,0.0,0.0,0.0,0.0,0.0,0.0,0.0,0.0,-4.4408,-4.5156,-4.7369,-4.8402,-4.8122,-4.57,-4.292,0.0,0.0,0.0,0.0,0.0,0.0,0.0,0.0,0.0,0.0,0.0,0.0,0.0,0.0,0.0,0.0,0.0,0.0,0.0,0.0,0.0,0.0,0.0,0.0,0.0,0.0,0.0,0.0,0.0,0.0,0.0,0.0,0.0,0.0,0.0,0.0,0.0,0.0,0.0,0.0,0.0,0.0,0.0,0.0,0.0,0.0,0.0,0.0,0.0,0.0,0.0,0.0,0.0,0.0,0.0,0.0,0.0,0.0,0.0,0.0,0.0,0.0,0.0,0.0,0.0,0.0,0.0,0.0,0.0,0.0,0.0,0.0,0.0,0.0,0.0,0.0,0.0,0.0,0.0,0.0,0.0,0.0,0.0,0.0,0.0,0.0,0.0,0.0,0.0,0.0,0.0,0.0,0.0,0.0,0.0,0.0,0.0,0.0,0.0,0.0,0.0,0.0,0.0,0.0,0.0,0.0,0.0,0.0,-4.4705,-4.5716,-4.7592,-4.82,-4.7388,-4.4344,-4.2175,0.0,0.0,0.0,0.0,0.0,0.0,0.0,0.0,0.0,0.0,0.0,0.0,0.0,0.0,0.0,0.0,0.0,0.0,0.0,0.0,0.0,0.0,0.0,0.0,0.0,0.0,0.0,0.0,0.0,0.0,0.0,0.0,0.0,0.0,0.0,0.0,0.0,0.0,0.0,0.0,0.0,0.0,0.0,0.0,0.0,0.0,0.0,0.0,-3.9267,0.0,0.0,0.0,0.0,0.0,0.0,0.0,0.0,0.0,0.0,0.0,0.0,0.0,0.0,0.0,0.0,0.0,0.0,0.0,0.0,0.0,0.0,0.0,0.0,0.0,0.0,0.0,0.0,0.0,0.0,0.0,0.0,0.0,0.0,0.0,0.0,0.0,0.0,0.0,0.0,0.0,0.0,0.0,0.0,0.0,0.0,0.0,0.0,0.0,0.0,0.0,0.0,0.0,0.0,0.0,0.0,0.0,0.0,0.0,-4.492,-4.6597,-4.7923,-4.8145,-4.7169,-4.5094,-4.3123,0.0,0.0,0.0,0.0,0.0,0.0,0.0,0.0,0.0,0.0,0.0,0.0,0.0,0.0,0.0,0.0,0.0,0.0,0.0,0.0,0.0,0.0,0.0,0.0,0.0,0.0,0.0,0.0,0.0,0.0,0.0,0.0,0.0,0.0,0.0,0.0,0.0,0.0,0.0,0.0,0.0,0.0,0.0,0.0,0.0,0.0,0.0,0.0,0.0,0.0,0.0,0.0,0.0,0.0,0.0,0.0,0.0,0.0,0.0,0.0,0.0,0.0,0.0,0.0,0.0,0.0,0.0,0.0,0.0,0.0,0.0,0.0,0.0,0.0,0.0,0.0,0.0,0.0,0.0,0.0,0.0,0.0,0.0,0.0,0.0,0.0,0.0,0.0,0.0,0.0,0.0,0.0,0.0,0.0,0.0,0.0,0.0,0.0,0.0,0.0,0.0,0.0,0.0,0.0,0.0,0.0,0.0,-4.3683,-4.5086,-4.7479,-4.8236,-4.8126,-4.7132,-4.6287,-4.44,-4.1225,0.0,0.0,0.0,0.0,0.0,0.0,0.0,0.0,0.0,0.0,0.0,0.0,0.0,0.0,0.0,0.0,0.0,0.0,0.0,0.0,0.0,0.0,0.0,0.0,0.0,0.0,0.0,0.0,0.0,0.0,0.0,0.0,0.0,0.0,0.0,0.0,0.0,0.0,-3.6923,-3.8762,0.0,0.0,0.0,0.0,0.0,0.0,0.0,0.0,-4.1233,0.0,0.0,0.0,0.0,0.0,0.0,0.0,0.0,0.0,0.0,0.0,0.0,0.0,0.0,0.0,0.0,0.0,0.0,0.0,0.0,0.0,0.0,0.0,0.0,0.0,0.0,0.0,0.0,0.0,0.0,0.0,0.0,0.0,0.0,0.0,0.0,0.0,0.0,0.0,0.0,0.0,0.0,0.0,0.0,0.0,0.0,0.0,0.0,0.0,0.0,0.0,0.0,0.0,0.0,0.0,0.0,-4.3922,-4.3986,-4.5397,-4.8237,-4.8495,-4.7813,-4.6214,-4.5957,-4.4015,-4.0125,0.0,0.0,0.0,0.0,0.0,0.0,0.0,0.0,0.0,0.0,0.0,0.0,0.0,0.0,0.0,0.0,0.0,0.0,0.0,0.0,0.0,0.0,0.0,0.0,0.0,0.0,0.0,0.0,0.0,0.0,0.0,0.0,0.0,0.0,0.0,0.0,0.0,0.0,0.0,-4.1074,-4.1716,0.0,0.0,0.0,0.0,0.0,0.0,0.0,0.0,-4.3281,0.0,0.0,0.0,0.0,0.0,0.0,0.0,0.0,0.0,0.0,0.0,0.0,0.0,0.0,0.0,0.0,0.0,0.0,0.0,0.0,0.0,0.0,0.0,0.0,0.0,0.0,0.0,0.0,0.0,0.0,0.0,0.0,0.0,0.0,0.0,0.0,0.0,0.0,0.0,0.0,0.0,0.0,0.0,0.0,0.0,0.0,0.0,0.0,0.0,0.0,0.0,0.0,0.0,0.0,0.0,-4.3278,-4.4554,-4.607,-4.7941,-4.796,-4.7316,-4.6029,-4.5552,-4.3487,0.0,0.0,0.0,0.0,0.0,0.0,0.0,0.0,0.0,0.0,0.0,0.0,0.0,0.0,0.0,0.0,0.0,0.0,0.0,0.0,0.0,0.0,0.0,0.0,0.0,0.0,0.0,0.0,0.0,0.0,0.0,0.0,0.0,0.0,0.0,0.0,0.0,0.0,0.0,0.0,-4.2318,-4.3306,-4.5179,0.0,0.0,0.0,0.0,0.0,0.0,-4.3863,-4.3811,0.0,0.0,0.0,0.0,0.0,0.0,0.0,0.0,0.0,0.0,0.0,0.0,0.0,0.0,0.0,0.0,0.0,0.0,0.0,0.0,0.0,0.0,0.0,0.0,0.0,0.0,0.0,0.0,0.0,0.0,0.0,0.0,0.0,0.0,0.0,0.0,0.0,0.0,0.0,0.0,0.0,0.0,0.0,0.0,0.0,0.0,0.0,0.0,0.0,0.0,0.0,0.0,0.0,0.0,0.0,-4.2656,-4.4853,-4.6463,-4.7457,-4.724,-4.6727,-4.6047,-4.4765,-4.2649,0.0,0.0,0.0,0.0,0.0,0.0,0.0,0.0,0.0,0.0,0.0,0.0,0.0,0.0,0.0,0.0,0.0,0.0,0.0,0.0,0.0,0.0,0.0,0.0,0.0,0.0,0.0,0.0,0.0,0.0,0.0,0.0,0.0,0.0,0.0,0.0,0.0,0.0,0.0,0.0,0.0,-4.4849,-4.6218,-4.5766,0.0,0.0,0.0,0.0,-4.3979,-4.4226,0.0,0.0,0.0,0.0,0.0,0.0,0.0,0.0,0.0,0.0,0.0,0.0,0.0,0.0,0.0,0.0,0.0,0.0,0.0,0.0,0.0,0.0,0.0,0.0,0.0,0.0,0.0,0.0,0.0,0.0,0.0,0.0,0.0,0.0,0.0,0.0,0.0,0.0,0.0,0.0,0.0,0.0,0.0,0.0,0.0,0.0,0.0,0.0,0.0,0.0,0.0,0.0,0.0,0.0,0.0,0.0,-4.2562,-4.4266,-4.5838,-4.7205,-4.6634,-4.6139,-4.5865,-4.3287,-4.1175,0.0,0.0,0.0,0.0,0.0,0.0,0.0,0.0,0.0,0.0,0.0,0.0,0.0,0.0,0.0,0.0,0.0,0.0,0.0,0.0,0.0,0.0,0.0,0.0,0.0,0.0,0.0,0.0,0.0,0.0,0.0,0.0,0.0,0.0,0.0,0.0,0.0,0.0,0.0,0.0,0.0,-4.5743,-4.7313,-4.6228,-4.5273,0.0,0.0,-4.7186,-4.648,-4.717,0.0,0.0,0.0,0.0,0.0,0.0,0.0,0.0,0.0,0.0,0.0,0.0,0.0,0.0,0.0,0.0,0.0,0.0,0.0,0.0,0.0,0.0,0.0,0.0,0.0,0.0,0.0,0.0,0.0,0.0,0.0,0.0,0.0,0.0,0.0,0.0,0.0,0.0,0.0,0.0,0.0,0.0,0.0,0.0,0.0,0.0,0.0,0.0,0.0,0.0,0.0,0.0,0.0,0.0,0.0,-4.0228,-4.1839,-4.4223,-4.588,-4.6561,-4.6212,-4.5608,-4.476,-4.2231,-4.0123,0.0,0.0,0.0,0.0,0.0,0.0,0.0,0.0,0.0,0.0,0.0,0.0,0.0,0.0,0.0,0.0,0.0,0.0,0.0,0.0,0.0,0.0,0.0,0.0,0.0,0.0,0.0,0.0,0.0,0.0,0.0,0.0,0.0,0.0,0.0,0.0,0.0,0.0,0.0,0.0,0.0,0.0,-4.771,-4.7143,0.0,0.0,0.0,-4.6364,-4.5811,0.0,0.0,0.0,0.0,0.0,0.0,0.0,0.0,0.0,0.0,0.0,0.0,0.0,0.0,0.0,0.0,0.0,0.0,0.0,0.0,0.0,0.0,0.0,0.0,0.0,0.0,0.0,0.0,0.0,0.0,0.0,0.0,0.0,0.0,0.0,0.0,0.0,0.0,0.0,0.0,0.0,0.0,0.0,0.0,0.0,0.0,0.0,0.0,0.0,0.0,0.0,0.0,0.0,0.0,0.0,0.0,0.0,-4.1209,-4.4101,-4.5754,-4.601,-4.5425,-4.4636,-4.3599,-4.1402,0.0,0.0,0.0,0.0,0.0,0.0,0.0,0.0,0.0,0.0,0.0,0.0,0.0,0.0,0.0,0.0,0.0,0.0,0.0,0.0,0.0,0.0,0.0,0.0,0.0,0.0,0.0,-2.6012,0.0,0.0,0.0,0.0,0.0,0.0,0.0,0.0,0.0,0.0,0.0,0.0,0.0,0.0,-4.7741,-4.7842,-4.7922,-4.8279,0.0,0.0,-4.6127,-4.5603,-4.6083,-4.5849,0.0,0.0,0.0,0.0,0.0,0.0,0.0,0.0,0.0,0.0,0.0,0.0,0.0,0.0,0.0,0.0,0.0,0.0,0.0,0.0,0.0,0.0,0.0,0.0,0.0,0.0,0.0,0.0,0.0,0.0,0.0,0.0,0.0,0.0,0.0,0.0,0.0,0.0,0.0,0.0,0.0,0.0,0.0,0.0,0.0,0.0,0.0,0.0,0.0,0.0,0.0,0.0,0.0,0.0,-3.9551,-4.113,-4.3534,-4.5149,-4.581,-4.394,-4.2858,-4.275,-4.0888,-3.8842,0.0,0.0,0.0,0.0,0.0,0.0,0.0,0.0,0.0,0.0,0.0,0.0,0.0,0.0,0.0,0.0,0.0,0.0,0.0,0.0,0.0,0.0,0.0,0.0,0.0,0.0,0.0,0.0,0.0,0.0,0.0,0.0,0.0,0.0,0.0,0.0,0.0,0.0,0.0,0.0,0.0,-4.7699,-4.7717,-4.8351,-4.8901,0.0,-4.8443,-4.7709,-4.7378,-4.8596,-4.8444,-4.5055,0.0,0.0,0.0,0.0,0.0,0.0,0.0,0.0,0.0,0.0,0.0,0.0,0.0,0.0,0.0,0.0,0.0,0.0,0.0,0.0,0.0,0.0,0.0,0.0,0.0,0.0,0.0,0.0,0.0,0.0,0.0,0.0,0.0,0.0,0.0,0.0,0.0,0.0,0.0,0.0,0.0,0.0,0.0,0.0,0.0,0.0,0.0,0.0,0.0,0.0,0.0,0.0,0.0,-3.8487,-3.9643,-4.2488,-4.3943,-4.3886,-4.3116,-4.2113,-4.0958,-3.9774,-3.7958,0.0,0.0,0.0,0.0,0.0,0.0,0.0,0.0,0.0,0.0,0.0,0.0,0.0,0.0,0.0,0.0,0.0,0.0,0.0,0.0,0.0,0.0,0.0,0.0,0.0,0.0,0.0,0.0,-3.015,-3.092,-3.1654,0.0,0.0,0.0,0.0,0.0,0.0,0.0,0.0,0.0,0.0,-4.6557,-4.801,-4.8413,0.0,0.0,-4.8115,-4.6987,-4.6906,-4.6713,-4.5988,-4.4169,-4.3415,0.0,0.0,0.0,0.0,0.0,0.0,0.0,0.0,0.0,0.0,0.0,0.0,0.0,0.0,0.0,0.0,0.0,0.0,0.0,0.0,0.0,0.0,0.0,0.0,0.0,0.0,0.0,0.0,0.0,0.0,0.0,0.0,0.0,0.0,0.0,0.0,0.0,0.0,0.0,0.0,0.0,0.0,0.0,0.0,0.0,0.0,0.0,0.0,0.0,0.0,0.0,0.0,-3.7881,-3.8707,-4.1745,-4.3105,-4.2693,-4.2171,-4.1109,-3.951,-3.9081,-3.7477,0.0,0.0,0.0,0.0,0.0,0.0,0.0,0.0,0.0,0.0,0.0,0.0,0.0,0.0,0.0,0.0,0.0,0.0,0.0,0.0,0.0,0.0,0.0,0.0,0.0,0.0,0.0,0.0,-3.1275,-3.2001,-3.263,0.0,0.0,0.0,0.0,0.0,0.0,0.0,0.0,0.0,0.0,-4.6414,-4.7638,-4.8117,-4.8504,-4.8715,-4.7419,-4.6488,-4.6563,-4.5665,-4.4722,-4.4198,0.0,0.0,0.0,0.0,0.0,0.0,0.0,0.0,0.0,0.0,0.0,0.0,0.0,0.0,0.0,0.0,0.0,0.0,0.0,0.0,0.0,0.0,0.0,0.0,0.0,0.0,0.0,-3.2234,0.0,0.0,-3.1184,0.0,0.0,0.0,0.0,0.0,0.0,0.0,0.0,0.0,0.0,0.0,0.0,0.0,0.0,0.0,0.0,0.0,0.0,0.0,0.0,0.0,0.0,-3.7863,-3.8689,-4.1432,-4.279,-4.2582,-4.0983,-3.9608,-3.8747,-3.8897,-3.7486,-3.4364,0.0,0.0,0.0,0.0,0.0,0.0,0.0,0.0,0.0,0.0,0.0,0.0,0.0,0.0,0.0,0.0,0.0,0.0,0.0,0.0,0.0,0.0,0.0,0.0,0.0,0.0,-3.0277,-3.1687,-3.2646,0.0,0.0,0.0,0.0,0.0,0.0,0.0,0.0,0.0,-4.3565,-4.6332,-4.7768,-4.6365,-4.7432,-4.7945,-4.6826,-4.6544,-4.6567,-4.6716,-4.6109,-4.5669,0.0,0.0,0.0,0.0,0.0,0.0,0.0,0.0,0.0,0.0,0.0,0.0,0.0,0.0,0.0,0.0,0.0,0.0,0.0,0.0,0.0,0.0,0.0,0.0,0.0,0.0,0.0,-3.3214,-3.2402,0.0,0.0,0.0,0.0,0.0,0.0,0.0,0.0,0.0,0.0,0.0,-3.5641,-3.6218,0.0,0.0,0.0,0.0,0.0,0.0,0.0,0.0,0.0,0.0,0.0,0.0,-3.7192,-3.6785,-4.013,-4.1112,-3.9282,-3.8709,-3.8096,-3.7445,-3.7411,-3.6148,-3.3422,0.0,0.0,0.0,0.0,0.0,0.0,0.0,0.0,0.0,0.0,0.0,0.0,0.0,0.0,0.0,0.0,0.0,0.0,0.0,0.0,0.0,0.0,0.0,0.0,0.0,-3.1083,0.0,0.0,0.0,0.0,0.0,0.0,0.0,0.0,0.0,0.0,0.0,-4.1199,-4.3922,-4.3923,-4.4163,-4.56,-4.6289,-4.6816,0.0,0.0,0.0,0.0,0.0,0.0,0.0,0.0,0.0,0.0,0.0,0.0,0.0,0.0,-4.2434,-4.0023,-3.9198,-3.8898,-3.9122,0.0,0.0,0.0,0.0,0.0,0.0,0.0,0.0,0.0,0.0,0.0,0.0,0.0,0.0,-3.4092,-3.3314,-3.2837,0.0,0.0,0.0,0.0,0.0,0.0,0.0,0.0,-3.5721,-3.6152,-3.6406,-3.6947,-3.7088,0.0,-3.6814,-3.6152,0.0,0.0,0.0,0.0,0.0,0.0,0.0,0.0,-3.6765,-3.5681,-3.8977,-3.9718,-3.7654,-3.7431,-3.7175,-3.6726,-3.6081,-3.4923,-3.3334,-3.0999,-2.9234,0.0,0.0,0.0,0.0,0.0,0.0,0.0,0.0,0.0,0.0,0.0,0.0,0.0,0.0,0.0,0.0,0.0,0.0,0.0,0.0,0.0,0.0,0.0,-3.1517,0.0,0.0,0.0,0.0,0.0,0.0,0.0,0.0,0.0,-4.0409,-4.0747,-4.183,-4.4248,-4.3758,-4.3589,-4.4756,0.0,0.0,0.0,0.0,0.0,0.0,0.0,-4.3551,-4.4002,-4.3805,-4.4054,-4.5567,-4.5789,-4.545,-4.4409,0.0,0.0,-4.116,-4.0478,-4.0334,-4.057,-4.0591,-4.0613,-4.0598,-4.0411,-4.0251,0.0,0.0,0.0,0.0,0.0,0.0,0.0,0.0,-3.624,-3.563,0.0,-3.3818,0.0,0.0,0.0,0.0,-3.4606,-3.5367,0.0,0.0,-3.7443,-3.7853,-3.7162,-3.7226,-3.769,-3.8255,-3.6856,-3.6528,-3.7143,-3.6419,0.0,0.0,0.0,0.0,0.0,0.0,-3.659,-3.5531,-3.8087,-3.8784,-3.7465,-3.7113,-3.6814,-3.6451,-3.486,-3.3939,-3.3822,-3.1663,-3.0179,-2.9433,-2.8092,0.0,0.0,0.0,0.0,0.0,0.0,0.0,0.0,0.0,0.0,0.0,0.0,0.0,0.0,0.0,0.0,0.0,0.0,0.0,0.0,-3.1169,0.0,0.0,0.0,0.0,0.0,0.0,0.0,0.0,0.0,-3.9241,-4.1135,-4.3098,-4.4519,-4.457,0.0,0.0,0.0,0.0,-4.5652,-4.2912,-4.3047,-4.3318,-4.2675,-4.3098,-4.3956,-4.5219,0.0,0.0,-4.6725,-4.6231,-4.5357,-4.3897,-4.4189,-4.4394,-4.3544,-4.2783,-4.2579,-4.316,-4.2224,-4.1413,-4.1392,-4.0892,-4.0115,-4.2233,0.0,0.0,0.0,0.0,-3.8469,-3.8091,-3.7567,-3.7332,-3.6379,-3.484,-3.3826,0.0,0.0,0.0,0.0,0.0,0.0,-3.5566,-3.6653,-3.7156,-3.7537,-3.7899,-3.8495,-3.8585,-3.8274,-3.8368,-3.8259,-3.7896,-3.766,-3.6635,-3.4816,0.0,0.0,0.0,0.0,-3.6411,-3.5828,-3.7299,-3.749,-3.6178,-3.6005,-3.5542,-3.476,-3.3734,-3.2896,-3.2309,-3.1123,-3.0179,-2.945,-2.886,0.0,0.0,0.0,0.0,0.0,0.0,0.0,0.0,0.0,0.0,0.0,0.0,0.0,0.0,0.0,0.0,0.0,0.0,0.0,-3.2048,-3.2528,-3.28,0.0,0.0,0.0,0.0,0.0,0.0,0.0,0.0,0.0,-4.3054,-4.2903,-4.3093,0.0,0.0,-4.2669,-4.2625,-4.3623,-4.4468,-4.4688,-4.4908,0.0,-4.5984,-4.5378,-4.5118,-4.5915,-4.6469,-4.6524,-4.544,-4.5929,-4.6108,-4.4731,-4.4545,-4.4291,-4.3533,-4.3198,-4.3107,-4.3259,-4.2667,-4.2093,-4.2032,-4.155,-4.0964,-4.4075,-4.2545,-4.1439,-4.0693,-4.0174,-4.0002,-3.9728,-3.9407,-3.9113,-3.8138,-3.6742,-3.5732,-3.4679,-3.361,-3.3302,0.0,0.0,0.0,-3.6236,-3.7468,-3.7449,-3.7721,-3.821,-3.8681,-3.8663,-3.8228,-3.8681,-3.8663,-3.8192,-3.7866,-3.7043,-3.5672,0.0,0.0,-3.4943,-3.5636,-3.5847,-3.5584,-3.655,-3.6603,-3.5611,-3.5429,-3.5044,-3.4422,-3.3423,-3.2569,-3.205,-3.1056,-3.0311,-2.988,-2.9379,-2.8633,0.0,0.0,0.0,0.0,0.0,0.0,0.0,0.0,0.0,0.0,0.0,-2.7349,-2.6582,0.0,0.0,0.0,-3.0876,-3.2059,-3.3198,-3.3317,0.0,0.0,0.0,0.0,0.0,0.0,0.0,-3.8747,-4.0696,-4.2492,-4.3698,-4.3406,-4.353,-4.4934,-4.3944,-4.3211,-4.3384,0.0,-4.5101,-4.5496,-4.5529,-4.5656,-4.6092,-4.5958,-4.5972,-4.6493,-4.6581,-4.616,-4.4957,-4.5346,-4.5469,-4.4518,-4.4235,-4.3974,-4.325,-4.2882,-4.2718,-4.2783,-4.2563,-4.2157,-4.1888,-4.1709,-4.156,-4.4796,-4.4497,-4.2234,-4.1273,-4.1167,-4.0838,-4.111,-4.1638,-4.1195,-4.0559,-3.9688,-3.871,-3.7395,-3.5856,-3.5059,0.0,-3.7011,-3.7011,-3.7428,-3.8192,-3.8192,-3.8192,-3.8192,-3.821,-3.8192,-3.8192,-3.8192,-3.8192,-3.8156,-3.7449,-3.7033,-3.6975,-3.62,-3.5606,-3.5166,-3.5098,-3.5098,-3.5128,-3.5811,-3.5907,-3.5492,-3.5245,-3.5038,-3.4888,-3.3499,-3.2613,-3.2481,-3.1179,-3.0485,-3.0452,-2.9617,-2.9081,-2.8822,0.0,0.0,0.0,0.0,0.0,0.0,0.0,0.0,0.0,0.0,0.0,0.0,0.0,0.0,0.0,-3.1887,0.0,-3.425,-3.3828,0.0,0.0,0.0,-3.6357,-3.634,-3.8907,-4.0348,-3.962,0.0,0.0,-4.3694,-4.4296,-4.513,-4.6269,-4.6296,-4.5945,-4.5303,-4.6307,-4.6809,-4.5403,-4.5336,-4.5135,-4.4725,-4.546,-4.6254,-4.6634,-4.625,-4.5443,-4.4621,-4.4283,-4.3956,-4.3317,-4.3472,-4.3464,-4.2746,-4.2113,-4.178,-4.1833,-4.1867,-4.1611,-4.0908,-4.1163,-4.1344,-4.4685,-4.4486,-4.3904,-4.3641,-4.3641,-4.3558,-4.305,-4.231,-4.2166,-4.1431,-4.0254,-3.9476,-3.821,-3.6653,-3.5874,-3.6055,-3.7011,-3.7011,-3.7431,-3.8174,-3.8192,-3.8192,-3.8192,-3.8192,-3.8192,-3.8192,-3.8192,-3.8192,-3.8174,-3.7993,-3.7576,-3.6993,-3.62,-3.572,-3.5606,-3.5048,-3.4951,-3.5397,-3.501,-3.4897,-3.5165,-3.5135,-3.4509,-3.3288,-3.2923,-3.2166,-3.109,-3.054,-3.029,-3.0274,-2.9724,-2.9408,-2.9468,-2.7865,0.0,0.0,0.0,0.0,0.0,0.0,0.0,0.0,0.0,-2.8303,-2.6445,0.0,-3.0768,0.0,-3.1933,-3.3829,-3.4845,-3.563,0.0,0.0,-3.8171,-3.9068,-3.9355,-4.1425,-4.2568,-4.1839,-4.3164,-4.4456,-4.5185,-4.4865,-4.5358,-4.7239,-4.62,-4.5207,-4.5193,-4.5989,-4.6274,-4.5494,-4.6129,-4.6547,-4.5729,-4.5735,-4.5821,-4.5374,-4.5177,-4.4549,-4.3285,-4.2839,-4.2689,-4.265,-4.2365,-4.2051,-4.1601,-4.1636,-4.1239,-4.043,-4.0256,-4.0303,-4.0064,-3.9845,-3.9535,-4.4632,-4.4496,-4.4496,-4.4083,-4.3436,-4.4064,-4.3818,-4.3047,-4.2897,-4.2187,-4.0963,-4.0113,-3.9048,-3.7911,-3.7803,-3.769,-3.754,-3.7902,-3.8101,-3.8192,-3.8192,-3.8192,-3.8192,-3.8192,-3.8192,-3.8192,-3.8192,-3.8192,-3.8192,-3.8124,-3.7855,-3.7404,-3.687,-3.644,-3.6029,-3.4695,-3.4161,-3.4547,-3.4303,-3.4459,-3.5055,-3.5058,-3.4446,-3.3226,-3.2862,-3.2166,-3.1014,-3.0481,-3.0041,-2.9714,-2.956,-2.9371,-2.9111,-2.8128,-2.7585,0.0,0.0,0.0,0.0,0.0,0.0,0.0,0.0,0.0,0.0,0.0,-3.134,-3.11,-3.3204,-3.4926,-3.5776,-3.6493,-3.7383,-3.8586,-3.9706,-4.0623,-4.1236,-4.273,-4.3756,-4.3932,-4.469,-4.5454,-4.6159,-4.583,-4.5905,-4.6884,-4.6025,-4.5522,-4.6258,-4.651,-4.6385,-4.6038,-4.634,-4.6468,-4.5978,-4.5862,-4.5527,-4.4792,-4.443,-4.3788,-4.2467,-4.2123,-4.191,-4.164,-4.1504,-4.1266,-4.0821,-4.0637,-4.0286,-3.9638,-3.9171,-3.9071,-3.9042,-3.9059,-3.9031,-4.4624,-4.4496,-4.4496,-4.367,-4.2404,-4.3613,-4.3776,-4.3102,-4.2852,-4.2285,-4.145,-4.0543,-3.9786,-3.9175,-3.9642,-3.9265,-3.8178,-3.8847,-3.8793,-3.8106,-3.8124,-3.8106,-3.8106,-3.8124,-3.8124,-3.8106,-3.8106,-3.8106,-3.8106,-3.7934,-3.781,-3.772,-3.747,-3.6951,-3.6061,-3.4212,-3.324,-3.3244,-3.3712,-3.4289,-3.4922,-3.4714,-3.427,-3.3541,-3.2895,-3.2106,-3.1312,-3.051,-2.9744,-2.9058,-2.9291,-2.9278,-2.883,-2.845,-2.8345,0.0,-2.7822,0.0,0.0,0.0,0.0,0.0,0.0,0.0,0.0,-3.1213,-3.2162,-3.3451,-3.4777,-3.5888,-3.6685,-3.6972,-3.7873,-3.9691,-4.0505,-4.1357,-4.2423,-4.3098,-4.3977,-4.5288,-4.5439,-4.5704,-4.612,-4.6244,-4.5965,-4.5461,-4.5151,-4.5419,-4.6927,-4.6806,-4.6528,-4.6576,-4.5904,-4.5373,-4.5286,-4.5263,-4.4865,-4.4164,-4.334,-4.2696,-4.1635,-4.137,-4.1062,-4.0476,-4.0581,-4.0597,-4.0075,-3.9552,-3.9204,-3.9044,-3.8594,-3.8275,-3.8364,-3.876,-3.9069,-4.4542,-4.4496,-4.4496,-4.4327,-4.4036,-4.4308,-4.2763,-4.0048,-3.9797,-4.0032,-4.0453,-4.0121,-3.9863,-3.9649,-3.8597,-3.7935,-3.7703,-3.7882,-3.7882,-3.7685,-3.7703,-3.7721,-3.7703,-3.7721,-3.7685,-3.7685,-3.7721,-3.7703,-3.7739,-3.7667,-3.7345,-3.6666,-3.6397,-3.5638,-3.4547,0.0,0.0,0.0,-3.3532,-3.3902,-3.4018,-3.3454,-3.2762,-3.2067,-3.1726,0.0,-2.965,-2.9626,-2.9267,-2.8608,-2.8968,0.0,0.0,0.0,0.0,0.0,0.0,0.0,0.0,0.0,0.0,0.0,-3.0132,-3.018,-3.1019,-3.2238,-3.3535,-3.4841,-3.5292,-3.5719,-3.6416,-3.8014,-3.9259,-3.9927,-4.0705,-4.166,-4.2686,-4.2497,-4.2674,-4.3506,-4.3573,-4.3646,-4.3803,-4.3379,-4.3267,-4.3544,-4.3195,-4.3251,-4.4145,-4.5183,-4.5659,-4.5096,-4.4394,-4.3898,-4.392,-4.3371,-4.2762,-4.1884,-4.1138,-4.0387,-3.9728,-3.9415,-3.9396,-3.9569,-3.962,-3.9567,-3.9392,-3.9262,-3.9,-3.8507,-3.8304,-3.8202,-3.8202,-3.8289,-3.8437,-4.4496,-4.4496,-4.4496,-4.4045,0.0,-4.3221,-4.1724,-3.9394,-4.0584,-4.1085,-4.1034,-4.0935,-4.0486,-3.9704,-3.8922,-3.8002,-3.7006,-3.7059,-3.7059,-3.6988,-3.7006,-3.722,-3.7577,-3.7577,-3.7577,-3.7577,-3.7577,-3.7577,-3.7594,-3.7503,-3.7251,-3.686,-3.6412,-3.5889,-3.5307,-3.4695,-3.4068,-3.335,-3.3653,-3.3972,-3.4303,-3.3815,-3.3225,-3.2533,-3.2272,0.0,0.0,0.0,0.0,0.0,0.0,0.0,0.0,0.0,0.0,-3.1133,-3.0414,-3.0128,-3.051,-3.0752,-3.1165,-3.1865,-3.2463,-3.2613,-3.2282,-3.3846,-3.5142,-3.5821,-3.62,-3.6706,-3.7401,-3.8412,-3.9263,-3.9936,-4.0467,-4.1031,-4.1577,-4.1013,-4.1062,-4.2209,-4.1953,-4.1774,-4.2499,-4.2303,-4.2025,-4.1952,-4.1745,-4.1655,-4.219,-4.3472,-4.4204,-4.3466,-4.2778,-4.2291,-4.2172,-4.1855,-4.145,-4.0994,-4.0621,-4.0219,-3.9694,-3.9557,-3.951,-3.9386,-3.9266,-3.9117,-3.8783,-3.871,-3.8609,-3.8304,-3.8202,-3.8072,-3.7854,-3.7767,-3.7651,-4.4496,-4.4496,-4.4496,-4.3699,-4.2423,-4.2369,-4.1501,-4.0253,0.0,0.0,0.0,-4.1609,-4.0859,-3.9552,-3.9416,-3.8291,-3.6541,-3.6559,-3.6559,-3.6506,-3.6506,-3.6826,-3.7485,-3.7503,-3.7466,-3.7503,-3.7466,-3.7503,-3.7466,-3.7334,-3.7259,-3.7182,-3.6748,-3.6461,-3.6276,-3.5605,-3.4801,-3.3958,-3.3856,-3.4071,-3.462,-3.4282,-3.3825,-3.3125,-3.2756,-3.2208,-3.1498,-3.1406,-3.1007,-3.0321,-3.0959,-3.1197,-3.0816,-3.0895,-3.1006,-3.1118,-3.1039,-3.1246,-3.1918,-3.241,-3.293,-3.3577,-3.4707,-3.4952,-3.3909,-3.5552,-3.6553,-3.6436,-3.7074,-3.7701,-3.8149,-3.8383,-3.879,-3.9513,-3.9707,-3.989,-4.0004,-3.9133,-3.9115,-4.057,-4.0076,-3.9873,-4.09,-4.1172,-4.11,-4.0541,-4.03,-4.0492,-4.0701,-4.1836,-4.2576,-4.1995,-4.1501,-4.108,-4.082,-4.0657,-4.061,-4.0539,-4.0403,-4.0279,-4.0125,-4.0047,-3.9843,-3.9121,-3.903,-3.8783,-3.8333,-3.826,-3.8159,-3.8057,-3.8028,-3.781,-3.7157,-3.6954,-3.6823,-4.4496,-4.4496,-4.4496,-4.4337,-4.4074,-4.4074,-4.3625,-4.2816,-4.1533,-4.0727,-4.0426,-4.0618,-4.019,-3.9311,-3.8626,-3.7805,-3.6946,-3.6929,-3.6946,-3.6929,-3.689,-3.6999,-3.7087,-3.7087,-3.7087,-3.7105,-3.7105,-3.7105,-3.7087,-3.7066,-3.7027,-3.7027,-3.6667,-3.6174,-3.556,-3.4961,-3.4545,-3.4382,-3.4011,-3.3746,-3.3594,-3.2941,-3.2441,-3.2077,-3.1308,-3.0525,-2.9836,-3.0211,-3.0038,-2.9389,-3.0512,-3.1544,-3.2169,-3.2201,-3.2538,-3.3198,-3.3262,-3.331,-3.339,-3.3348,-3.3609,-3.4169,-3.492,-3.5552,-3.5979,-3.6801,-3.7144,-3.6751,-3.7163,-3.7317,-3.7078,-3.7824,-3.8308,-3.8044,-3.8154,-3.8105,-3.7813,-3.7178,-3.6875,-3.7337,-3.7491,-3.7726,-3.8179,-3.8767,-3.9106,-3.8748,-3.8908,-3.9103,-3.9645,-4.0477,-4.1,-4.0967,-4.0908,-4.0849,-4.058,-4.0103,-3.9748,-3.9674,-3.9113,-3.8789,-3.8713,-3.8728,-3.8641,-3.8376,-3.8347,-3.8275,-3.813,-3.8202,-3.7837,-3.7475,-3.7345,-3.6997,-3.5969,-3.5679,-3.5793,-4.4496,-4.4496,-4.4496,-4.4458,-4.4383,-4.4296,-4.4097,-4.3647,-4.209,-4.1379,-4.13,-4.116,-4.0428,-3.9287,-3.8462,-3.7461,-3.6338,-3.5917,-3.5952,-3.6338,-3.6355,-3.6584,-3.6952,-3.697,-3.6759,-3.6391,-3.6794,-3.6759,-3.6408,-3.6759,-3.697,-3.6987,-3.665,-3.6148,-3.5407,-3.4991,-3.4675,-3.4497,-3.4169,-3.3892,-3.3746,-3.3324,-3.2837,-3.2369,-3.1725,-3.1165,-3.0466,-3.0608,-3.0765,-3.0828,-3.1544,-3.2244,-3.2978,-3.2761,-3.2732,-3.3051,-3.2965,-3.293,-3.2981,-3.3577,-3.4184,-3.4826,-3.5537,-3.6248,-3.6943,-3.7291,-3.7405,-3.7165,-3.7105,-3.6968,-3.6723,-3.6925,-3.6955,-3.675,-3.6844,-3.6836,-3.6594,-3.6142,-3.5938,-3.6257,-3.6577,-3.6896,-3.7259,-3.7914,-3.8277,-3.8202,-3.8277,-3.8498,-3.876,-3.9127,-3.9616,-3.9956,-3.978,-3.9484,-3.9393,-3.9098,-3.8818,-3.8789,-3.8481,-3.8217,-3.8202,-3.8202,-3.8057,-3.7781,-3.7709,-3.7475,-3.7096,-3.6893,-3.6675,-3.631,-3.6168,-3.5739,-3.5025,-3.4525,-3.4466,-4.4496,-4.4515,-4.4487,-4.4318,-4.4044,-4.3935,-4.3732,-4.3361,-4.2345,-4.1922,-4.1884,-4.1587,-4.0654,-3.9322,-3.8638,-3.7532,-3.6145,-3.5478,-3.5513,-3.6039,-3.6075,-3.6408,-3.6935,-3.697,-3.6654,-3.618,-3.6707,-3.6654,-3.6215,-3.6707,-3.697,-3.6908,-3.6485,-3.5958,-3.5424,-3.4944,-3.4561,-3.43,-3.405,-3.3949,-3.4,-3.3797,-3.3374,-3.2668,-3.2244,-3.1697,-3.1033,-3.0986,-3.1239,-3.181,-3.2085,-3.2498,-3.3133,-3.2739,-3.2551,-3.2644,-3.2487,-3.2384,-3.255,-3.3414,-3.4353,-3.5203,-3.5754,-3.6416,-3.7279,-3.7405,-3.7361,-3.7285,-3.7044,-3.6831,-3.6523,-3.6321,-3.5991,-3.5831,-3.5848,-3.5829,-3.5725,-3.54,-3.5314,-3.5793,-3.5996,-3.6301,-3.6838,-3.7535,-3.8014,-3.8159,-3.8202,-3.8202,-3.8202,-3.8127,-3.8359,-3.8757,-3.8672,-3.8454,-3.8202,-3.8171,-3.8081,-3.8052,-3.7976,-3.78,-3.7728,-3.767,-3.7425,-3.695,-3.6792,-3.6487,-3.5882,-3.5723,-3.552,-3.5159,-3.5088,-3.479,-3.4156,-3.3621,-3.3368,-4.4496,-4.4468,-4.444,-4.3876,-4.3077,-4.2988,-4.2519,-4.1876,-4.1296,-4.1101,-4.1152,-4.1076,-4.0377,-3.9357,-3.9182,-3.8269,-3.6882,-3.6794,-3.6777,-3.6812,-3.6865,-3.6917,-3.697,-3.697,-3.6935,-3.6829,-3.6974,-3.69,-3.6759,-3.6917,-3.693,-3.6731,-3.5924,-3.5509,-3.5283,-3.4399,-3.3848,-3.3761,-3.3503,-3.3503,-3.3694,-3.3694,-3.3272,-3.2349,-3.165,-3.0986,-3.0322,-3.0291,-3.0322,-3.0417,-3.1033,-3.165,-3.2333,-3.2163,-3.2363,-3.2977,-3.2879,-3.2857,-3.2857,-3.2966,-3.3638,-3.4794,-3.506,-3.5728,-3.7037,-3.7105,-3.6999,-3.6846,-3.7165,-3.6892,-3.6165,-3.6258,-3.607,-3.5365,-3.5243,-3.5141,-3.4733,-3.4501,-3.453,-3.4559,-3.5198,-3.5503,-3.5778,-3.6664,-3.7475,-3.7792,-3.7806,-3.782,-3.7849,-3.7695,-3.7601,-3.7806,-3.7991,-3.8142,-3.8127,-3.7915,-3.7644,-3.7596,-3.7352,-3.702,-3.6651,-3.6349,-3.6104,-3.5776,-3.5458,-3.5388,-3.5229,-3.5198,-3.4944,-3.4335,-3.4108,-3.4098,-3.355,-3.3043,-3.2917,-4.4496,-4.4487,-4.4411,-4.381,-4.2899,-4.2326,-4.1887,-4.1571,-4.0903,-4.0787,-4.0881,-4.0275,-3.9582,-3.8907,-3.8725,-3.8006,-3.7023,-3.697,-3.697,-3.697,-3.697,-3.697,-3.697,-3.697,-3.6759,-3.6373,-3.6759,-3.672,-3.6383,-3.6601,-3.6806,-3.6725,-3.6343,-3.6028,-3.5776,-3.4941,-3.435,-3.4151,-3.3607,-3.3361,-3.345,-3.3466,-3.2669,-3.132,-3.1539,-3.1081,-2.9832,-3.0322,-3.0747,-3.0746,-3.1294,-3.1986,-3.2588,-3.216,-3.2238,-3.2873,-3.2966,-3.2843,-3.2718,-3.3201,-3.388,-3.4847,-3.5299,-3.6029,-3.6919,-3.706,-3.68,-3.6305,-3.6165,-3.5913,-3.5464,-3.5023,-3.4691,-3.4654,-3.452,-3.4385,-3.4414,-3.4414,-3.4414,-3.4457,-3.4965,-3.5357,-3.5473,-3.6013,-3.6416,-3.6468,-3.6436,-3.6568,-3.645,-3.6571,-3.6736,-3.6807,-3.711,-3.7429,-3.7519,-3.7366,-3.7147,-3.6801,-3.6598,-3.622,-3.5714,-3.5531,-3.5395,-3.4702,-3.4604,-3.4276,-3.374,-3.3681,-3.3556,-3.319,-3.3032,-3.2935,-3.2701,-3.2516,-3.2516,-4.4337,-4.4102,-4.3821,-4.3108,-4.2162,-4.1545,-4.1126,-4.0866,-4.029,-4.02,-4.0362,-3.9455,-3.8847,-3.8526,-3.8227,-3.769,-3.7058,-3.697,-3.697,-3.6948,-3.6948,-3.6948,-3.6926,-3.6908,-3.6628,-3.6204,-3.6646,-3.6606,-3.609,-3.6388,-3.6643,-3.6661,-3.6478,-3.6276,-3.5924,-3.5266,-3.4785,-3.4382,-3.3797,-3.3355,-3.3124,-3.3214,-3.2487,-3.1067,-3.1729,-3.1444,-2.9848,-3.0621,-3.1124,-3.1039,-3.1271,-3.1768,-3.2507,-3.1877,-3.184,-3.2648,-3.2773,-3.2703,-3.2594,-3.3153,-3.3768,-3.4452,-3.5151,-3.5867,-3.6518,-3.6768,-3.66,-3.607,-3.5305,-3.4927,-3.4728,-3.407,-3.3742,-3.4045,-3.3839,-3.377,-3.4059,-3.4128,-3.4059,-3.4171,-3.4404,-3.4891,-3.5008,-3.5196,-3.5336,-3.5342,-3.5282,-3.5226,-3.518,-3.5545,-3.5675,-3.5675,-3.5976,-3.6339,-3.6788,-3.669,-3.6438,-3.6067,-3.5767,-3.5224,-3.4757,-3.4632,-3.4395,-3.3633,-3.3654,-3.3529,-3.3018,-3.2712,-3.2544,-3.2314,-3.2169,-3.2169,-3.2182,-3.2109,-3.2096,-4.399,-4.3175,-4.224,-4.138,-4.0513,-4.0457,-3.9993,-3.938,-3.9231,-3.9185,-3.9221,-3.8847,-3.8433,-3.8178,-3.8117,-3.7672,-3.704,-3.697,-3.6948,-3.6829,-3.6829,-3.6788,-3.6702,-3.6719,-3.6725,-3.6603,-3.6655,-3.669,-3.6597,-3.655,-3.6485,-3.6502,-3.6028,-3.5705,-3.5565,-3.5111,-3.4577,-3.4088,-3.3986,-3.3476,-3.259,-3.2961,-3.2929,-3.2171,-3.2301,-3.1918,-3.1126,-3.1027,-3.1021,-3.1005,-3.0482,-3.0585,-3.1628,-3.1151,-3.1294,-3.2237,-3.2437,-3.2453,-3.2398,-3.253,-3.2838,-3.3501,-3.4195,-3.4932,-3.5794,-3.6214,-3.6337,-3.6196,-3.5109,-3.4432,-3.4163,-3.3905,-3.3644,-3.3479,-3.3339,-3.3339,-3.3339,-3.3479,-3.3339,-3.3409,-3.355,-3.3804,-3.4228,-3.4283,-3.4492,-3.4857,-3.5068,-3.504,-3.4836,-3.4799,-3.4657,-3.4609,-3.4596,-3.4731,-3.6381,-3.6136,-3.5585,-3.5259,-3.4692,-3.3935,-3.3479,-3.3111,-3.2872,-3.2627,-3.2618,-3.2536,-3.2282,-3.2228,-3.2141,-3.2028,-3.1974,-3.1974,-3.1546,-3.1769,-3.1702,-4.3886,-4.2874,-4.1493,-4.071,-4.0346,-3.9825,-3.9361,-3.9101,-3.9101,-3.9101,-3.9027,-3.873,-3.8517,-3.8378,-3.7864,-3.7411,-3.7027,-3.697,-3.6948,-3.6829,-3.6788,-3.6766,-3.6702,-3.6719,-3.6719,-3.6719,-3.6719,-3.6643,-3.6561,-3.6444,-3.636,-3.6343,-3.6156,-3.5805,-3.5412,-3.5351,-3.4635,-3.3362,-3.3763,-3.3285,-3.1874,-3.2708,-3.2909,-3.2226,-3.2588,-3.2237,-3.1105,-3.1768,-3.1961,-3.1389,-3.1477,-3.1765,-3.2099,-3.1921,-3.1713,-3.1767,-3.2151,-3.2398,-3.2398,-3.2398,-3.269,-3.3321,-3.3629,-3.4349,-3.5305,-3.5767,-3.5814,-3.5616,-3.532,-3.4765,-3.4095,-3.3437,-3.2988,-3.3185,-3.3058,-3.2988,-3.3199,-3.3269,-3.3269,-3.3269,-3.3269,-3.3311,-3.3266,-3.3251,-3.3262,-3.3266,-3.3262,-3.3363,-3.3344,-3.3416,-3.3676,-3.367,-3.3791,-3.4172,-3.4717,-3.4744,-3.4462,-3.4326,-3.3859,-3.3275,-3.2752,-3.2603,-3.2418,-3.2345,-3.2196,-3.2042,-3.1942,-3.1815,-3.1715,-3.1339,-3.1312,-3.1164,-3.0673,-3.0873,-3.0793,-4.2753,-4.1977,-4.0645,-4.0012,-3.9863,-3.9064,-3.8859,-3.9045,-3.8822,-3.8832,-3.8961,-3.8826,-3.8676,-3.8455,-3.7982,-3.7468,-3.7069,-3.693,-3.6829,-3.669,-3.669,-3.6667,-3.6585,-3.6544,-3.6561,-3.6561,-3.6561,-3.6502,-3.6444,-3.6343,-3.6284,-3.6284,-3.6284,-3.5939,-3.5363,-3.5403,-3.4556,-3.3267,-3.3379,-3.2822,-3.1611,-3.2073,-3.2237,-3.1773,-3.2081,-3.2034,-3.1283,-3.2273,-3.2446,-3.1812,-3.2006,-3.2183,-3.2074,-3.2275,-3.2198,-3.1844,-3.2136,-3.2398,-3.2398,-3.2398,-3.2598,-3.3029,-3.3306,-3.3875,-3.4737,-3.5214,-3.5431,-3.5455,-3.5374,-3.5124,-3.4312,-3.3241,-3.2775,-3.3115,-3.2846,-3.2646,-3.2931,-3.2931,-3.2931,-3.2931,-3.286,-3.2789,-3.2574,-3.2588,-3.2472,-3.2169,-3.2169,-3.2169,-3.225,-3.2481,-3.2766,-3.2793,-3.305,-3.3287,-3.3566,-3.3525,-3.3566,-3.3457,-3.3254,-3.2671,-3.2326,-3.2177,-3.2109,-3.2036,-3.1909,-3.1829,-3.1602,-3.1389,-3.0996,-3.0543,-3.0468,-3.0458,-3.0161,-2.9931,-2.9861,-4.0598,-4.0496,-3.95,-3.9138,-3.9008,-3.8414,-3.8432,-3.8841,-3.8339,-3.847,-3.897,-3.8997,-3.8755,-3.8478,-3.8332,-3.7929,-3.7321,-3.697,-3.6725,-3.6544,-3.6544,-3.6444,-3.636,-3.6343,-3.6343,-3.6326,-3.6284,-3.6284,-3.6284,-3.6301,-3.6284,-3.6284,-3.6215,-3.5783,-3.5145,-3.5046,-3.4445,-3.3246,-3.2696,-3.2226,-3.1694,-3.1155,-3.0982,-3.0822,-3.0814,-3.1078,-3.1581,-3.2222,-3.2176,-3.1619,-3.1466,-3.1397,-3.1551,-3.2044,-3.2382,-3.2321,-3.2382,-3.2398,-3.2398,-3.2398,-3.2413,-3.2567,-3.3013,-3.3383,-3.371,-3.4629,-3.5262,-3.5263,-3.5205,-3.4984,-3.4359,-3.3616,-3.3171,-3.3087,-3.2574,-3.2314,-3.2255,-3.2255,-3.2241,-3.2241,-3.2314,-3.2241,-3.2241,-3.2241,-3.2241,-3.2241,-3.2169,-3.2169,-3.2169,-3.2277,-3.2223,-3.2236,-3.2367,-3.2502,-3.2489,-3.2361,-3.2631,-3.2759,-3.2515,-3.209,-3.2044,-3.189,-3.1817,-3.1803,-3.1502,-3.1322,-3.0828,-3.0578,-3.0312,-2.9954,-2.9847,-2.9635,-2.9326,-2.9029,-2.9105,-4.044,-4.0328,-3.9454,-3.8767,-3.8358,-3.8581,-3.8591,-3.8276,-3.8479,-3.8756,-3.8902,-3.8921,-3.8862,-3.8713,-3.8428,-3.8132,-3.7877,-3.7432,-3.6974,-3.6585,-3.6502,-3.6444,-3.6301,-3.6284,-3.6284,-3.6284,-3.6284,-3.6284,-3.6284,-3.6266,-3.6284,-3.6215,-3.5766,-3.5145,-3.4473,-3.4289,-3.3342,-3.1558,-3.2001,-3.1507,-3.0022,-3.0423,-3.0522,-3.0064,-3.0355,-3.0474,-3.0207,-3.1211,-3.142,-3.0834,-3.1151,-3.1397,-3.1505,-3.2028,-3.2382,-3.2398,-3.2398,-3.2398,-3.2398,-3.2342,-3.2287,-3.2373,-3.2557,-3.2782,-3.3181,-3.3625,-3.4145,-3.4364,-3.4415,-3.4421,-3.4609,-3.408,-3.3325,-3.2574,-3.2314,-3.2169,-3.2182,-3.2169,-3.2169,-3.2169,-3.2169,-3.2169,-3.2169,-3.2169,-3.2169,-3.2169,-3.2169,-3.2169,-3.2169,-3.2036,-3.1963,-3.1963,-3.1917,-3.1857,-3.189,-3.1896,-3.2024,-3.2179,-3.1978,-3.189,-3.1743,-3.1656,-3.1596,-3.1322,-3.1037,-3.058,-3.009,-2.9773,-2.9548,-2.9188,-2.8907,-2.8657,-2.8232,-2.8245,-2.8347,-3.9918,-3.9844,-3.9324,-3.8795,-3.8303,-3.8563,-3.8479,-3.8229,-3.8395,-3.8644,-3.8826,-3.8881,-3.8833,-3.8762,-3.851,-3.8314,-3.8132,-3.7721,-3.717,-3.6713,-3.6632,-3.655,-3.6326,-3.6284,-3.6284,-3.6284,-3.6284,-3.6284,-3.6266,-3.6025,-3.5887,-3.5766,-3.5105,-3.4347,-3.3692,-3.3453,-3.2445,-3.1082,-3.1355,-3.0847,-2.9685,-2.98,-2.984,-2.9332,-2.9543,-2.9477,-2.915,-3.0089,-3.0474,-3.0243,-3.0674,-3.112,-3.1382,-3.1743,-3.2081,-3.2367,-3.2342,-3.2342,-3.2398,-3.2342,-3.2287,-3.2287,-3.2247,-3.2359,-3.273,-3.2928,-3.3328,-3.3531,-3.3832,-3.411,-3.4379,-3.3652,-3.2873,-3.2489,-3.2444,-3.2228,-3.2109,-3.1963,-3.1963,-3.1963,-3.1963,-3.1963,-3.1963,-3.1963,-3.1963,-3.1963,-3.1963,-3.1963,-3.1963,-3.189,-3.1817,-3.1743,-3.1757,-3.1609,-3.1522,-3.1461,-3.1461,-3.1575,-3.1575,-3.1596,-3.1522,-3.1495,-3.1408,-3.0771,-3.0395,-2.9816,-2.9329,-2.9114,-2.8917,-2.8438,-2.8111,-2.7941,-2.7785,-2.7652,-2.7689,-3.9129,-3.911,-3.9045,-3.8897,-3.8729,-3.8146,-3.8173,-3.8578,-3.819,-3.8243,-3.87,-3.881,-3.878,-3.8738,-3.8658,-3.8483,-3.8135,-3.7844,-3.7414,-3.7055,-3.69,-3.6759,-3.6343,-3.6284,-3.6284,-3.6284,-3.6284,-3.6249,-3.6052,-3.5535,-3.518,-3.5018,-3.4249,-3.3539,-3.2951,-3.265,-3.2122,-3.1331,-3.0848,-3.0316,-2.9745,-2.9305,-2.892,-2.8506,-2.8535,-2.855,-2.8627,-2.907,-2.9443,-2.9489,-3.0007,-3.0545,-3.1052,-3.1198,-3.145,-3.202,-3.2093,-3.2093,-3.2235,-3.2133,-3.221,-3.2176,-3.215,-3.2135,-3.2133,-3.2528,-3.2816,-3.2894,-3.3291,-3.3696,-3.3509,-3.2875,-3.2354,-3.2612,-3.2425,-3.2064,-3.1663,-3.1462,-3.1456,-3.1603,-3.1596,-3.1569,-3.1629,-3.1669,-3.1669,-3.1596,-3.1669,-3.1683,-3.1669,-3.1669,-3.1596,-3.1596,-3.1508,-3.1447,-3.1286,-3.1286,-3.1286,-3.1299,-3.1286,-3.1259,-3.118,-3.1127,-3.0731,-3.0125,-2.9673,-2.9096,-2.8595,-2.8425,-2.816,-2.7861,-2.7639,-2.7496,-2.7403,-2.7335,-2.7268,-3.9401,-3.9301,-3.8505,-3.8146,-3.8072,-3.7822,-3.7792,-3.8011,-3.8361,-3.8552,-3.875,-3.8738,-3.8719,-3.8707,-3.8707,-3.8627,-3.8515,-3.8401,-3.8,-3.7432,-3.734,-3.6939,-3.6409,-3.6284,-3.6284,-3.6284,-3.6165,-3.5916,-3.5418,-3.5067,-3.4682,-3.4127,-3.3374,-3.2872,-3.2615,-3.1969,-3.1399,-3.0838,-3.0309,-2.9821,-2.9377,-2.8904,-2.8525,-2.8444,-2.8411,-2.8411,-2.8411,-2.8452,-2.882,-2.9331,-2.9449,-2.9567,-2.9858,-3.0151,-3.0449,-3.0685,-3.0677,-3.086,-3.1256,-3.1293,-3.145,-3.1977,-3.1905,-3.1898,-3.1856,-3.1992,-3.204,-3.1957,-3.2035,-3.2372,-3.2655,-3.2484,-3.2385,-3.2302,-3.1695,-3.1164,-3.1007,-3.0641,-3.0668,-3.1356,-3.1169,-3.1169,-3.1309,-3.1468,-3.1468,-3.1482,-3.1508,-3.1482,-3.1429,-3.1328,-3.1201,-3.1307,-3.1246,-3.1123,-3.1061,-3.1061,-3.1061,-3.1061,-3.1035,-3.1057,-3.0874,-3.059,-2.9895,-2.9078,-2.8895,-2.8425,-2.7991,-2.7717,-2.7442,-2.7416,-2.7281,-2.7214,-2.7146,-2.7079,-2.7079,-3.8503,-3.8364,-3.7697,-3.7339,-3.7248,-3.7515,-3.7624,-3.7732,-3.8412,-3.875,-3.8707,-3.8707,-3.8707,-3.8707,-3.8707,-3.8707,-3.8658,-3.8515,-3.8168,-3.7737,-3.7184,-3.67,-3.6347,-3.6284,-3.6284,-3.6249,-3.5924,-3.5521,-3.4998,-3.4367,-3.3686,-3.3225,-3.2468,-3.2071,-3.2003,-3.1584,-3.1157,-3.0861,-3.0535,-3.0097,-2.9438,-2.9152,-2.8748,-2.8525,-2.8348,-2.8299,-2.825,-2.8152,-2.8351,-2.869,-2.8732,-2.8789,-2.9093,-2.9325,-2.9674,-2.9955,-2.9963,-3.0122,-3.0433,-3.05,-3.0613,-3.1061,-3.1192,-3.1332,-3.1351,-3.1459,-3.1597,-3.1541,-3.1471,-3.1812,-3.2302,-3.2467,-3.1867,-3.0861,-3.0377,-3.0234,-3.0489,-3.0331,-3.0228,-3.0485,-3.0381,-3.0222,-3.0646,-3.0844,-3.0903,-3.0982,-3.1167,-3.1061,-3.0956,-3.0869,-3.0763,-3.0637,-3.0545,-3.0354,-3.0315,-3.0315,-3.0281,-3.0359,-3.0246,-3.0312,-3.0233,-2.9947,-2.9301,-2.8569,-2.8255,-2.79,-2.7585,-2.7335,-2.7335,-2.7281,-2.7079,-2.7024,-2.7024,-2.6875,-2.6875,-3.7206,-3.6958,-3.6817,-3.6626,-3.6593,-3.7135,-3.7456,-3.7654,-3.834,-3.8689,-3.8707,-3.8707,-3.8707,-3.8707,-3.8707,-3.8707,-3.8676,-3.8401,-3.8111,-3.7605,-3.6916,-3.6262,-3.6035,-3.5873,-3.5842,-3.5742,-3.5246,-3.4878,-3.4316,-3.3225,-3.2622,-3.2327,-3.1652,-3.138,-3.1392,-3.1247,-3.119,-3.1134,-3.0958,-3.0493,-2.9837,-2.9544,-2.9106,-2.8493,-2.8299,-2.8152,-2.8054,-2.7955,-2.8035,-2.797,-2.7955,-2.8288,-2.8758,-2.8716,-2.8943,-2.944,-2.9448,-2.9486,-2.9788,-2.9819,-2.9841,-3.003,-3.0428,-3.0569,-3.0578,-3.0941,-3.13,-3.1285,-3.1465,-3.178,-3.2139,-3.2261,-3.1266,-2.9834,-2.9457,-2.9644,-2.993,-3.0038,-2.9803,-2.9377,-2.9261,-2.9196,-2.9405,-2.968,-3.0045,-3.0217,-3.0414,-3.0388,-3.027,-3.0131,-2.9935,-2.9712,-2.9607,-2.9418,-2.9405,-2.9405,-2.9399,-2.9379,-2.9275,-2.9288,-2.9392,-2.9106,-2.863,-2.8147,-2.7806,-2.7569,-2.7439,-2.7281,-2.7268,-2.7146,-2.6943,-2.6943,-2.6875,-2.6794,-2.6726,-3.7509,-3.7375,-3.6264,-3.6137,-3.6586,-3.6611,-3.6938,-3.7551,-3.8358,-3.8707,-3.8707,-3.8707,-3.8707,-3.8707,-3.8689,-3.8707,-3.8658,-3.8473,-3.8109,-3.7027,-3.6524,-3.5793,-3.5285,-3.4976,-3.4644,-3.4455,-3.4131,-3.3639,-3.3059,-3.2655,-3.2049,-3.154,-3.1421,-3.123,-3.1213,-3.1213,-3.119,-3.1134,-3.0878,-3.0435,-2.9924,-2.9528,-2.909,-2.8444,-2.8235,-2.8088,-2.789,-2.784,-2.779,-2.7725,-2.7806,-2.7961,-2.8047,-2.7996,-2.8051,-2.8222,-2.8201,-2.8381,-2.8771,-2.8922,-2.9117,-2.9522,-2.9717,-2.9843,-2.9873,-3.0357,-3.0687,-3.0821,-3.121,-3.1482,-3.175,-3.1248,-3.0722,-3.0093,-2.9673,-2.9384,-2.8991,-2.8532,-2.8607,-2.8926,-2.883,-2.8739,-2.917,-2.9274,-2.9457,-2.9483,-2.9549,-2.9588,-2.9523,-2.9457,-2.9151,-2.889,-2.8851,-2.8716,-2.8703,-2.869,-2.8607,-2.8537,-2.8407,-2.833,-2.8446,-2.835,-2.7967,-2.7657,-2.733,-2.7227,-2.7214,-2.6998,-2.693,-2.6794,-2.6769,-2.6612,-2.6506,-2.6488,-2.6362,-3.6528,-3.631,-3.5565,-3.5567,-3.6087,-3.6342,-3.684,-3.7562,-3.8358,-3.8707,-3.8707,-3.8707,-3.8658,-3.859,-3.8609,-3.8578,-3.8468,-3.8144,-3.7666,-3.6862,-3.6074,-3.5193,-3.4532,-3.3953,-3.3537,-3.38,-3.3362,-3.2849,-3.2485,-3.2015,-3.1546,-3.1224,-3.119,-3.119,-3.119,-3.119,-3.119,-3.119,-3.0975,-3.0559,-3.0054,-2.9793,-2.9212,-2.8542,-2.8171,-2.794,-2.7725,-2.7675,-2.7675,-2.7625,-2.7675,-2.774,-2.769,-2.7625,-2.761,-2.756,-2.7575,-2.7745,-2.8053,-2.8128,-2.8299,-2.8637,-2.8921,-2.9086,-2.9265,-2.9699,-3.0028,-3.0208,-3.0627,-3.1078,-3.1407,-3.1292,-3.0896,-3.0524,-3.0208,-2.9704,-2.9016,-2.8338,-2.796,-2.8392,-2.815,-2.815,-2.836,-2.8699,-2.8856,-2.8869,-2.9287,-2.9314,-2.8781,-2.862,-2.833,-2.8135,-2.811,-2.8071,-2.8001,-2.7963,-2.7829,-2.7708,-2.7606,-2.7554,-2.758,-2.7528,-2.7344,-2.7152,-2.7024,-2.7092,-2.7011,-2.6807,-2.6595,-2.6637,-2.6493,-2.6231,-2.603,-2.5816,-2.5652,-3.5285,-3.5051,-3.5016,-3.5186,-3.5589,-3.6329,-3.7025,-3.7632,-3.8401,-3.875,-3.8707,-3.8707,-3.864,-3.8559,-3.851,-3.8442,-3.8068,-3.763,-3.7161,-3.6388,-3.5448,-3.4648,-3.3988,-3.3273,-3.302,-3.3796,-3.2809,-3.2247,-3.2021,-3.1625,-3.1292,-3.119,-3.119,-3.119,-3.119,-3.119,-3.119,-3.1151,-3.1112,-3.0797,-3.0309,-3.0182,-2.9601,-2.8654,-2.8073,-2.779,-2.7675,-2.7625,-2.761,-2.756,-2.756,-2.756,-2.756,-2.756,-2.756,-2.756,-2.756,-2.7619,-2.7715,-2.7649,-2.7649,-2.759,-2.8083,-2.8412,-2.8577,-2.8996,-2.9355,-2.9639,-2.9998,-3.0627,-3.1255,-3.0982,-3.0808,-3.0555,-3.0343,-2.9903,-2.9393,-2.8712,-2.8092,-2.7908,-2.7786,-2.7798,-2.7782,-2.7991,-2.8095,-2.8265,-2.8682,-2.8864,-2.8252,-2.7911,-2.7674,-2.7584,-2.7571,-2.7503,-2.7421,-2.7421,-2.7276,-2.7105,-2.6965,-2.6926,-2.6875,-2.668,-2.6693,-2.6926,-2.6943,-2.6812,-2.6697,-2.6422,-2.6329,-2.638,-2.6072,-2.5665,-2.5335,-2.5096,-2.4996,-3.53,-3.5235,-3.4999,-3.5305,-3.6017,-3.6671,-3.7331,-3.7922,-3.8702,-3.8892,-3.8738,-3.8707,-3.8689,-3.8572,-3.8523,-3.8081,-3.7471,-3.7064,-3.6462,-3.5496,-3.472,-3.4274,-3.3563,-3.3005,-3.2783,-3.2389,-3.1912,-3.1618,-3.1523,-3.1241,-3.119,-3.119,-3.119,-3.119,-3.119,-3.119,-3.1112,-3.1072,-3.1072,-3.0773,-3.0384,-3.0172,-2.9705,-2.8654,-2.8107,-2.7775,-2.7625,-2.756,-2.756,-2.756,-2.756,-2.756,-2.756,-2.756,-2.756,-2.7575,-2.7575,-2.7575,-2.756,-2.7575,-2.7575,-2.764,-2.7739,-2.7784,-2.7949,-2.8353,-2.8689,-2.8996,-2.9385,-2.9983,-3.0541,-3.0275,-3.0178,-3.0024,-2.9695,-2.8933,-2.8488,-2.8182,-2.7841,-2.7906,-2.7696,-2.7456,-2.7439,-2.7504,-2.754,-2.7631,-2.7812,-2.7898,-2.7541,-2.7293,-2.7191,-2.7126,-2.7101,-2.702,-2.6871,-2.6896,-2.6802,-2.6658,-2.6544,-2.6481,-2.6367,-2.6047,-2.6022,-2.619,-2.6291,-2.6278,-2.6085,-2.5866,-2.569,-2.5564,-2.5287,-2.4946,-2.473,-2.458,-2.4568,-3.5584,-3.5902,-3.5787,-3.6369,-3.7332,-3.7681,-3.8179,-3.8707,-3.8997,-3.9036,-3.891,-3.8762,-3.837,-3.8016,-3.7875,-3.7343,-3.663,-3.603,-3.5466,-3.4631,-3.4213,-3.3869,-3.3364,-3.2988,-3.2763,-3.2486,-3.2039,-3.1524,-3.123,-3.119,-3.119,-3.119,-3.119,-3.119,-3.119,-3.1112,-3.1055,-3.1015,-3.0935,-3.0773,-3.0426,-3.0231,-2.9528,-2.8935,-2.8334,-2.7944,-2.761,-2.756,-2.756,-2.756,-2.756,-2.756,-2.756,-2.756,-2.756,-2.7575,-2.7524,-2.7524,-2.7575,-2.7539,-2.7524,-2.756,-2.7524,-2.7473,-2.7548,-2.775,-2.8025,-2.8405,-2.856,-2.9094,-2.9648,-2.9427,-2.9347,-2.929,-2.9192,-2.8825,-2.8202,-2.8052,-2.7964,-2.7846,-2.742,-2.7139,-2.7146,-2.7117,-2.7092,-2.7024,-2.7024,-2.6956,-2.6875,-2.6875,-2.6863,-2.6705,-2.6667,-2.6549,-2.643,-2.638,-2.6261,-2.6118,-2.6013,-2.595,-2.5724,-2.5398,-2.5322,-2.5451,-2.5552,-2.5448,-2.5423,-2.5197,-2.5008,-2.482,-2.453,-2.4342,-2.4179,-2.4041,-2.3991,-3.5814,-3.6498,-3.6498,-3.7354,-3.8572,-3.8684,-3.8991,-3.9395,-3.9234,-3.9082,-3.8989,-3.8725,-3.8107,-3.7356,-3.6929,-3.6466,-3.5548,-3.4909,-3.4619,-3.4208,-3.3755,-3.3411,-3.3286,-3.3068,-3.2813,-3.2619,-3.2385,-3.1932,-3.1428,-3.1329,-3.1213,-3.1151,-3.1112,-3.1151,-3.1112,-3.1032,-3.0975,-3.0935,-3.0895,-3.0773,-3.0568,-3.0113,-2.9661,-2.9257,-2.8732,-2.8304,-2.8042,-2.7795,-2.776,-2.771,-2.761,-2.7524,-2.7524,-2.7524,-2.7524,-2.7524,-2.7488,-2.7539,-2.7539,-2.7488,-2.7437,-2.7524,-2.7437,-2.7386,-2.7335,-2.7373,-2.7484,-2.7883,-2.8015,-2.8267,-2.8813,-2.8906,-2.8829,-2.881,-2.9159,-2.9218,-2.8183,-2.7721,-2.7476,-2.7267,-2.6908,-2.685,-2.6832,-2.6943,-2.6875,-2.6807,-2.6739,-2.6739,-2.6658,-2.6658,-2.662,-2.6375,-2.6206,-2.6118,-2.6017,-2.5854,-2.5728,-2.5485,-2.5448,-2.5398,-2.5109,-2.4782,-2.4782,-2.477,-2.4405,-2.4304,-2.4442,-2.4543,-2.4291,-2.4104,-2.3891,-2.3742,-2.3542,-2.3294,-2.3145,-3.578,-3.6517,-3.6506,-3.7446,-3.886,-3.8956,-3.92,-3.9576,-3.9377,-3.91,-3.8781,-3.8499,-3.7935,-3.7051,-3.6304,-3.5593,-3.4939,-3.4613,-3.4232,-3.3719,-3.3484,-3.3393,-3.3364,-3.3196,-3.2912,-3.2734,-3.2488,-3.202,-3.1674,-3.1545,-3.1295,-3.1055,-3.0992,-3.0952,-3.0992,-3.0952,-3.0871,-3.0733,-3.0733,-3.0651,-3.0468,-3.0054,-2.9793,-2.9572,-2.9212,-2.8842,-2.8622,-2.8222,-2.7944,-2.7944,-2.7509,-2.7269,-2.7218,-2.7233,-2.7233,-2.7335,-2.7437,-2.7575,-2.7575,-2.7437,-2.7401,-2.7437,-2.7335,-2.7218,-2.7181,-2.7181,-2.7189,-2.7225,-2.7329,-2.7609,-2.811,-2.8257,-2.8483,-2.8499,-2.8438,-2.8312,-2.7708,-2.7565,-2.7285,-2.6538,-2.6167,-2.6359,-2.6493,-2.6629,-2.6726,-2.6602,-2.6508,-2.6445,-2.6357,-2.6219,-2.6131,-2.5892,-2.5711,-2.5624,-2.5573,-2.5423,-2.5197,-2.4958,-2.4818,-2.4755,-2.443,-2.4154,-2.4129,-2.4029,-2.3654,-2.3443,-2.3691,-2.3678,-2.3517,-2.3393,-2.3269,-2.3059,-2.285,-2.2616,-2.2482,-3.6747,-3.7861,-3.7405,-3.8171,-3.9565,-3.9221,-3.9071,-3.9231,-3.9425,-3.9058,-3.835,-3.8026,-3.7156,-3.5927,-3.492,-3.4322,-3.3984,-3.3996,-3.3785,-3.3484,-3.3393,-3.3393,-3.3364,-3.3304,-3.3104,-3.2898,-3.2752,-3.2488,-3.2056,-3.1582,-3.1278,-3.1157,-3.0975,-3.0912,-3.0871,-3.0831,-3.079,-3.0692,-3.0651,-3.0551,-3.0426,-3.0215,-2.9897,-2.9601,-2.9257,-2.9044,-2.8685,-2.8253,-2.7959,-2.786,-2.7437,-2.7218,-2.7167,-2.7218,-2.7218,-2.7218,-2.7284,-2.7386,-2.7437,-2.7335,-2.7386,-2.7437,-2.7321,-2.713,-2.7026,-2.6974,-2.6974,-2.6989,-2.6974,-2.715,-2.734,-2.7398,-2.7302,-2.74,-2.7734,-2.7201,-2.7017,-2.7363,-2.7129,-2.6256,-2.5514,-2.5768,-2.5882,-2.5764,-2.5836,-2.5967,-2.5829,-2.564,-2.5485,-2.536,-2.5285,-2.5222,-2.5146,-2.5109,-2.5084,-2.4996,-2.4707,-2.4417,-2.4153,-2.4016,-2.3667,-2.3468,-2.3505,-2.3393,-2.3071,-2.2997,-2.3022,-2.3009,-2.3047,-2.2911,-2.269,-2.2555,-2.2432,-2.2359,-2.2025,-3.7376,-3.8572,-3.775,-3.8285,-3.9584,-3.8917,-3.8556,-3.8497,-3.8735,-3.8421,-3.7676,-3.71,-3.6043,-3.4834,-3.3989,-3.3538,-3.3429,-3.3393,-3.3364,-3.3334,-3.3316,-3.3286,-3.3214,-3.3214,-3.3073,-3.2993,-3.2802,-3.2573,-3.2179,-3.1731,-3.1432,-3.1218,-3.0878,-3.079,-3.079,-3.0708,-3.0651,-3.0651,-3.0568,-3.0485,-3.0401,-3.0258,-2.9941,-2.9617,-2.9348,-2.909,-2.8748,-2.8365,-2.8107,-2.8073,-2.7539,-2.7284,-2.7269,-2.713,-2.7078,-2.7078,-2.7078,-2.713,-2.7196,-2.7196,-2.7284,-2.7269,-2.7269,-2.6974,-2.6884,-2.6794,-2.6779,-2.6832,-2.6832,-2.6832,-2.6794,-2.6875,-2.6842,-2.6909,-2.7029,-2.6311,-2.598,-2.6708,-2.696,-2.6178,-2.5593,-2.531,-2.5312,-2.4873,-2.4874,-2.5262,-2.5134,-2.4845,-2.477,-2.4745,-2.4695,-2.4618,-2.4607,-2.4442,-2.4242,-2.4192,-2.4004,-2.3904,-2.3642,-2.3418,-2.317,-2.2973,-2.2985,-2.2764,-2.2616,-2.2604,-2.2603,-2.2641,-2.2616,-2.2555,-2.2432,-2.2297,-2.2161,-2.2037,-2.1451,-3.7098,-3.7712,-3.691,-3.7101,-3.798,-3.7756,-3.7623,-3.7505,-3.728,-3.7106,-3.6656,-3.5717,-3.5209,-3.4647,-3.392,-3.3422,-3.3393,-3.3393,-3.3286,-3.3165,-3.3117,-3.3073,-3.3011,-3.2884,-3.2702,-3.2601,-3.257,-3.2541,-3.2301,-3.1932,-3.147,-3.1038,-3.0838,-3.0634,-3.0568,-3.0568,-3.0568,-3.0526,-3.051,-3.0401,-3.0316,-3.0189,-3.0,-2.9793,-2.975,-2.9705,-2.9617,-2.8982,-2.8622,-2.8574,-2.786,-2.7386,-2.7335,-2.7144,-2.7041,-2.6937,-2.6884,-2.6937,-2.7003,-2.7055,-2.7055,-2.7003,-2.6937,-2.6884,-2.6779,-2.6794,-2.6794,-2.6794,-2.6794,-2.6794,-2.6794,-2.6779,-2.6727,-2.6732,-2.6847,-2.6697,-2.6383,-2.6533,-2.6669,-2.6089,-2.5673,-2.541,-2.4852,-2.449,-2.4405,-2.4734,-2.4582,-2.4293,-2.4342,-2.433,-2.4217,-2.4142,-2.4029,-2.3729,-2.3243,-2.312,-2.3294,-2.3269,-2.3059,-2.296,-2.2776,-2.2629,-2.2567,-2.2506,-2.2432,-2.2371,-2.2309,-2.2371,-2.2371,-2.2309,-2.2185,-2.2049,-2.1514,-2.0996,-2.0344,-3.6503,-3.6224,-3.5854,-3.647,-3.7655,-3.7142,-3.6824,-3.6785,-3.702,-3.6704,-3.5926,-3.5328,-3.4806,-3.4311,-3.3927,-3.3502,-3.3397,-3.3256,-3.3117,-3.3024,-3.2961,-3.293,-3.2884,-3.2749,-3.2524,-3.2196,-3.2256,-3.2139,-3.1652,-3.1864,-3.1841,-3.1487,-3.1021,-3.0716,-3.0593,-3.0468,-3.0485,-3.0468,-3.0468,-3.0443,-3.0359,-3.0087,-2.9897,-2.9793,-2.9454,-2.938,-2.9289,-2.8904,-2.8716,-2.8511,-2.8027,-2.771,-2.7437,-2.7233,-2.7041,-2.6846,-2.6779,-2.6846,-2.6899,-2.6951,-2.7003,-2.7003,-2.6951,-2.6899,-2.6794,-2.6794,-2.6794,-2.6794,-2.6794,-2.6794,-2.6794,-2.6794,-2.6779,-2.6794,-2.6794,-2.6794,-2.6794,-2.6794,-2.6621,-2.6207,-2.5757,-2.5464,-2.4767,-2.4099,-2.4131,-2.4242,-2.3941,-2.3766,-2.3817,-2.3804,-2.3679,-2.3592,-2.3492,-2.3356,-2.2849,-2.2787,-2.2739,-2.2678,-2.2616,-2.2555,-2.2494,-2.2383,-2.2321,-2.2321,-2.2321,-2.2247,-2.2247,-2.2247,-2.2185,-2.2061,-2.1987,-2.1925,-2.1135,-2.0161,-1.9497,-3.5963,-3.5417,-3.5285,-3.5892,-3.6833,-3.6268,-3.595,-3.5912,-3.6287,-3.612,-3.5221,-3.5008,-3.4648,-3.4134,-3.3868,-3.3698,-3.3541,-3.3386,-3.3165,-3.3011,-3.2898,-3.2852,-3.2787,-3.2634,-3.2287,-3.1794,-3.2062,-3.2103,-3.1352,-3.1795,-3.1878,-3.1691,-3.1334,-3.0918,-3.0675,-3.0485,-3.0401,-3.03,-3.03,-3.0258,-3.013,-2.9897,-2.9633,-2.9544,-2.9289,-2.9167,-2.9121,-2.8904,-2.8764,-2.8622,-2.8319,-2.7913,-2.766,-2.7437,-2.7196,-2.6937,-2.6779,-2.6779,-2.6846,-2.6899,-2.6951,-2.6899,-2.6899,-2.6899,-2.6846,-2.6794,-2.6794,-2.6794,-2.6794,-2.6794,-2.6794,-2.6794,-2.6794,-2.6794,-2.6794,-2.6794,-2.6794,-2.6779,-2.6621,-2.6354,-2.5962,-2.5508,-2.465,-2.3923,-2.352,-2.3542,-2.3393,-2.3219,-2.3158,-2.317,-2.3034,-2.2973,-2.2936,-2.2751,-2.2616,-2.2616,-2.2555,-2.2506,-2.2371,-2.2371,-2.2309,-2.2185,-2.2197,-2.2259,-2.2259,-2.2197,-2.2185,-2.2185,-2.2049,-2.1851,-2.1526,-2.106,-2.0279,-1.9233,-1.8911,-3.5604,-3.5393,-3.5398,-3.5362,-3.5422,-3.5077,-3.5003,-3.5059,-3.4936,-3.483,-3.4708,-3.4493,-3.4381,-3.4245,-3.4049,-3.3868,-3.368,-3.3597,-3.3339,-3.2961,-3.282,-3.2657,-3.2558,-3.2369,-3.2086,-3.1614,-3.1913,-3.2018,-3.123,-3.1916,-3.2056,-3.1819,-3.1428,-3.0982,-3.0935,-3.0443,-3.0087,-2.9853,-2.9897,-2.981,-2.9677,-2.9589,-2.947,-2.9335,-2.9167,-2.9137,-2.9091,-2.9029,-2.8982,-2.8936,-2.8669,-2.8319,-2.7978,-2.7675,-2.7386,-2.6974,-2.6884,-2.6832,-2.6794,-2.6846,-2.6846,-2.6846,-2.6846,-2.6846,-2.6794,-2.6794,-2.6794,-2.6794,-2.6794,-2.6794,-2.6794,-2.6794,-2.6794,-2.6794,-2.6794,-2.6794,-2.6794,-2.6794,-2.6621,-2.6433,-2.6042,-2.5536,-2.461,-2.3754,-2.3138,-2.2874,-2.2776,-2.2678,-2.2678,-2.2678,-2.2616,-2.2555,-2.2555,-2.2494,-2.2432,-2.242,-2.2371,-2.2259,-2.2259,-2.2247,-2.2247,-2.2197,-2.2197,-2.2197,-2.2197,-2.2197,-2.2185,-2.2185,-2.1651,-2.0996,-2.0279,-1.9683,-1.9023,-1.8566,-1.8375,-3.5648,-3.5514,-3.5355,-3.5235,-3.5209,-3.5124,-3.5037,-3.487,-3.471,-3.4602,-3.4602,-3.4473,-3.4427,-3.4381,-3.4197,-3.3972,-3.3815,-3.3368,-3.3068,-3.2862,-3.2705,-3.2558,-3.244,-3.2318,-3.1967,-3.1616,-3.1897,-3.2002,-3.1212,-3.195,-3.2162,-3.1965,-3.1487,-3.0965,-3.041,-3.0,-2.9897,-2.9793,-2.9793,-2.975,-2.9661,-2.9544,-2.9425,-2.9305,-2.9167,-2.9137,-2.9091,-2.9091,-2.9091,-2.9091,-2.8873,-2.8669,-2.8319,-2.8057,-2.7894,-2.7545,-2.7357,-2.7041,-2.6884,-2.6794,-2.6794,-2.6794,-2.6794,-2.6794,-2.6794,-2.6794,-2.6794,-2.6794,-2.6794,-2.6794,-2.6794,-2.6794,-2.6794,-2.6794,-2.6794,-2.6794,-2.6794,-2.6794,-2.6727,-2.6433,-2.6136,-2.5467,-2.461,-2.3695,-2.2957,-2.2678,-2.2616,-2.2555,-2.2555,-2.2494,-2.2482,-2.2371,-2.2309,-2.2309,-2.2309,-2.2309,-2.2309,-2.2259,-2.2197,-2.2197,-2.2197,-2.2197,-2.2135,-2.2123,-2.2197,-2.2197,-2.1925,-2.1526,-2.073,-2.0074,-1.9617,-1.9222,-1.8834,-1.8499,-1.825,-3.5418,-3.5607,-3.5418,-3.5277,-3.5187,-3.5089,-3.4945,-3.4772,-3.4647,-3.4602,-3.4558,-3.4517,-3.4473,-3.4409,-3.4293,-3.4099,-3.3947,-3.3662,-3.3291,-3.3063,-3.2784,-3.2672,-3.259,-3.2404,-3.1914,-3.1633,-3.1844,-3.1984,-3.1265,-3.1864,-3.1985,-3.1802,-3.16,-3.0965,-3.0309,-3.007,-2.9826,-2.9649,-2.9515,-2.9499,-2.9454,-2.9425,-2.9335,-2.9305,-2.9229,-2.9091,-2.9091,-2.9091,-2.9091,-2.9091,-2.9045,-2.8873,-2.8622,-2.8479,-2.8319,-2.7929,-2.756,-2.7181,-2.6884,-2.6779,-2.6794,-2.6794,-2.6779,-2.6794,-2.6794,-2.6794,-2.6794,-2.6794,-2.6794,-2.6794,-2.6794,-2.6794,-2.6779,-2.6779,-2.6727,-2.6727,-2.6727,-2.6727,-2.6553,-2.6312,-2.5851,-2.5189,-2.4439,-2.3695,-2.2836,-2.2665,-2.2555,-2.2494,-2.2371,-2.2371,-2.2309,-2.2247,-2.2197,-2.2247,-2.2247,-2.2185,-2.2197,-2.2197,-2.2197,-2.2197,-2.2197,-2.2197,-2.2123,-2.2061,-2.1987,-2.1788,-2.1388,-2.0869,-2.0215,-1.9748,-1.9344,-1.9023,-1.87,-1.8307,-1.791,-3.4997,-3.563,-3.5623,-3.5418,-3.52,-3.4945,-3.4749,-3.4623,-3.4602,-3.458,-3.4495,-3.4476,-3.445,-3.4404,-3.4363,-3.4269,-3.4117,-3.4023,-3.377,-3.3494,-3.3142,-3.297,-3.2766,-3.2537,-3.2119,-3.1859,-3.1897,-3.2038,-3.1372,-3.183,-3.1858,-3.1524,-3.1411,-3.0965,-3.0617,-3.0326,-2.9984,-2.9722,-2.9425,-2.9409,-2.9409,-2.9198,-2.9167,-2.9183,-2.9137,-2.9091,-2.9091,-2.9091,-2.9091,-2.9091,-2.9091,-2.8873,-2.8669,-2.8527,-2.8271,-2.7978,-2.761,-2.7218,-2.687,-2.6765,-2.6621,-2.6621,-2.6659,-2.6727,-2.6794,-2.6794,-2.6794,-2.6794,-2.6794,-2.6794,-2.6794,-2.6779,-2.6712,-2.6727,-2.6674,-2.6621,-2.6621,-2.65,-2.6312,-2.5974,-2.537,-2.4694,-2.3813,-2.3065,-2.2896,-2.2726,-2.2555,-2.2432,-2.2371,-2.2247,-2.2247,-2.2247,-2.2197,-2.2197,-2.2197,-2.2197,-2.2197,-2.2197,-2.2197,-2.2197,-2.2197,-2.2061,-2.1937,-2.18,-2.1651,-2.1325,-2.0602,-2.0215,-1.9814,-1.9354,-1.8824,-1.8556,-1.8104,-1.7696,-1.7304,-3.5532,-3.5689,-3.5574,-3.5445,-3.5288,-3.4963,-3.4751,-3.4685,-3.4623,-3.4539,-3.4427,-3.4427,-3.4404,-3.4335,-3.4269,-3.4221,-3.4105,-3.3972,-3.3842,-3.3616,-3.3281,-3.3207,-3.3063,-3.2844,-3.2524,-3.2327,-3.2228,-3.2161,-3.19,-3.2055,-3.1965,-3.1691,-3.1542,-3.1295,-3.1061,-3.0885,-3.0518,-3.0097,-2.9793,-2.9633,-2.9454,-2.9335,-2.9259,-2.9167,-2.9121,-2.9137,-2.9091,-2.9091,-2.9091,-2.9091,-2.9075,-2.8967,-2.8967,-2.8936,-2.8779,-2.8319,-2.783,-2.7276,-2.6878,-2.6418,-2.6165,-2.6233,-2.6218,-2.6447,-2.6621,-2.6727,-2.6727,-2.6674,-2.6674,-2.6621,-2.6553,-2.6553,-2.6486,-2.6433,-2.6394,-2.634,-2.6286,-2.6165,-2.5988,-2.5605,-2.5061,-2.4465,-2.3531,-2.3245,-2.3125,-2.2836,-2.2604,-2.242,-2.2309,-2.2247,-2.2197,-2.2197,-2.2197,-2.2197,-2.2197,-2.2197,-2.2197,-2.2197,-2.2197,-2.2123,-2.1925,-2.1788,-2.1675,-2.1411,-2.1008,-2.0344,-1.9562,-1.9233,-1.91,-1.8566,-1.8037,-1.7842,-1.7579,-1.7235,-1.7038,-3.5471,-3.5708,-3.5637,-3.5514,-3.5364,-3.5047,-3.4851,-3.4691,-3.4583,-3.4473,-3.4381,-3.4381,-3.4316,-3.4269,-3.4203,-3.4011,-3.3677,-3.3519,-3.3419,-3.3316,-3.3195,-3.3247,-3.3194,-3.3111,-3.2908,-3.2752,-3.2573,-3.2335,-3.2232,-3.202,-3.1875,-3.1783,-3.18,-3.1634,-3.1466,-3.1334,-3.1218,-3.0804,-3.046,-3.0182,-2.9881,-2.9589,-2.9454,-2.9289,-2.9198,-2.9075,-2.9091,-2.9091,-2.9029,-2.9029,-2.8982,-2.8967,-2.8967,-2.8967,-2.8763,-2.8301,-2.7765,-2.7261,-2.6811,-2.6244,-2.6002,-2.5893,-2.5893,-2.6071,-2.6233,-2.634,-2.634,-2.634,-2.6394,-2.6394,-2.6326,-2.6272,-2.6204,-2.615,-2.6042,-2.5948,-2.5893,-2.5784,-2.5564,-2.53,-2.4835,-2.435,-2.3884,-2.359,-2.3233,-2.2896,-2.2616,-2.2371,-2.2247,-2.2197,-2.2197,-2.2197,-2.2197,-2.2197,-2.2197,-2.2185,-2.2123,-2.2123,-2.2197,-2.2061,-2.1776,-2.1526,-2.14,-2.0816,-2.0226,-1.9497,-1.8767,-1.8509,-1.8307,-1.7774,-1.7442,-1.7373,-1.7235,-1.7107,-1.6968,-3.503,-3.5646,-3.5631,-3.5485,-3.5386,-3.5178,-3.4978,-3.4714,-3.4542,-3.4381,-3.4293,-3.4293,-3.4269,-3.4221,-3.4179,-3.3733,-3.3449,-3.3271,-3.3216,-3.2945,-3.3088,-3.3223,-3.3459,-3.3327,-3.316,-3.3006,-3.2816,-3.2555,-3.242,-3.2179,-3.1948,-3.18,-3.18,-3.1709,-3.1709,-3.1671,-3.1579,-3.1372,-3.0925,-3.0543,-3.0267,-3.0011,-2.975,-2.9544,-2.9289,-2.9045,-2.9029,-2.8982,-2.892,-2.8889,-2.8873,-2.8857,-2.8842,-2.8842,-2.8589,-2.8268,-2.7795,-2.7378,-2.6916,-2.6457,-2.6096,-2.5948,-2.5893,-2.5839,-2.5893,-2.6056,-2.6125,-2.6125,-2.6179,-2.6179,-2.6111,-2.5962,-2.5907,-2.5839,-2.5729,-2.5619,-2.555,-2.5453,-2.523,-2.4892,-2.4478,-2.4002,-2.3603,-2.3245,-2.2823,-2.2726,-2.2555,-2.2309,-2.2247,-2.2197,-2.2197,-2.2197,-2.2185,-2.2185,-2.2123,-2.2123,-2.2123,-2.2123,-2.2061,-2.18,-2.1411,-2.121,-2.1071,-2.0355,-1.9628,-1.8834,-1.823,-1.7969,-1.7706,-1.7304,-1.7038,-1.6978,-1.6908,-1.6908,-1.6908,-3.5174,-3.473,-3.467,-3.4963,-3.5463,-3.5292,-3.5149,-3.5049,-3.4711,-3.445,-3.4269,-3.4288,-3.4232,-3.4086,-3.4037,-3.3592,-3.3067,-3.3062,-3.3253,-3.3173,-3.3103,-3.3401,-3.3805,-3.3587,-3.3444,-3.3262,-3.305,-3.2687,-3.242,-3.2214,-3.2055,-3.1837,-3.18,-3.18,-3.18,-3.18,-3.1746,-3.1654,-3.1411,-3.0828,-3.0293,-2.9853,-2.9425,-2.9213,-2.8967,-2.8967,-2.892,-2.8873,-2.8826,-2.8842,-2.8794,-2.881,-2.881,-2.881,-2.8747,-2.8541,-2.7959,-2.753,-2.7225,-2.6759,-2.6336,-2.6042,-2.5893,-2.5619,-2.5508,-2.5729,-2.5893,-2.5893,-2.5893,-2.5839,-2.5839,-2.5688,-2.5592,-2.5467,-2.5411,-2.5342,-2.5272,-2.5118,-2.4948,-2.4593,-2.4118,-2.3767,-2.3424,-2.3017,-2.2482,-2.2309,-2.2309,-2.2197,-2.2197,-2.2197,-2.2135,-2.2123,-2.2185,-2.2185,-2.2061,-2.1925,-2.1862,-2.1737,-2.1675,-2.1348,-2.0967,-2.0775,-2.0571,-1.9759,-1.8967,-1.8432,-1.7901,-1.7373,-1.7107,-1.6908,-1.6908,-1.6908,-1.6908,-1.6908,-1.6908,-3.5514,-3.502,-3.4951,-3.516,-3.5531,-3.5438,-3.5307,-3.5165,-3.4944,-3.4672,-3.4386,-3.4274,-3.4059,-3.3733,-3.3586,-3.3173,-3.2575,-3.2711,-3.2478,-3.2508,-3.3117,-3.3515,-3.3676,-3.3753,-3.3698,-3.3494,-3.3081,-3.2702,-3.2386,-3.2091,-3.1929,-3.1837,-3.18,-3.18,-3.18,-3.18,-3.1763,-3.1709,-3.1617,-3.1162,-3.046,-3.014,-2.9968,-2.9722,-2.935,-2.9213,-2.8998,-2.892,-2.8732,-2.8684,-2.8652,-2.8604,-2.8604,-2.8604,-2.8604,-2.8429,-2.8008,-2.763,-2.7464,-2.7108,-2.664,-2.639,-2.6229,-2.6122,-2.6014,-2.6136,-2.5619,-2.5619,-2.5453,-2.5397,-2.5397,-2.53,-2.5244,-2.5188,-2.5188,-2.5118,-2.5118,-2.5061,-2.4948,-2.4835,-2.4536,-2.4478,-2.4131,-2.3884,-2.3352,-2.2944,-2.2775,-2.2247,-2.2259,-2.2123,-2.2061,-2.1999,-2.1925,-2.18,-2.1612,-2.1549,-2.1474,-2.1348,-2.1285,-2.1031,-2.0775,-2.0399,-1.9944,-1.9386,-1.8834,-1.8375,-1.7842,-1.7314,-1.7047,-1.6908,-1.6908,-1.6908,-1.6908,-1.6908,-1.6908,-3.5579,-3.5611,-3.5388,-3.5472,-3.5601,-3.5589,-3.5451,-3.5247,-3.52,-3.4904,-3.4482,-3.4338,-3.379,-3.3189,-3.303,-3.2376,-3.2162,-3.2582,-3.217,-3.2109,-3.2654,-3.3335,-3.3732,-3.3807,-3.378,-3.3625,-3.3273,-3.2844,-3.2437,-3.2231,-3.2073,-3.1856,-3.18,-3.18,-3.18,-3.18,-3.1746,-3.1671,-3.1542,-3.1295,-3.1044,-3.0788,-3.0625,-3.0335,-3.0011,-2.9605,-2.938,-2.9152,-2.8795,-2.8621,-2.8573,-2.8493,-2.846,-2.846,-2.846,-2.8348,-2.8073,-2.7795,-2.763,-2.7363,-2.7041,-2.6834,-2.6782,-2.6678,-2.6587,-2.6176,-2.566,-2.5342,-2.5174,-2.5061,-2.5061,-2.5061,-2.5005,-2.5005,-2.5005,-2.5005,-2.5005,-2.5005,-2.5005,-2.4948,-2.4892,-2.4835,-2.4593,-2.4292,-2.3943,-2.3531,-2.3125,-2.2726,-2.2309,-2.2049,-2.1862,-2.1663,-2.1474,-2.1348,-2.1221,-2.1158,-2.1094,-2.1031,-2.0903,-2.0775,-2.0582,-2.0129,-1.9726,-1.9375,-1.8834,-1.8172,-1.7774,-1.7304,-1.7107,-1.6908,-1.6908,-1.6908,-1.6908,-1.6908,-1.6908,-3.4664,-3.4603,-3.3914,-3.4384,-3.5469,-3.556,-3.5495,-3.5412,-3.5254,-3.4776,-3.4371,-3.4452,-3.4073,-3.2974,-3.3586,-3.3112,-3.201,-3.2514,-3.272,-3.2632,-3.3099,-3.354,-3.3752,-3.3807,-3.3807,-3.368,-3.3494,-3.3243,-3.2716,-3.2553,-3.2335,-3.1893,-3.1819,-3.1783,-3.1783,-3.1783,-3.1726,-3.1596,-3.1521,-3.1368,-3.1218,-3.0908,-3.0468,-3.0175,-2.9919,-2.9821,-2.9705,-2.9633,-2.9364,-2.9013,-2.8653,-2.8541,-2.8444,-2.8444,-2.8411,-2.8411,-2.8137,-2.8122,-2.7959,-2.791,-2.7695,-2.7363,-2.7261,-2.7019,-2.6759,-2.6297,-2.5825,-2.5481,-2.5272,-2.5174,-2.5118,-2.5005,-2.5005,-2.5005,-2.5005,-2.5005,-2.5005,-2.5005,-2.5005,-2.4835,-2.465,-2.4421,-2.406,-2.3708,-2.3245,-2.2896,-2.2714,-2.2371,-2.2185,-2.1925,-2.1663,-2.1336,-2.1083,-2.1083,-2.1094,-2.0775,-2.0711,-2.0646,-2.0518,-2.0388,-2.0118,-1.9715,-1.9375,-1.91,-1.8576,-1.791,-1.751,-1.7304,-1.7038,-1.6908,-1.6908,-1.6908,-1.689,-1.6835,-1.678]},{"header":{"parameterUnit":"m.s-1","parameterCategory":1,"la1":31.0,"la2":29.5877,"lo1":-88.7671,"lo2":-86.6584,"dy":0.0162,"dx":0.0185,"nx":115,"ny":88,"refTime":"2024-06-07T06:00:00:Z","depth":0,"parameterNumber":3,"parameterNumberName":"V-component_of_WINDS"},"data":[0.0,0.0,0.0,0.0,0.0,0.0,0.0,0.0,0.0,0.0,0.0,0.0,0.0,0.0,0.0,0.0,0.0,0.0,0.0,0.0,0.0,0.0,0.0,0.0,0.0,0.0,0.0,0.0,0.0,0.0,0.0,0.0,0.0,0.0,0.0,0.0,0.0,0.0,0.0,0.0,0.0,0.0,0.0,0.0,0.0,0.0,0.0,0.0,0.0,0.0,0.0,0.0,0.0,0.0,0.0,0.0,0.0,0.0,0.0,0.0,0.0,0.0,0.0,0.0,0.0,0.0,0.0,0.0,0.0,0.0,0.0,0.0,0.0,0.0,0.0,0.0,0.0,0.0,0.0,0.0,0.0,0.0,0.0,0.0,0.0,0.0,0.0,0.0,0.0,0.0,0.0,0.0,0.0,0.0,0.0,0.0,0.0,0.0,0.0,0.0,0.0,0.0,0.0,0.0,0.0,0.0,0.0,0.0,0.0,0.0,0.0,0.0,0.0,0.0,0.0,0.0,0.0,0.0,0.0,0.0,0.0,0.0,0.0,0.0,0.0,0.0,0.0,0.0,0.0,0.0,0.0,0.0,0.0,0.0,0.0,0.0,0.0,0.0,0.0,0.0,0.0,0.0,0.0,0.0,0.0,0.0,0.0,0.0,0.0,0.0,0.0,0.0,0.0,0.0,0.0,0.0,0.0,0.0,0.0,0.0,0.0,0.0,0.0,0.0,0.0,0.0,0.0,0.0,0.0,0.0,0.0,0.0,0.0,0.0,0.0,0.0,0.0,0.0,0.0,0.0,0.0,0.0,0.0,0.0,0.0,0.0,0.0,0.0,0.0,0.0,0.0,0.0,0.0,0.0,0.0,0.0,0.0,0.0,0.0,0.0,0.0,0.0,0.0,0.0,0.0,0.0,0.0,0.0,0.0,0.0,0.0,0.0,0.0,0.0,0.0,0.0,0.0,0.0,0.0,0.0,0.0,0.0,0.0,0.0,0.0,0.0,0.0,0.0,0.0,0.0,0.0,0.0,0.0,0.0,0.0,0.0,0.0,0.0,0.0,0.0,0.0,0.0,0.0,0.0,0.0,0.0,0.0,0.0,0.0,0.0,0.0,0.0,0.0,0.0,0.0,0.0,0.0,0.0,0.0,0.0,0.0,0.0,0.0,0.0,0.0,0.0,0.0,0.0,0.0,0.0,0.0,0.0,0.0,0.0,0.0,0.0,0.0,0.0,0.0,0.0,0.0,0.0,0.0,0.0,0.0,0.0,0.0,0.0,0.0,0.0,0.0,0.0,0.0,0.0,0.0,0.0,0.0,0.0,0.0,0.0,0.0,0.0,0.0,0.0,0.0,0.0,0.0,0.0,0.0,0.0,0.0,0.0,0.0,0.0,0.0,0.0,0.0,0.0,0.0,0.0,0.0,0.0,0.0,0.0,0.0,0.0,0.0,0.0,0.0,0.0,0.0,0.0,0.0,0.0,0.0,0.0,0.0,0.0,0.0,0.0,0.0,0.0,0.0,0.0,0.0,0.0,0.0,0.0,0.0,0.0,0.0,0.0,0.0,0.0,0.0,0.0,0.0,0.0,0.0,0.0,0.0,0.0,0.0,0.0,0.0,0.0,0.0,0.0,0.0,0.0,0.0,0.0,0.0,0.0,0.0,0.0,0.0,0.0,0.0,0.0,0.0,0.0,0.0,0.0,0.0,0.0,0.0,0.0,0.0,0.0,0.0,0.0,0.0,0.0,0.0,0.0,0.0,0.0,0.0,0.0,0.0,0.0,0.0,0.0,0.0,0.0,0.0,0.0,0.0,0.0,0.0,0.0,0.0,0.0,0.0,0.0,0.0,0.0,0.0,0.0,0.0,0.0,0.0,0.0,0.0,0.0,0.0,0.0,0.0,0.0,0.0,0.0,0.0,0.0,0.0,0.0,0.0,0.0,0.0,0.0,0.0,0.0,0.0,0.0,0.0,0.0,0.0,0.0,0.0,0.0,0.0,0.0,0.0,0.0,0.0,0.0,0.0,0.0,0.0,0.0,0.0,0.0,0.0,0.0,0.0,0.0,0.0,0.0,0.0,0.0,0.0,0.0,0.0,0.0,0.0,0.0,0.0,0.0,0.0,0.0,0.0,0.0,0.0,0.0,0.0,0.0,0.0,0.0,0.0,0.0,0.0,0.0,0.0,0.0,0.0,0.0,0.0,0.0,0.0,0.0,0.0,0.0,0.0,0.0,0.0,0.0,0.0,0.0,0.0,0.0,0.0,0.0,0.0,0.0,0.0,0.0,0.0,0.0,0.0,0.0,0.0,0.0,0.0,0.0,0.0,0.0,0.0,0.0,0.0,0.0,0.0,0.0,0.0,0.0,0.0,0.0,0.0,0.0,0.0,0.0,0.0,0.0,0.0,0.0,0.0,0.0,0.0,0.0,0.0,0.0,0.0,0.0,0.0,0.0,0.0,0.0,0.0,0.0,0.0,0.0,0.0,0.0,0.0,0.0,0.0,0.0,0.0,0.0,0.0,0.0,0.0,0.0,0.0,0.0,0.0,0.0,0.0,0.0,0.0,0.0,0.0,0.0,0.0,0.0,0.0,0.0,0.0,0.0,0.0,0.0,0.0,0.0,0.0,0.0,0.0,0.0,0.0,0.0,0.0,0.0,0.0,0.0,0.0,0.0,0.0,0.0,0.0,0.0,0.0,0.0,0.0,0.0,0.0,0.0,0.0,0.0,0.0,0.0,0.0,0.0,0.0,0.0,0.0,0.0,0.0,0.0,0.0,0.0,0.0,0.0,0.0,0.0,0.0,0.0,0.0,0.0,0.0,0.0,0.0,0.0,0.0,0.0,0.0,0.0,0.0,0.0,0.0,0.0,0.0,0.0,0.0,0.0,0.0,0.0,0.0,0.0,0.0,0.0,0.0,0.0,0.0,0.0,0.0,0.0,0.0,0.0,0.0,0.0,0.0,0.0,0.0,0.0,0.0,0.0,0.0,0.0,0.0,0.0,0.0,0.0,0.0,0.0,0.0,0.0,0.0,0.0,0.0,0.0,0.0,0.0,0.0,0.0,0.0,0.0,0.0,0.0,0.0,0.0,0.0,0.0,0.0,0.0,0.0,0.0,0.0,0.0,0.0,0.0,0.0,0.0,0.0,0.0,0.0,0.0,0.0,0.0,0.0,0.0,0.0,0.0,0.0,0.0,0.0,0.0,0.0,0.0,0.0,0.0,0.0,0.0,0.0,0.0,0.0,0.0,0.0,0.0,0.0,0.0,0.0,0.0,0.0,0.0,0.0,0.0,0.0,0.0,0.0,0.0,0.0,0.0,0.0,0.0,0.0,0.0,0.0,0.0,0.0,0.0,0.0,0.0,0.0,0.0,0.0,0.0,0.0,0.0,0.0,0.0,0.0,0.0,0.0,0.0,0.0,0.0,0.0,0.0,0.0,0.0,0.0,0.0,0.0,0.0,0.0,0.0,0.0,0.0,0.0,0.0,0.0,0.0,0.0,0.0,0.0,0.0,0.0,0.0,0.0,0.0,0.0,0.0,0.0,0.0,0.0,0.0,0.0,0.0,0.0,0.0,0.0,0.0,0.0,0.0,0.0,0.0,0.0,0.0,0.0,0.0,0.0,0.0,0.0,0.0,0.0,0.0,0.0,0.0,0.0,0.0,0.0,0.0,0.0,0.0,0.0,0.0,0.0,0.0,0.0,0.0,0.0,0.0,0.0,0.0,0.0,0.0,0.0,0.0,0.0,0.0,0.0,0.0,0.0,0.0,0.0,0.0,0.0,0.0,0.0,0.0,0.0,0.0,0.0,0.0,0.0,0.0,0.0,0.0,0.0,0.0,0.0,0.0,0.0,0.0,0.0,0.0,0.0,0.0,0.0,0.0,0.0,0.0,0.0,0.0,0.0,0.0,0.0,0.0,0.0,0.0,0.0,0.0,0.0,0.0,0.0,0.0,0.0,0.0,0.0,0.0,0.0,0.0,0.0,0.0,0.0,0.0,0.0,0.0,0.0,0.0,0.0,0.0,0.0,0.0,0.0,0.0,0.0,0.0,0.0,0.0,0.0,0.0,0.0,0.0,0.0,0.0,0.0,0.0,0.0,0.0,0.0,0.0,0.0,0.0,0.0,0.0,0.0,0.0,0.0,0.0,0.0,0.0,0.0,0.0,0.0,0.0,0.0,0.0,0.0,0.0,0.0,0.0,0.0,0.0,0.0,0.0,0.0,0.0,0.0,0.0,0.0,0.0,0.0,0.0,0.0,0.0,0.0,0.0,-1.465,0.0,0.0,0.0,0.0,0.0,0.0,0.0,0.0,0.0,0.0,0.0,0.0,0.0,0.0,0.0,0.0,0.0,0.0,0.0,0.0,0.0,0.0,0.0,0.0,0.0,0.0,0.0,0.0,0.0,0.0,0.0,0.0,0.0,0.0,0.0,0.0,0.0,0.0,0.0,0.0,0.0,0.0,0.0,0.0,0.0,0.0,0.0,0.0,0.0,0.0,0.0,0.0,0.0,0.0,0.0,0.0,0.0,0.0,0.0,0.0,0.0,0.0,0.0,0.0,0.0,0.0,0.0,0.0,0.0,0.0,0.0,0.0,0.0,0.0,0.0,0.0,0.0,0.0,0.0,0.0,0.0,0.0,0.0,0.0,0.0,0.0,0.0,0.0,0.0,0.0,0.0,0.0,0.0,0.0,0.0,0.0,0.0,0.0,0.0,0.0,0.0,0.0,0.0,0.0,0.0,0.0,0.0,0.0,0.0,0.0,-1.5062,-1.6228,-1.5446,-1.5049,-1.5253,0.0,0.0,0.0,0.0,0.0,0.0,0.0,0.0,0.0,0.0,0.0,0.0,0.0,0.0,0.0,0.0,0.0,0.0,0.0,0.0,0.0,0.0,0.0,0.0,0.0,0.0,0.0,0.0,0.0,0.0,0.0,0.0,0.0,0.0,0.0,0.0,0.0,0.0,0.0,0.0,0.0,0.0,0.0,0.0,0.0,0.0,0.0,0.0,0.0,0.0,0.0,0.0,0.0,0.0,0.0,0.0,0.0,0.0,0.0,0.0,0.0,0.0,0.0,0.0,0.0,0.0,0.0,0.0,0.0,0.0,0.0,0.0,0.0,0.0,0.0,0.0,0.0,0.0,0.0,0.0,0.0,0.0,0.0,0.0,0.0,0.0,0.0,0.0,0.0,0.0,0.0,0.0,0.0,0.0,0.0,0.0,0.0,0.0,0.0,0.0,0.0,0.0,0.0,0.0,0.0,0.0,0.0,0.0,0.0,0.0,0.0,0.0,-1.5503,-1.5172,-1.535,0.0,0.0,0.0,0.0,0.0,0.0,0.0,0.0,0.0,0.0,0.0,0.0,0.0,0.0,0.0,0.0,0.0,0.0,0.0,0.0,0.0,0.0,0.0,0.0,0.0,0.0,0.0,0.0,0.0,0.0,0.0,0.0,0.0,0.0,0.0,0.0,0.0,0.0,0.0,0.0,0.0,0.0,0.0,0.0,0.0,0.0,0.0,0.0,0.0,0.0,0.0,0.0,0.0,0.0,0.0,0.0,0.0,0.0,0.0,0.0,0.0,0.0,0.0,0.0,0.0,0.0,0.0,0.0,0.0,0.0,0.0,0.0,0.0,0.0,0.0,0.0,0.0,0.0,0.0,0.0,0.0,0.0,0.0,0.0,0.0,0.0,0.0,0.0,0.0,0.0,0.0,0.0,0.0,0.0,0.0,0.0,0.0,0.0,0.0,0.0,0.0,0.0,0.0,0.0,0.0,0.0,0.0,0.0,0.0,0.0,-1.5583,-1.6612,-1.6994,0.0,-1.4617,0.0,0.0,0.0,0.0,0.0,0.0,0.0,0.0,0.0,0.0,0.0,0.0,0.0,0.0,0.0,0.0,0.0,0.0,0.0,0.0,0.0,0.0,0.0,0.0,0.0,0.0,0.0,0.0,0.0,0.0,0.0,0.0,0.0,0.0,0.0,0.0,0.0,0.0,0.0,0.0,0.0,0.0,0.0,0.0,0.0,0.0,0.0,0.0,0.0,0.0,0.0,0.0,0.0,0.0,0.0,0.0,0.0,0.0,0.0,0.0,0.0,0.0,0.0,0.0,0.0,0.0,0.0,0.0,0.0,0.0,0.0,0.0,0.0,0.0,0.0,0.0,0.0,0.0,0.0,0.0,0.0,0.0,0.0,0.0,0.0,0.0,0.0,0.0,0.0,0.0,0.0,0.0,0.0,0.0,0.0,0.0,0.0,0.0,0.0,0.0,0.0,0.0,0.0,0.0,0.0,0.0,0.0,0.0,0.0,0.0,-1.4626,-1.6064,-1.675,-1.6165,0.0,0.0,0.0,0.0,0.0,0.0,0.0,0.0,0.0,0.0,0.0,0.0,0.0,0.0,0.0,0.0,0.0,0.0,0.0,0.0,0.0,0.0,0.0,0.0,0.0,0.0,0.0,0.0,0.0,0.0,0.0,0.0,0.0,0.0,0.0,0.0,0.0,0.0,0.0,0.0,0.0,0.0,0.0,0.0,0.0,0.0,0.0,0.0,0.0,0.0,0.0,0.0,0.0,0.0,0.0,0.0,0.0,0.0,0.0,0.0,0.0,0.0,0.0,0.0,0.0,0.0,0.0,0.0,0.0,0.0,0.0,0.0,0.0,0.0,0.0,0.0,0.0,0.0,0.0,0.0,0.0,0.0,0.0,0.0,0.0,0.0,0.0,0.0,0.0,0.0,0.0,0.0,0.0,0.0,0.0,0.0,0.0,0.0,0.0,0.0,0.0,0.0,0.0,0.0,0.0,0.0,0.0,0.0,0.0,0.0,-1.2669,-1.3756,-1.539,-1.6484,-1.6096,-1.3996,0.0,0.0,0.0,0.0,0.0,0.0,0.0,0.0,0.0,0.0,0.0,0.0,0.0,0.0,0.0,0.0,0.0,0.0,0.0,0.0,0.0,0.0,0.0,0.0,0.0,0.0,0.0,0.0,0.0,0.0,0.0,0.0,0.0,0.0,0.0,0.0,0.0,0.0,0.0,0.0,0.0,0.0,0.0,0.0,0.0,0.0,0.0,0.0,0.0,0.0,0.0,0.0,0.0,0.0,0.0,0.0,0.0,0.0,0.0,0.0,0.0,0.0,0.0,0.0,0.0,0.0,0.0,0.0,0.0,0.0,0.0,0.0,0.0,0.0,0.0,0.0,0.0,0.0,0.0,0.0,0.0,0.0,0.0,0.0,0.0,0.0,0.0,0.0,0.0,0.0,0.0,0.0,0.0,0.0,0.0,0.0,0.0,0.0,0.0,0.0,0.0,0.0,0.0,0.0,0.0,0.0,0.0,0.0,-1.1353,-1.2419,-1.3554,-1.4729,-1.6469,-1.628,0.0,0.0,0.0,0.0,0.0,0.0,0.0,0.0,0.0,0.0,0.0,0.0,0.0,0.0,0.0,0.0,0.0,0.0,0.0,0.0,0.0,0.0,0.0,0.0,0.0,0.0,0.0,0.0,0.0,0.0,0.0,0.0,0.0,0.0,0.0,0.0,0.0,0.0,0.0,0.0,0.0,0.0,0.0,0.0,0.0,0.0,0.0,0.0,0.0,0.0,0.0,0.0,0.0,0.0,0.0,0.0,0.0,0.0,0.0,0.0,0.0,0.0,0.0,0.0,0.0,0.0,0.0,0.0,0.0,0.0,0.0,0.0,0.0,0.0,0.0,0.0,0.0,0.0,0.0,0.0,0.0,0.0,0.0,0.0,0.0,0.0,0.0,0.0,0.0,0.0,0.0,0.0,0.0,0.0,0.0,0.0,0.0,0.0,0.0,0.0,0.0,0.0,0.0,0.0,0.0,0.0,0.0,0.0,0.0,-1.1123,-1.2737,-1.3917,-1.454,-1.5466,-1.5463,0.0,0.0,0.0,0.0,0.0,0.0,0.0,0.0,0.0,0.0,0.0,0.0,0.0,0.0,0.0,0.0,0.0,0.0,0.0,0.0,0.0,0.0,0.0,0.0,0.0,0.0,0.0,0.0,0.0,0.0,0.0,0.0,0.0,0.0,0.0,0.0,0.0,0.0,0.0,0.0,0.0,0.0,0.0,0.0,0.0,0.0,0.0,0.0,0.0,0.0,0.0,0.0,0.0,0.0,0.0,0.0,0.0,0.0,0.0,0.0,0.0,0.0,0.0,0.0,0.0,0.0,0.0,0.0,0.0,0.0,0.0,0.0,0.0,0.0,0.0,0.0,0.0,0.0,0.0,0.0,0.0,0.0,0.0,0.0,0.0,0.0,0.0,0.0,0.0,0.0,0.0,0.0,0.0,0.0,0.0,0.0,0.0,0.0,0.0,0.0,0.0,0.0,0.0,0.0,0.0,0.0,0.0,0.0,0.0,-1.1277,0.0,-1.3884,-1.4022,-1.4874,-1.4933,0.0,0.0,0.0,0.0,0.0,0.0,0.0,0.0,0.0,0.0,0.0,0.0,0.0,0.0,0.0,0.0,0.0,0.0,0.0,0.0,0.0,0.0,0.0,0.0,0.0,0.0,0.0,0.0,0.0,0.0,0.0,0.0,0.0,0.0,0.0,0.0,0.0,0.0,0.0,0.0,0.0,0.0,0.0,0.0,0.0,0.0,0.0,0.0,0.0,0.0,0.0,0.0,0.0,0.0,0.0,0.0,0.0,0.0,0.0,0.0,0.0,0.0,0.0,0.0,0.0,0.0,0.0,0.0,0.0,0.0,0.0,0.0,0.0,0.0,0.0,0.0,0.0,0.0,0.0,0.0,0.0,0.0,0.0,0.0,0.0,0.0,0.0,0.0,0.0,0.0,0.0,0.0,0.0,0.0,0.0,0.0,0.0,0.0,0.0,0.0,0.0,0.0,0.0,0.0,0.0,0.0,0.0,0.0,-1.1511,-1.2003,-1.2875,-1.3329,-1.318,-1.4685,-1.4782,0.0,0.0,0.0,0.0,0.0,0.0,0.0,0.0,0.0,0.0,0.0,0.0,0.0,0.0,0.0,0.0,0.0,0.0,0.0,0.0,0.0,0.0,0.0,0.0,0.0,0.0,0.0,0.0,0.0,0.0,0.0,0.0,0.0,0.0,0.0,0.0,0.0,0.0,0.0,0.0,0.0,0.0,0.0,0.0,0.0,0.0,0.0,0.0,0.0,0.0,0.0,0.0,0.0,0.0,0.0,0.0,0.0,0.0,0.0,0.0,0.0,0.0,0.0,0.0,0.0,0.0,0.0,0.0,0.0,0.0,0.0,0.0,0.0,0.0,0.0,0.0,0.0,0.0,0.0,0.0,0.0,0.0,0.0,0.0,0.0,0.0,0.0,0.0,0.0,0.0,0.0,0.0,0.0,0.0,0.0,0.0,0.0,0.0,0.0,0.0,0.0,0.0,0.0,0.0,0.0,0.0,0.0,0.0,0.0,-1.0775,-1.202,-1.2881,-1.3312,-1.4097,-1.444,0.0,0.0,0.0,0.0,0.0,0.0,0.0,0.0,0.0,0.0,0.0,0.0,0.0,0.0,0.0,0.0,0.0,0.0,0.0,0.0,0.0,0.0,0.0,0.0,0.0,0.0,0.0,0.0,0.0,0.0,0.0,0.0,0.0,0.0,0.0,0.0,0.0,0.0,0.0,0.0,0.0,0.0,0.0,0.0,0.0,0.0,0.0,0.0,0.0,0.0,0.0,0.0,0.0,0.0,0.0,0.0,0.0,0.0,0.0,0.0,0.0,0.0,0.0,0.0,0.0,0.0,0.0,0.0,0.0,0.0,0.0,0.0,0.0,0.0,0.0,0.0,0.0,0.0,0.0,0.0,0.0,0.0,0.0,0.0,0.0,0.0,0.0,0.0,0.0,0.0,0.0,0.0,0.0,0.0,0.0,0.0,0.0,0.0,0.0,0.0,0.0,0.0,0.0,0.0,0.0,0.0,0.0,0.0,0.0,-1.0562,-1.1887,-1.3151,-1.4115,-1.4453,-1.4518,-1.4429,0.0,0.0,0.0,0.0,0.0,0.0,0.0,0.0,0.0,0.0,0.0,0.0,0.0,0.0,0.0,0.0,0.0,0.0,0.0,0.0,0.0,0.0,0.0,0.0,0.0,0.0,0.0,0.0,0.0,0.0,0.0,0.0,0.0,0.0,0.0,0.0,0.0,0.0,0.0,0.0,0.0,0.0,0.0,0.0,0.0,0.0,0.0,0.0,0.0,0.0,0.0,0.0,0.0,0.0,0.0,0.0,0.0,0.0,0.0,0.0,0.0,0.0,0.0,0.0,0.0,0.0,0.0,0.0,0.0,0.0,0.0,0.0,0.0,0.0,0.0,0.0,0.0,0.0,0.0,0.0,0.0,0.0,0.0,0.0,0.0,0.0,0.0,0.0,0.0,0.0,0.0,0.0,0.0,0.0,0.0,0.0,0.0,0.0,0.0,0.0,0.0,0.0,0.0,0.0,0.0,0.0,0.0,0.0,-1.1257,-1.2575,-1.3956,-1.5258,-1.5406,-1.4906,0.0,0.0,0.0,0.0,0.0,0.0,0.0,0.0,0.0,0.0,0.0,0.0,0.0,0.0,0.0,0.0,0.0,0.0,0.0,0.0,0.0,0.0,0.0,0.0,0.0,0.0,0.0,0.0,0.0,0.0,0.0,0.0,0.0,0.0,0.0,0.0,0.0,0.0,0.0,0.0,0.0,0.0,0.0,0.0,0.0,0.0,0.0,0.0,0.0,0.0,0.0,0.0,0.0,0.0,0.0,0.0,0.0,0.0,0.0,0.0,0.0,0.0,0.0,0.0,0.0,0.0,0.0,0.0,0.0,0.0,0.0,0.0,0.0,0.0,0.0,0.0,0.0,0.0,0.0,0.0,0.0,0.0,0.0,0.0,0.0,0.0,0.0,0.0,0.0,0.0,0.0,0.0,0.0,0.0,0.0,0.0,0.0,0.0,0.0,0.0,0.0,0.0,0.0,0.0,0.0,0.0,0.0,0.0,0.0,-1.3492,-1.4205,-1.4765,-1.5414,-1.5285,-1.5134,0.0,0.0,0.0,0.0,0.0,0.0,0.0,0.0,0.0,0.0,0.0,0.0,0.0,0.0,0.0,0.0,0.0,0.0,0.0,0.0,0.0,0.0,0.0,0.0,0.0,0.0,0.0,0.0,0.0,0.0,0.0,0.0,0.0,0.0,0.0,0.0,0.0,0.0,0.0,0.0,0.0,0.0,0.0,0.0,0.0,0.0,0.0,0.0,0.0,0.0,0.0,0.0,0.0,0.0,0.0,0.0,0.0,0.0,0.0,0.0,0.0,0.0,0.0,0.0,0.0,0.0,0.0,0.0,0.0,0.0,0.0,0.0,0.0,0.0,0.0,0.0,0.0,0.0,0.0,0.0,0.0,0.0,0.0,0.0,0.0,0.0,0.0,0.0,0.0,0.0,0.0,0.0,0.0,0.0,0.0,0.0,0.0,0.0,0.0,0.0,0.0,0.0,0.0,0.0,0.0,0.0,0.0,0.0,-1.2786,-1.4643,-1.55,-1.6041,-1.6337,-1.5974,-1.5638,0.0,0.0,0.0,0.0,0.0,0.0,0.0,0.0,0.0,0.0,0.0,0.0,0.0,0.0,0.0,0.0,0.0,0.0,0.0,0.0,0.0,0.0,0.0,0.0,0.0,0.0,0.0,0.0,0.0,0.0,0.0,0.0,0.0,0.0,0.0,0.0,0.0,0.0,0.0,0.0,0.0,0.0,0.0,0.0,0.0,0.0,0.0,0.0,0.0,0.0,0.0,0.0,0.0,0.0,0.0,0.0,0.0,0.0,0.0,0.0,0.0,0.0,0.0,0.0,0.0,0.0,0.0,0.0,0.0,0.0,0.0,0.0,0.0,0.0,0.0,0.0,0.0,0.0,0.0,0.0,0.0,0.0,0.0,0.0,0.0,0.0,0.0,0.0,0.0,0.0,0.0,0.0,0.0,0.0,0.0,0.0,0.0,0.0,0.0,0.0,0.0,0.0,0.0,0.0,0.0,0.0,0.0,0.0,-1.4322,-1.5109,-1.6426,-1.7259,-1.7515,-1.686,-1.6154,0.0,0.0,0.0,0.0,0.0,0.0,0.0,0.0,0.0,0.0,0.0,0.0,0.0,0.0,0.0,0.0,0.0,0.0,0.0,0.0,0.0,0.0,0.0,0.0,0.0,0.0,0.0,0.0,0.0,0.0,0.0,0.0,0.0,0.0,0.0,0.0,0.0,0.0,0.0,0.0,0.0,0.0,0.0,0.0,0.0,0.0,0.0,0.0,0.0,0.0,0.0,0.0,0.0,0.0,0.0,0.0,0.0,0.0,0.0,0.0,0.0,0.0,0.0,0.0,0.0,0.0,0.0,0.0,0.0,0.0,0.0,0.0,0.0,0.0,0.0,0.0,0.0,0.0,0.0,0.0,0.0,0.0,0.0,0.0,0.0,0.0,0.0,0.0,0.0,0.0,0.0,0.0,0.0,0.0,0.0,0.0,0.0,0.0,0.0,0.0,0.0,0.0,0.0,0.0,0.0,0.0,0.0,0.0,-1.4418,-1.6301,-1.662,-1.695,-1.7248,-1.6359,-1.619,0.0,0.0,0.0,0.0,0.0,0.0,0.0,0.0,0.0,0.0,0.0,0.0,0.0,0.0,0.0,0.0,0.0,0.0,0.0,0.0,0.0,0.0,0.0,0.0,0.0,0.0,0.0,0.0,0.0,0.0,0.0,0.0,0.0,0.0,0.0,0.0,0.0,0.0,0.0,0.0,0.0,0.0,0.0,0.0,0.0,0.0,0.0,0.0,-2.0332,0.0,0.0,0.0,0.0,0.0,0.0,0.0,0.0,0.0,0.0,0.0,0.0,0.0,0.0,0.0,0.0,0.0,0.0,0.0,0.0,0.0,0.0,0.0,0.0,0.0,0.0,0.0,0.0,0.0,0.0,0.0,0.0,0.0,0.0,0.0,0.0,0.0,0.0,0.0,0.0,0.0,0.0,0.0,0.0,0.0,0.0,0.0,0.0,0.0,0.0,0.0,0.0,0.0,0.0,0.0,0.0,0.0,0.0,0.0,-1.4704,-1.6387,-1.6618,-1.6813,-1.6935,-1.6413,-1.6553,0.0,0.0,0.0,0.0,0.0,0.0,0.0,0.0,0.0,0.0,0.0,0.0,0.0,0.0,0.0,0.0,0.0,0.0,0.0,0.0,0.0,0.0,0.0,0.0,0.0,0.0,0.0,0.0,0.0,0.0,0.0,0.0,0.0,0.0,0.0,0.0,0.0,0.0,0.0,0.0,0.0,0.0,0.0,0.0,0.0,0.0,0.0,0.0,0.0,0.0,0.0,0.0,0.0,0.0,0.0,0.0,0.0,0.0,0.0,0.0,0.0,0.0,0.0,0.0,0.0,0.0,0.0,0.0,0.0,0.0,0.0,0.0,0.0,0.0,0.0,0.0,0.0,0.0,0.0,0.0,0.0,0.0,0.0,0.0,0.0,0.0,0.0,0.0,0.0,0.0,0.0,0.0,0.0,0.0,0.0,0.0,0.0,0.0,0.0,0.0,0.0,0.0,0.0,0.0,0.0,0.0,0.0,-1.4088,-1.5195,-1.6348,-1.6609,-1.6689,-1.669,-1.6733,-1.6933,-1.7499,0.0,0.0,0.0,0.0,0.0,0.0,0.0,0.0,0.0,0.0,0.0,0.0,0.0,0.0,0.0,0.0,0.0,0.0,0.0,0.0,0.0,0.0,0.0,0.0,0.0,0.0,0.0,0.0,0.0,0.0,0.0,0.0,0.0,0.0,0.0,0.0,0.0,0.0,-1.7315,-1.7665,0.0,0.0,0.0,0.0,0.0,0.0,0.0,0.0,-2.0558,0.0,0.0,0.0,0.0,0.0,0.0,0.0,0.0,0.0,0.0,0.0,0.0,0.0,0.0,0.0,0.0,0.0,0.0,0.0,0.0,0.0,0.0,0.0,0.0,0.0,0.0,0.0,0.0,0.0,0.0,0.0,0.0,0.0,0.0,0.0,0.0,0.0,0.0,0.0,0.0,0.0,0.0,0.0,0.0,0.0,0.0,0.0,0.0,0.0,0.0,0.0,0.0,0.0,0.0,0.0,0.0,-1.3324,-1.3974,-1.519,-1.6963,-1.6817,-1.6697,-1.6706,-1.6727,-1.7117,-1.797,0.0,0.0,0.0,0.0,0.0,0.0,0.0,0.0,0.0,0.0,0.0,0.0,0.0,0.0,0.0,0.0,0.0,0.0,0.0,0.0,0.0,0.0,0.0,0.0,0.0,0.0,0.0,0.0,0.0,0.0,0.0,0.0,0.0,0.0,0.0,0.0,0.0,0.0,0.0,-1.8287,-1.8573,0.0,0.0,0.0,0.0,0.0,0.0,0.0,0.0,-2.2771,0.0,0.0,0.0,0.0,0.0,0.0,0.0,0.0,0.0,0.0,0.0,0.0,0.0,0.0,0.0,0.0,0.0,0.0,0.0,0.0,0.0,0.0,0.0,0.0,0.0,0.0,0.0,0.0,0.0,0.0,0.0,0.0,0.0,0.0,0.0,0.0,0.0,0.0,0.0,0.0,0.0,0.0,0.0,0.0,0.0,0.0,0.0,0.0,0.0,0.0,0.0,0.0,0.0,0.0,0.0,-1.375,-1.4692,-1.5639,-1.6507,-1.6631,-1.6639,-1.6526,-1.6467,-1.702,0.0,0.0,0.0,0.0,0.0,0.0,0.0,0.0,0.0,0.0,0.0,0.0,0.0,0.0,0.0,0.0,0.0,0.0,0.0,0.0,0.0,0.0,0.0,0.0,0.0,0.0,0.0,0.0,0.0,0.0,0.0,0.0,0.0,0.0,0.0,0.0,0.0,0.0,0.0,0.0,-1.8072,-1.8494,-1.9527,0.0,0.0,0.0,0.0,0.0,0.0,-2.1275,-2.2685,0.0,0.0,0.0,0.0,0.0,0.0,0.0,0.0,0.0,0.0,0.0,0.0,0.0,0.0,0.0,0.0,0.0,0.0,0.0,0.0,0.0,0.0,0.0,0.0,0.0,0.0,0.0,0.0,0.0,0.0,0.0,0.0,0.0,0.0,0.0,0.0,0.0,0.0,0.0,0.0,0.0,0.0,0.0,0.0,0.0,0.0,0.0,0.0,0.0,0.0,0.0,0.0,0.0,0.0,0.0,-1.4272,-1.5335,-1.5999,-1.611,-1.6381,-1.6547,-1.6419,-1.6404,-1.7015,0.0,0.0,0.0,0.0,0.0,0.0,0.0,0.0,0.0,0.0,0.0,0.0,0.0,0.0,0.0,0.0,0.0,0.0,0.0,0.0,0.0,0.0,0.0,0.0,0.0,0.0,0.0,0.0,0.0,0.0,0.0,0.0,0.0,0.0,0.0,0.0,0.0,0.0,0.0,0.0,0.0,-1.8348,-1.9381,-1.884,0.0,0.0,0.0,0.0,-2.0158,-2.1332,0.0,0.0,0.0,0.0,0.0,0.0,0.0,0.0,0.0,0.0,0.0,0.0,0.0,0.0,0.0,0.0,0.0,0.0,0.0,0.0,0.0,0.0,0.0,0.0,0.0,0.0,0.0,0.0,0.0,0.0,0.0,0.0,0.0,0.0,0.0,0.0,0.0,0.0,0.0,0.0,0.0,0.0,0.0,0.0,0.0,0.0,0.0,0.0,0.0,0.0,0.0,0.0,0.0,0.0,0.0,0.0,-1.4551,-1.5242,-1.5895,-1.66,-1.64,-1.6452,-1.6693,-1.6834,-1.7266,0.0,0.0,0.0,0.0,0.0,0.0,0.0,0.0,0.0,0.0,0.0,0.0,0.0,0.0,0.0,0.0,0.0,0.0,0.0,0.0,0.0,0.0,0.0,0.0,0.0,0.0,0.0,0.0,0.0,0.0,0.0,0.0,0.0,0.0,0.0,0.0,0.0,0.0,0.0,0.0,0.0,-1.8482,-1.9236,-1.8795,-1.8291,0.0,0.0,-1.9545,-2.0694,-2.2373,0.0,0.0,0.0,0.0,0.0,0.0,0.0,0.0,0.0,0.0,0.0,0.0,0.0,0.0,0.0,0.0,0.0,0.0,0.0,0.0,0.0,0.0,0.0,0.0,0.0,0.0,0.0,0.0,0.0,0.0,0.0,0.0,0.0,0.0,0.0,0.0,0.0,0.0,0.0,0.0,0.0,0.0,0.0,0.0,0.0,0.0,0.0,0.0,0.0,0.0,0.0,0.0,0.0,0.0,0.0,-1.4245,-1.4611,-1.566,-1.6247,-1.6488,-1.6478,-1.6826,-1.7519,-1.6955,-1.7342,0.0,0.0,0.0,0.0,0.0,0.0,0.0,0.0,0.0,0.0,0.0,0.0,0.0,0.0,0.0,0.0,0.0,0.0,0.0,0.0,0.0,0.0,0.0,0.0,0.0,0.0,0.0,0.0,0.0,0.0,0.0,0.0,0.0,0.0,0.0,0.0,0.0,0.0,0.0,0.0,0.0,0.0,-1.9034,-1.8927,0.0,0.0,0.0,-2.028,-2.1362,0.0,0.0,0.0,0.0,0.0,0.0,0.0,0.0,0.0,0.0,0.0,0.0,0.0,0.0,0.0,0.0,0.0,0.0,0.0,0.0,0.0,0.0,0.0,0.0,0.0,0.0,0.0,0.0,0.0,0.0,0.0,0.0,0.0,0.0,0.0,0.0,0.0,0.0,0.0,0.0,0.0,0.0,0.0,0.0,0.0,0.0,0.0,0.0,0.0,0.0,0.0,0.0,0.0,0.0,0.0,0.0,0.0,-1.4694,-1.5943,-1.654,-1.6406,-1.6758,-1.7246,-1.7948,-1.7681,0.0,0.0,0.0,0.0,0.0,0.0,0.0,0.0,0.0,0.0,0.0,0.0,0.0,0.0,0.0,0.0,0.0,0.0,0.0,0.0,0.0,0.0,0.0,0.0,0.0,0.0,0.0,-1.8726,0.0,0.0,0.0,0.0,0.0,0.0,0.0,0.0,0.0,0.0,0.0,0.0,0.0,0.0,-1.9168,-1.8966,-1.924,-1.9506,0.0,0.0,-2.1143,-2.2737,-2.3862,-2.4764,0.0,0.0,0.0,0.0,0.0,0.0,0.0,0.0,0.0,0.0,0.0,0.0,0.0,0.0,0.0,0.0,0.0,0.0,0.0,0.0,0.0,0.0,0.0,0.0,0.0,0.0,0.0,0.0,0.0,0.0,0.0,0.0,0.0,0.0,0.0,0.0,0.0,0.0,0.0,0.0,0.0,0.0,0.0,0.0,0.0,0.0,0.0,0.0,0.0,0.0,0.0,0.0,0.0,0.0,-1.4396,-1.497,-1.5845,-1.6433,-1.6673,-1.7309,-1.7643,-1.7598,-1.9393,-1.9791,0.0,0.0,0.0,0.0,0.0,0.0,0.0,0.0,0.0,0.0,0.0,0.0,0.0,0.0,0.0,0.0,0.0,0.0,0.0,0.0,0.0,0.0,0.0,0.0,0.0,0.0,0.0,0.0,0.0,0.0,0.0,0.0,0.0,0.0,0.0,0.0,0.0,0.0,0.0,0.0,0.0,-1.9272,-1.9279,-1.9535,-2.0255,0.0,-2.1568,-2.2374,-2.4927,-2.5839,-2.6166,-2.5751,0.0,0.0,0.0,0.0,0.0,0.0,0.0,0.0,0.0,0.0,0.0,0.0,0.0,0.0,0.0,0.0,0.0,0.0,0.0,0.0,0.0,0.0,0.0,0.0,0.0,0.0,0.0,0.0,0.0,0.0,0.0,0.0,0.0,0.0,0.0,0.0,0.0,0.0,0.0,0.0,0.0,0.0,0.0,0.0,0.0,0.0,0.0,0.0,0.0,0.0,0.0,0.0,0.0,-1.4008,-1.4429,-1.5464,-1.643,-1.7287,-1.7529,-1.8202,-1.9427,-1.9939,-1.997,0.0,0.0,0.0,0.0,0.0,0.0,0.0,0.0,0.0,0.0,0.0,0.0,0.0,0.0,0.0,0.0,0.0,0.0,0.0,0.0,0.0,0.0,0.0,0.0,0.0,0.0,0.0,0.0,-2.0336,-2.0272,-2.0069,0.0,0.0,0.0,0.0,0.0,0.0,0.0,0.0,0.0,0.0,-2.1095,-2.1627,-2.2063,0.0,0.0,-2.3338,-2.3941,-2.4941,-2.5628,-2.5887,-2.5372,-2.5192,0.0,0.0,0.0,0.0,0.0,0.0,0.0,0.0,0.0,0.0,0.0,0.0,0.0,0.0,0.0,0.0,0.0,0.0,0.0,0.0,0.0,0.0,0.0,0.0,0.0,0.0,0.0,0.0,0.0,0.0,0.0,0.0,0.0,0.0,0.0,0.0,0.0,0.0,0.0,0.0,0.0,0.0,0.0,0.0,0.0,0.0,0.0,0.0,0.0,0.0,0.0,0.0,-1.3788,-1.4088,-1.5504,-1.6763,-1.7684,-1.8118,-1.906,-2.0458,-2.0562,-2.0454,0.0,0.0,0.0,0.0,0.0,0.0,0.0,0.0,0.0,0.0,0.0,0.0,0.0,0.0,0.0,0.0,0.0,0.0,0.0,0.0,0.0,0.0,0.0,0.0,0.0,0.0,0.0,0.0,-2.0407,-2.0289,-2.0389,0.0,0.0,0.0,0.0,0.0,0.0,0.0,0.0,0.0,0.0,-2.2638,-2.2978,-2.3468,-2.3788,-2.4023,-2.4553,-2.4979,-2.5413,-2.5705,-2.582,-2.5518,0.0,0.0,0.0,0.0,0.0,0.0,0.0,0.0,0.0,0.0,0.0,0.0,0.0,0.0,0.0,0.0,0.0,0.0,0.0,0.0,0.0,0.0,0.0,0.0,0.0,0.0,0.0,-1.3023,0.0,0.0,-1.2599,0.0,0.0,0.0,0.0,0.0,0.0,0.0,0.0,0.0,0.0,0.0,0.0,0.0,0.0,0.0,0.0,0.0,0.0,0.0,0.0,0.0,0.0,-1.3781,-1.4082,-1.6216,-1.7397,-1.7747,-1.9329,-2.0181,-2.0063,-2.1561,-2.1752,-2.0242,0.0,0.0,0.0,0.0,0.0,0.0,0.0,0.0,0.0,0.0,0.0,0.0,0.0,0.0,0.0,0.0,0.0,0.0,0.0,0.0,0.0,0.0,0.0,0.0,0.0,0.0,-1.9756,-2.009,-2.04,0.0,0.0,0.0,0.0,0.0,0.0,0.0,0.0,0.0,-2.1484,-2.2849,-2.3427,-2.2739,-2.3134,-2.3905,-2.4506,-2.4748,-2.5284,-2.6701,-2.6621,-2.6367,0.0,0.0,0.0,0.0,0.0,0.0,0.0,0.0,0.0,0.0,0.0,0.0,0.0,0.0,0.0,0.0,0.0,0.0,0.0,0.0,0.0,0.0,0.0,0.0,0.0,0.0,0.0,-1.2501,-1.2438,0.0,0.0,0.0,0.0,0.0,0.0,0.0,0.0,0.0,0.0,0.0,-1.3592,-1.3722,0.0,0.0,0.0,0.0,0.0,0.0,0.0,0.0,0.0,0.0,0.0,0.0,-1.3906,-1.4583,-1.6213,-1.7663,-1.8948,-1.9405,-2.0043,-2.0756,-2.1491,-2.1293,-2.0182,0.0,0.0,0.0,0.0,0.0,0.0,0.0,0.0,0.0,0.0,0.0,0.0,0.0,0.0,0.0,0.0,0.0,0.0,0.0,0.0,0.0,0.0,0.0,0.0,0.0,-2.0379,0.0,0.0,0.0,0.0,0.0,0.0,0.0,0.0,0.0,0.0,0.0,-2.2603,-2.4096,-2.3972,-2.4103,-2.5017,-2.5264,-2.5684,0.0,0.0,0.0,0.0,0.0,0.0,0.0,0.0,0.0,0.0,0.0,0.0,0.0,0.0,-2.8354,-2.7765,-2.7446,-2.7363,-2.7521,0.0,0.0,0.0,0.0,0.0,0.0,0.0,0.0,0.0,0.0,0.0,0.0,0.0,0.0,-1.2662,-1.2456,-1.2935,0.0,0.0,0.0,0.0,0.0,0.0,0.0,0.0,-1.3981,-1.4059,-1.4158,-1.4275,-1.4237,0.0,-1.4132,-1.3787,0.0,0.0,0.0,0.0,0.0,0.0,0.0,0.0,-1.4205,-1.4962,-1.6645,-1.8205,-1.9497,-1.9798,-2.0395,-2.1311,-2.1253,-2.0984,-2.0327,-1.9276,-1.8268,0.0,0.0,0.0,0.0,0.0,0.0,0.0,0.0,0.0,0.0,0.0,0.0,0.0,0.0,0.0,0.0,0.0,0.0,0.0,0.0,0.0,0.0,0.0,-2.0176,0.0,0.0,0.0,0.0,0.0,0.0,0.0,0.0,0.0,-2.333,-2.3525,-2.415,-2.5547,-2.5264,-2.5166,-2.584,0.0,0.0,0.0,0.0,0.0,0.0,0.0,-2.5271,-2.5661,-2.5803,-2.634,-2.7651,-2.8335,-2.9094,-3.0522,0.0,0.0,-3.0042,-2.9815,-2.9846,-3.002,-3.0449,-3.0744,-3.0732,-3.059,-3.0607,0.0,0.0,0.0,0.0,0.0,0.0,0.0,0.0,-1.3101,-1.3233,0.0,-1.3321,0.0,0.0,0.0,0.0,-1.3982,-1.4289,0.0,0.0,-1.4938,-1.4911,-1.4639,-1.4476,-1.4468,-1.4685,-1.424,-1.4113,-1.4258,-1.4071,0.0,0.0,0.0,0.0,0.0,0.0,-1.4598,-1.5265,-1.7357,-1.8812,-1.9607,-2.0467,-2.1041,-2.1471,-2.105,-2.0798,-2.0726,-1.9689,-1.8858,-1.8392,-1.7554,0.0,0.0,0.0,0.0,0.0,0.0,0.0,0.0,0.0,0.0,0.0,0.0,0.0,0.0,0.0,0.0,0.0,0.0,0.0,0.0,-2.0533,0.0,0.0,0.0,0.0,0.0,0.0,0.0,0.0,0.0,-2.3695,-2.3869,-2.4883,-2.5703,-2.5732,0.0,0.0,0.0,0.0,-2.6357,-2.4775,-2.4853,-2.501,-2.4639,-2.4883,-2.5506,-2.6636,0.0,0.0,-2.9197,-2.9029,-2.9455,-3.1456,-3.2252,-3.2402,-3.2074,-3.1658,-3.1507,-3.1937,-3.24,-3.2647,-3.2485,-3.2236,-3.2052,-0.9556,0.0,0.0,0.0,0.0,-1.1031,-1.1555,-1.2116,-1.2763,-1.3061,-1.3113,-1.341,0.0,0.0,0.0,0.0,0.0,0.0,-1.437,-1.4809,-1.4918,-1.5071,-1.5216,-1.5358,-1.5394,-1.5173,-1.5307,-1.5264,-1.5119,-1.5025,-1.4431,-1.3452,0.0,0.0,0.0,0.0,-1.5643,-1.6612,-1.8293,-1.9516,-2.0261,-2.0683,-2.0936,-2.0989,-2.0571,-2.0257,-2.0091,-1.9448,-1.8858,-1.8402,-1.8386,0.0,0.0,0.0,0.0,0.0,0.0,0.0,0.0,0.0,0.0,0.0,0.0,0.0,0.0,0.0,0.0,0.0,0.0,0.0,-2.0614,-2.1023,-2.0997,0.0,0.0,0.0,0.0,0.0,0.0,0.0,0.0,0.0,-2.5615,-2.5525,-2.5511,0.0,0.0,-2.4884,-2.4609,-2.5185,-2.5674,-2.5801,-2.5928,0.0,-2.6952,-2.6596,-2.6576,-2.7452,-2.8198,-2.893,-2.9792,-3.04,-3.1394,-3.3555,-3.4027,-3.4294,-3.4939,-3.4981,-3.4908,-3.503,-3.486,-3.4698,-3.4649,-3.4251,-3.3918,-1.0683,-1.0608,-1.091,-1.0904,-1.0953,-1.1565,-1.2146,-1.2519,-1.3468,-1.3881,-1.3829,-1.4165,-1.4011,-1.3579,-1.3455,0.0,0.0,0.0,-1.464,-1.5138,-1.5131,-1.524,-1.5438,-1.5628,-1.5621,-1.5445,-1.5628,-1.5621,-1.5431,-1.5299,-1.4779,-1.4052,0.0,0.0,-1.4295,-1.5219,-1.6337,-1.7838,-1.8825,-1.9771,-2.0664,-2.0974,-2.1161,-2.1094,-2.0481,-2.0154,-2.0027,-1.9406,-1.894,-1.8671,-1.8807,-1.8773,0.0,0.0,0.0,0.0,0.0,0.0,0.0,0.0,0.0,0.0,0.0,-1.9508,-1.9136,0.0,0.0,0.0,-2.1419,-2.1522,-2.1354,-2.1637,0.0,0.0,0.0,0.0,0.0,0.0,0.0,-2.3978,-2.5061,-2.6167,-2.6778,-2.6469,-2.6415,-2.6733,-2.6144,-2.558,-2.5555,0.0,-2.6566,-2.6665,-2.6685,-2.6894,-2.7422,-2.7342,-2.7623,-2.9052,-2.939,-2.9976,-3.0898,-3.1605,-3.2582,-3.416,-3.4872,-3.5451,-3.6452,-3.6463,-3.6324,-3.6218,-3.5873,-3.5688,-3.5461,-3.531,-3.5183,-1.1585,-1.2027,-1.1415,-1.1156,-1.132,-1.2388,-1.2962,-1.3429,-1.479,-1.5164,-1.5037,-1.5346,-1.5109,-1.4487,-1.4165,0.0,-1.486,-1.486,-1.5027,-1.5431,-1.5431,-1.5431,-1.5431,-1.5438,-1.5431,-1.5431,-1.5431,-1.5431,-1.5416,-1.5131,-1.4962,-1.4845,-1.4626,-1.4839,-1.5565,-1.5718,-1.6741,-1.8678,-1.9141,-1.9904,-2.0906,-2.1282,-2.1471,-2.138,-2.073,-2.0379,-2.0296,-1.9578,-1.9142,-1.9121,-1.905,-1.9157,-1.9441,0.0,0.0,0.0,0.0,0.0,0.0,0.0,0.0,0.0,0.0,0.0,0.0,0.0,0.0,0.0,-2.2224,0.0,-2.2777,-2.2496,0.0,0.0,0.0,-2.2718,-2.2708,-2.4312,-2.5213,-2.4757,0.0,0.0,-2.7303,-2.7814,-2.8064,-2.8077,-2.7955,-2.7743,-2.7221,-2.7824,-2.8126,-2.7281,-2.7241,-2.712,-2.7006,-2.7451,-2.8623,-3.0429,-3.0904,-3.1086,-3.2122,-3.2619,-3.3123,-3.4302,-3.5046,-3.5829,-3.6832,-3.6609,-3.6159,-3.5887,-3.5758,-3.5696,-3.5405,-3.5468,-3.5467,-1.2078,-1.2651,-1.2486,-1.2411,-1.2411,-1.2696,-1.3368,-1.4259,-1.4622,-1.5285,-1.606,-1.5849,-1.5438,-1.4809,-1.4494,-1.4567,-1.486,-1.486,-1.5123,-1.5423,-1.5431,-1.5431,-1.5431,-1.5431,-1.5431,-1.5431,-1.5431,-1.5431,-1.5423,-1.535,-1.5182,-1.4852,-1.4626,-1.4613,-1.4839,-1.5972,-1.7047,-1.8035,-1.9307,-2.0453,-2.1339,-2.1425,-2.1251,-2.07,-2.0473,-2.01,-1.9427,-1.9456,-1.9483,-1.9473,-1.9955,-2.0211,-2.0158,-1.9693,0.0,0.0,0.0,0.0,0.0,0.0,0.0,0.0,0.0,-2.0188,-1.9126,0.0,-2.1845,0.0,-2.2464,-2.3468,-2.3504,-2.426,0.0,0.0,-2.467,-2.5009,-2.4592,-2.5885,-2.6599,-2.6144,-2.6972,-2.7779,-2.8235,-2.9136,-2.9597,-2.9518,-2.845,-2.7567,-2.7289,-2.7633,-2.7804,-2.7471,-2.7854,-2.8107,-2.8023,-2.8164,-2.8911,-3.0175,-3.0329,-3.0904,-3.2618,-3.317,-3.3805,-3.5158,-3.5865,-3.6233,-3.6483,-3.6353,-3.6007,-3.53,-3.4994,-3.4881,-3.4827,-3.4484,-3.4216,-1.2273,-1.2759,-1.2759,-1.2641,-1.2558,-1.3052,-1.3921,-1.4822,-1.5191,-1.5773,-1.6654,-1.6513,-1.6174,-1.5703,-1.5659,-1.542,-1.5167,-1.5313,-1.5394,-1.5431,-1.5431,-1.5431,-1.5431,-1.5431,-1.5431,-1.5431,-1.5431,-1.5431,-1.5431,-1.5597,-1.5584,-1.5398,-1.5461,-1.5374,-1.5293,-1.6271,-1.7406,-1.8563,-1.9805,-2.0807,-2.1482,-2.1589,-2.1316,-2.0762,-2.0534,-2.01,-1.9474,-1.9512,-1.9509,-1.9296,-2.0127,-2.047,-2.0195,-2.0064,-1.995,0.0,0.0,0.0,0.0,0.0,0.0,0.0,0.0,0.0,0.0,0.0,-2.2355,-2.2389,-2.3575,-2.4455,-2.4703,-2.5316,-2.5573,-2.5178,-2.5785,-2.6129,-2.5892,-2.7222,-2.801,-2.7585,-2.8471,-2.9377,-2.9833,-3.0478,-3.0963,-3.1327,-3.0608,-2.9703,-2.8765,-2.9063,-2.9408,-2.9189,-2.995,-3.0611,-3.0432,-3.05,-3.0998,-3.195,-3.1985,-3.2402,-3.4083,-3.4569,-3.5011,-3.5722,-3.6238,-3.6509,-3.6274,-3.5952,-3.5642,-3.5223,-3.4808,-3.4567,-3.4542,-3.4405,-3.4229,-1.2375,-1.2759,-1.2759,-1.2522,-1.2259,-1.3334,-1.4118,-1.4841,-1.5491,-1.6232,-1.6958,-1.7105,-1.699,-1.673,-1.6929,-1.6465,-1.5619,-1.5893,-1.5871,-1.559,-1.5597,-1.559,-1.559,-1.5597,-1.5597,-1.559,-1.559,-1.559,-1.559,-1.6004,-1.6147,-1.6108,-1.6585,-1.6645,-1.6434,-1.6779,-1.786,-1.968,-2.0457,-2.1012,-2.14,-2.1587,-2.1414,-2.0959,-2.0555,-2.0159,-1.9661,-1.9719,-1.9501,-1.9051,-2.0037,-2.0501,-2.0187,-2.0387,-2.0499,0.0,-2.0121,0.0,0.0,0.0,0.0,0.0,0.0,0.0,0.0,-2.2264,-2.3153,-2.4303,-2.5036,-2.5599,-2.5926,-2.6129,-2.6273,-2.6271,-2.681,-2.7115,-2.7157,-2.8661,-2.9524,-2.913,-3.0219,-3.1119,-3.155,-3.1783,-3.2185,-3.2727,-3.2955,-3.2248,-3.0766,-3.1127,-3.168,-3.1713,-3.2442,-3.2514,-3.2602,-3.2735,-3.3047,-3.4042,-3.3861,-3.4267,-3.5246,-3.5647,-3.5852,-3.581,-3.622,-3.6554,-3.6083,-3.5613,-3.5299,-3.5155,-3.475,-3.4463,-3.4392,-3.4595,-3.4717,-1.2667,-1.2759,-1.2759,-1.2711,-1.2731,-1.2915,-1.2972,-1.3012,-1.3703,-1.5067,-1.7067,-1.7445,-1.7644,-1.7549,-1.6983,-1.6692,-1.6492,-1.6472,-1.6472,-1.6484,-1.6492,-1.6402,-1.6492,-1.6402,-1.6484,-1.6484,-1.6402,-1.6492,-1.6409,-1.6574,-1.6432,-1.6229,-1.6779,-1.7286,-1.7508,0.0,0.0,0.0,-2.075,-2.1081,-2.1154,-2.0803,-2.0472,-2.0038,-2.0212,0.0,-1.9071,-1.9889,-2.0209,-1.9754,-2.0568,0.0,0.0,0.0,0.0,0.0,0.0,0.0,0.0,0.0,0.0,0.0,-2.1593,-2.1827,-2.2433,-2.3315,-2.4253,-2.5314,-2.5524,-2.5833,-2.6336,-2.7492,-2.8003,-2.7698,-2.8901,-2.9716,-2.9751,-3.0593,-3.1147,-3.1464,-3.1803,-3.2002,-3.2118,-3.2688,-3.2901,-3.2664,-3.2995,-3.2889,-3.178,-3.2377,-3.2719,-3.2465,-3.2402,-3.2187,-3.2057,-3.1947,-3.237,-3.2871,-3.2869,-3.3144,-3.4081,-3.4414,-3.4702,-3.5007,-3.5362,-3.5626,-3.5469,-3.5351,-3.5116,-3.4672,-3.4489,-3.4397,-3.4397,-3.4476,-3.4457,-1.2759,-1.2759,-1.2759,-1.263,0.0,-1.2598,-1.2359,-1.2232,-1.3875,-1.5977,-1.8377,-1.8548,-1.8451,-1.8094,-1.7738,-1.7119,-1.6476,-1.6403,-1.6403,-1.6468,-1.6476,-1.6571,-1.673,-1.673,-1.673,-1.673,-1.673,-1.673,-1.6738,-1.6894,-1.6976,-1.6798,-1.7661,-1.8188,-1.838,-1.943,-2.0168,-2.0637,-2.0927,-2.1228,-2.1435,-2.1439,-2.1167,-2.0726,-2.1058,0.0,0.0,0.0,0.0,0.0,0.0,0.0,0.0,0.0,0.0,-2.1597,-2.1296,-2.1194,-2.1363,-2.1733,-2.223,-2.2729,-2.337,-2.3695,-2.3454,-2.459,-2.5532,-2.6026,-2.6301,-2.6668,-2.7174,-2.7908,-2.8265,-2.8094,-2.9267,-3.0085,-2.9931,-3.0765,-3.1508,-3.1807,-3.2047,-3.2345,-3.2907,-3.3349,-3.3729,-3.382,-3.4107,-3.4185,-3.371,-3.366,-3.3766,-3.4113,-3.3724,-3.3489,-3.3545,-3.3442,-3.3416,-3.3943,-3.3934,-3.4048,-3.4658,-3.4844,-3.4956,-3.5154,-3.5201,-3.5221,-3.492,-3.4855,-3.4763,-3.4489,-3.4397,-3.428,-3.4084,-3.4005,-3.3901,-1.2759,-1.2759,-1.2759,-1.2634,-1.2265,-1.245,-1.249,-1.2499,0.0,0.0,0.0,-1.9513,-1.9271,-1.8654,-1.8485,-1.7754,-1.6557,-1.6469,-1.6469,-1.654,-1.654,-1.6686,-1.6886,-1.6894,-1.6976,-1.6894,-1.6976,-1.6894,-1.6976,-1.731,-1.7473,-1.7635,-1.8523,-1.9082,-1.939,-2.0557,-2.1222,-2.1323,-2.1155,-2.129,-2.1738,-2.2051,-2.1966,-2.1718,-2.199,-2.193,-2.1446,-2.1889,-2.1913,-2.1429,-2.2083,-2.2253,-2.1879,-2.1733,-2.1711,-2.1789,-2.1936,-2.2185,-2.2349,-2.2905,-2.3489,-2.4061,-2.51,-2.5394,-2.4636,-2.583,-2.6679,-2.6839,-2.7059,-2.7392,-2.7972,-2.8015,-2.8053,-2.8184,-2.9248,-2.9788,-2.9602,-3.0712,-3.1675,-3.1697,-3.2164,-3.2723,-3.3566,-3.3789,-3.4182,-3.4933,-3.5032,-3.5199,-3.5226,-3.4794,-3.4786,-3.5395,-3.5133,-3.5085,-3.5328,-3.5187,-3.5302,-3.5085,-3.5122,-3.5324,-3.5499,-3.5587,-3.5405,-3.507,-3.5142,-3.492,-3.4515,-3.445,-3.4358,-3.4267,-3.4241,-3.4045,-3.3456,-3.3273,-3.3156,-1.2759,-1.2759,-1.2759,-1.2818,-1.2951,-1.2951,-1.3755,-1.4952,-1.5735,-1.6662,-1.7578,-1.9049,-1.9493,-1.9067,-1.8735,-1.8235,-1.7721,-1.7713,-1.7721,-1.7713,-1.7794,-1.7747,-1.7789,-1.7789,-1.7789,-1.7797,-1.7797,-1.7797,-1.7789,-1.7878,-1.7959,-1.7959,-1.8683,-1.9539,-2.0634,-2.1634,-2.222,-2.2221,-2.1459,-2.1292,-2.1712,-2.1392,-2.1371,-2.1636,-2.1618,-2.1274,-2.0794,-2.1549,-2.1724,-2.1255,-2.2168,-2.2708,-2.284,-2.2863,-2.2996,-2.3245,-2.329,-2.3324,-2.338,-2.3677,-2.4084,-2.4711,-2.5371,-2.583,-2.614,-2.6737,-2.736,-2.782,-2.7499,-2.7487,-2.8068,-2.8116,-2.8217,-2.8799,-2.9809,-3.0719,-3.117,-3.1894,-3.2481,-3.2457,-3.3023,-3.3377,-3.363,-3.3849,-3.4144,-3.4432,-3.4575,-3.4443,-3.4921,-3.5186,-3.5328,-3.5456,-3.5405,-3.5353,-3.5276,-3.5169,-3.5011,-3.4947,-3.4756,-3.4621,-3.4705,-3.4718,-3.464,-3.4554,-3.4528,-3.4463,-3.4332,-3.4397,-3.4219,-3.3891,-3.3773,-3.3459,-3.2529,-3.2267,-3.2228,-1.2759,-1.2759,-1.2759,-1.2958,-1.3147,-1.3437,-1.401,-1.4816,-1.5528,-1.6613,-1.8065,-1.9412,-1.9718,-1.9162,-1.8759,-1.8271,-1.7723,-1.7518,-1.7535,-1.7723,-1.7732,-1.7843,-1.8023,-1.8031,-1.7929,-1.7749,-1.7946,-1.7929,-1.7757,-1.7929,-1.8031,-1.804,-1.8674,-1.9627,-2.0857,-2.1548,-2.209,-2.2402,-2.219,-2.2221,-2.2442,-2.2371,-2.2358,-2.2247,-2.2421,-2.223,-2.1731,-2.2136,-2.2352,-2.2398,-2.2708,-2.3106,-2.3523,-2.3153,-2.3026,-2.325,-2.3406,-2.3489,-2.3417,-2.4061,-2.4723,-2.5302,-2.5819,-2.6335,-2.6841,-2.7093,-2.7301,-2.7626,-2.7708,-2.7857,-2.8179,-2.8462,-2.8742,-2.8972,-3.0103,-3.0909,-3.1255,-3.1836,-3.2359,-3.2646,-3.2934,-3.3221,-3.3548,-3.3988,-3.4314,-3.4397,-3.4314,-3.436,-3.4595,-3.4769,-3.4895,-3.5041,-3.4886,-3.4779,-3.4852,-3.4743,-3.4647,-3.4621,-3.4497,-3.441,-3.4397,-3.4397,-3.4267,-3.4018,-3.3953,-3.3891,-3.3844,-3.3806,-3.3754,-3.386,-3.3727,-3.3327,-3.2661,-3.2195,-3.2,-1.2759,-1.2764,-1.2861,-1.3022,-1.3256,-1.3747,-1.3999,-1.4194,-1.4995,-1.6303,-1.7995,-1.9282,-1.9609,-1.9179,-1.8845,-1.8305,-1.7629,-1.7304,-1.7321,-1.7578,-1.7595,-1.7757,-1.8014,-1.8031,-1.7877,-1.7646,-1.7903,-1.7877,-1.7663,-1.7903,-1.8031,-1.8201,-1.8993,-1.9932,-2.0867,-2.1624,-2.2231,-2.2703,-2.3075,-2.3224,-2.315,-2.3446,-2.3369,-2.2981,-2.3106,-2.3029,-2.2547,-2.2513,-2.2696,-2.3006,-2.2992,-2.3288,-2.3743,-2.3353,-2.3112,-2.3285,-2.3603,-2.3745,-2.3649,-2.4388,-2.5188,-2.5812,-2.6216,-2.6701,-2.7209,-2.7301,-2.7394,-2.7464,-2.7788,-2.8007,-2.8407,-2.8633,-2.9015,-2.9275,-3.008,-3.0737,-3.0918,-3.1319,-3.1797,-3.2228,-3.2411,-3.2685,-3.3169,-3.3796,-3.4228,-3.4358,-3.4397,-3.4397,-3.4397,-3.4481,-3.469,-3.4744,-3.4517,-3.4321,-3.4397,-3.452,-3.459,-3.4564,-3.4647,-3.4637,-3.4571,-3.4518,-3.4294,-3.3859,-3.3713,-3.3728,-3.346,-3.3459,-3.356,-3.3657,-3.359,-3.345,-3.284,-3.2467,-3.2082,-1.2759,-1.2856,-1.2953,-1.3205,-1.3479,-1.3761,-1.3815,-1.3707,-1.4624,-1.5163,-1.5694,-1.7648,-1.8828,-1.9196,-1.911,-1.8665,-1.7989,-1.7946,-1.7937,-1.7954,-1.798,-1.8006,-1.8031,-1.8031,-1.8014,-1.7963,-1.7934,-1.7997,-1.7929,-1.8006,-1.8112,-1.8514,-1.9913,-2.0605,-2.0991,-2.2446,-2.3372,-2.353,-2.3897,-2.3897,-2.3593,-2.3593,-2.3514,-2.3395,-2.2995,-2.2513,-2.203,-2.2007,-2.203,-2.2099,-2.2547,-2.2995,-2.3383,-2.3583,-2.3838,-2.429,-2.4552,-2.4647,-2.4647,-2.4729,-2.5233,-2.6101,-2.63,-2.6679,-2.7406,-2.7708,-2.7881,-2.8018,-2.7626,-2.7926,-2.8767,-2.8712,-2.8949,-2.9806,-3.01,-3.0279,-3.0864,-3.1065,-3.1091,-3.1117,-3.1692,-3.1967,-3.2215,-3.3012,-3.3891,-3.4327,-3.4341,-3.4354,-3.438,-3.4693,-3.491,-3.4948,-3.466,-3.4494,-3.4481,-3.4743,-3.495,-3.5059,-3.5291,-3.513,-3.4781,-3.4645,-3.4562,-3.3802,-3.3796,-3.3729,-3.3725,-3.3842,-3.3598,-3.3302,-3.3227,-3.2928,-3.2399,-3.2472,-3.2489,-1.2759,-1.2861,-1.305,-1.329,-1.3526,-1.365,-1.361,-1.3507,-1.3785,-1.4244,-1.5082,-1.6374,-1.7314,-1.8143,-1.8575,-1.8537,-1.8057,-1.8031,-1.8031,-1.8031,-1.8031,-1.8031,-1.8031,-1.8031,-1.7929,-1.774,-1.7929,-1.8009,-1.7942,-1.8249,-1.8451,-1.8612,-1.9222,-1.9766,-2.0138,-2.1517,-2.2521,-2.2927,-2.3751,-2.4127,-2.397,-2.3982,-2.3518,-2.2651,-2.2914,-2.2581,-2.1675,-2.203,-2.2442,-2.2544,-2.3051,-2.356,-2.4224,-2.4015,-2.4073,-2.4659,-2.4729,-2.4861,-2.4992,-2.5132,-2.553,-2.6259,-2.66,-2.7027,-2.7695,-2.78,-2.8111,-2.8621,-2.8767,-2.9081,-2.9626,-3.0177,-3.0558,-3.0659,-3.081,-3.096,-3.0986,-3.0986,-3.0986,-3.1026,-3.1483,-3.1836,-3.194,-3.2712,-3.3516,-3.4007,-3.4126,-3.41,-3.4139,-3.4553,-3.4861,-3.4929,-3.5063,-3.5209,-3.5141,-3.5304,-3.5251,-3.5076,-3.5035,-3.4977,-3.4489,-3.4312,-3.4032,-3.3512,-3.3417,-3.339,-3.3156,-3.3243,-3.312,-3.3046,-3.3176,-3.3079,-3.2844,-3.2945,-3.2945,-1.2818,-1.2855,-1.298,-1.318,-1.3395,-1.3399,-1.3363,-1.3278,-1.3091,-1.3548,-1.4392,-1.5047,-1.5893,-1.6852,-1.8029,-1.8382,-1.8074,-1.8031,-1.8031,-1.8121,-1.8121,-1.8121,-1.821,-1.8201,-1.8063,-1.7952,-1.8072,-1.8152,-1.8092,-1.8541,-1.8772,-1.878,-1.9091,-1.939,-1.9913,-2.0981,-2.1842,-2.2542,-2.3446,-2.3902,-2.3956,-2.4131,-2.3603,-2.2468,-2.3052,-2.2846,-2.1686,-2.235,-2.2821,-2.2968,-2.3245,-2.3723,-2.4496,-2.413,-2.4212,-2.4826,-2.4921,-2.4981,-2.5123,-2.5324,-2.5678,-2.6198,-2.673,-2.7274,-2.7643,-2.7959,-2.8339,-2.8949,-2.9756,-3.0228,-3.0456,-3.122,-3.1603,-3.1334,-3.1556,-3.1629,-3.1347,-3.1272,-3.1347,-3.1312,-3.1664,-3.1972,-3.222,-3.2821,-3.3386,-3.3833,-3.3923,-3.3869,-3.3973,-3.4326,-3.4753,-3.4753,-3.52,-3.5555,-3.5682,-3.5586,-3.5342,-3.5135,-3.4995,-3.4766,-3.4156,-3.4032,-3.38,-3.3487,-3.3216,-3.3093,-3.3162,-3.2999,-3.2973,-3.3171,-3.3312,-3.3312,-3.3326,-3.3396,-3.3382,-1.2822,-1.2892,-1.3015,-1.3146,-1.3163,-1.3145,-1.2994,-1.2795,-1.2747,-1.2826,-1.3028,-1.3756,-1.4657,-1.5619,-1.7572,-1.8374,-1.8066,-1.8031,-1.8121,-1.8362,-1.8362,-1.8442,-1.87,-1.8709,-1.8612,-1.855,-1.8576,-1.8594,-1.8647,-1.8825,-1.8993,-1.9002,-1.9766,-2.0304,-2.043,-2.1201,-2.2134,-2.2669,-2.3032,-2.3223,-2.3461,-2.3948,-2.3925,-2.3374,-2.3361,-2.319,-2.2718,-2.2854,-2.3059,-2.3047,-2.2866,-2.3152,-2.3942,-2.3795,-2.4121,-2.5073,-2.5229,-2.5241,-2.5312,-2.5301,-2.5541,-2.6056,-2.6596,-2.7048,-2.7466,-2.804,-2.8518,-2.8791,-2.9986,-3.0732,-3.1031,-3.1341,-3.1649,-3.1909,-3.2055,-3.2055,-3.2055,-3.1909,-3.2055,-3.1982,-3.1977,-3.2219,-3.2766,-3.2962,-3.3308,-3.3661,-3.3865,-3.3837,-3.3935,-3.4197,-3.4506,-3.4609,-3.4899,-3.5342,-3.5596,-3.5511,-3.543,-3.5259,-3.4996,-3.4836,-3.4517,-3.4139,-3.3744,-3.3493,-3.3338,-3.3254,-3.3283,-3.3227,-3.3283,-3.3311,-3.3255,-3.3255,-3.3097,-3.3478,-3.3407,-1.3104,-1.321,-1.2983,-1.2933,-1.3109,-1.294,-1.2789,-1.2705,-1.2705,-1.2705,-1.2869,-1.362,-1.421,-1.4636,-1.666,-1.7744,-1.7959,-1.8031,-1.8121,-1.8362,-1.8442,-1.8531,-1.87,-1.8709,-1.8709,-1.8709,-1.8709,-1.8772,-1.8931,-1.9073,-1.9231,-1.9222,-1.9529,-1.9643,-1.9629,-2.041,-2.112,-2.1459,-2.2347,-2.2983,-2.3052,-2.3764,-2.4019,-2.3629,-2.3895,-2.3746,-2.2912,-2.3723,-2.4084,-2.3869,-2.4044,-2.4374,-2.4742,-2.4716,-2.4665,-2.4819,-2.5119,-2.5312,-2.5312,-2.5312,-2.554,-2.6033,-2.6274,-2.6716,-2.7459,-2.7819,-2.8361,-2.9229,-2.9768,-3.0355,-3.1106,-3.1869,-3.2417,-3.2187,-3.2345,-3.2417,-3.22,-3.2128,-3.2128,-3.2128,-3.2128,-3.2309,-3.2691,-3.2818,-3.2973,-3.3412,-3.3553,-3.3508,-3.3637,-3.4005,-3.4269,-3.4413,-3.484,-3.5232,-3.5328,-3.5356,-3.5222,-3.5083,-3.491,-3.4307,-3.3916,-3.3761,-3.3424,-3.3494,-3.334,-3.3325,-3.3367,-3.338,-3.3421,-3.3024,-3.2996,-3.284,-3.2606,-3.2819,-3.2734,-1.3071,-1.3135,-1.2815,-1.2808,-1.2952,-1.2693,-1.2626,-1.2687,-1.2614,-1.2711,-1.2942,-1.3464,-1.3886,-1.4378,-1.5636,-1.6878,-1.7781,-1.8112,-1.8362,-1.8594,-1.8594,-1.8683,-1.8843,-1.8922,-1.8931,-1.8931,-1.8931,-1.9002,-1.9073,-1.9222,-1.9292,-1.9292,-1.9292,-1.9109,-1.8902,-1.9523,-1.9951,-2.0286,-2.147,-2.2243,-2.2548,-2.3409,-2.3746,-2.3618,-2.3956,-2.3921,-2.336,-2.4319,-2.4673,-2.441,-2.467,-2.4919,-2.5059,-2.5216,-2.5155,-2.4879,-2.5107,-2.5312,-2.5312,-2.5312,-2.5468,-2.5805,-2.6021,-2.6466,-2.714,-2.7512,-2.8183,-2.8839,-2.9551,-2.9999,-3.0895,-3.2101,-3.2632,-3.2259,-3.2561,-3.2789,-3.2503,-3.2503,-3.2503,-3.2503,-3.2574,-3.2646,-3.286,-3.2874,-3.3043,-3.3312,-3.3312,-3.3312,-3.3396,-3.3635,-3.393,-3.3958,-3.4225,-3.4621,-3.4759,-3.4716,-3.4759,-3.4646,-3.4436,-3.3831,-3.3621,-3.3466,-3.3396,-3.3466,-3.3479,-3.3394,-3.3448,-3.3514,-3.3239,-3.2754,-3.253,-3.2378,-3.2202,-3.2097,-3.2162,-1.2703,-1.2768,-1.2739,-1.2717,-1.2674,-1.2481,-1.2487,-1.262,-1.2457,-1.2686,-1.3039,-1.3143,-1.3724,-1.4482,-1.481,-1.5711,-1.7107,-1.8031,-1.8612,-1.8922,-1.8922,-1.9073,-1.9231,-1.9222,-1.9222,-1.9213,-1.9292,-1.9292,-1.9292,-1.9301,-1.9292,-1.9292,-1.9256,-1.9026,-1.8687,-1.8831,-1.8995,-1.9486,-2.0431,-2.1129,-2.1885,-2.2844,-2.3241,-2.3226,-2.3431,-2.3632,-2.3906,-2.4613,-2.4801,-2.4372,-2.4474,-2.453,-2.465,-2.5035,-2.53,-2.5252,-2.53,-2.5312,-2.5312,-2.5312,-2.5324,-2.5444,-2.5793,-2.6081,-2.6456,-2.7055,-2.7673,-2.805,-2.9021,-3.0012,-3.0667,-3.1623,-3.2173,-3.2232,-3.286,-3.3171,-3.3255,-3.3255,-3.3241,-3.3241,-3.3171,-3.3241,-3.3241,-3.3241,-3.3241,-3.3241,-3.3312,-3.3312,-3.3312,-3.3424,-3.3368,-3.3382,-3.3663,-3.4101,-3.4087,-3.4101,-3.4086,-3.4072,-3.3818,-3.3522,-3.362,-3.3605,-3.3675,-3.366,-3.3488,-3.3443,-3.2915,-3.2935,-3.2649,-3.2262,-3.2148,-3.1919,-3.1725,-3.168,-3.1902,-1.2945,-1.2909,-1.2819,-1.2596,-1.2463,-1.2536,-1.2632,-1.2714,-1.2782,-1.3062,-1.33,-1.3307,-1.3476,-1.3899,-1.4559,-1.5213,-1.5786,-1.6862,-1.7934,-1.8843,-1.9002,-1.9073,-1.9301,-1.9292,-1.9292,-1.9292,-1.9292,-1.9292,-1.9292,-1.9283,-1.9292,-1.9256,-1.9017,-1.8687,-1.833,-1.8424,-1.8768,-1.9339,-2.0289,-2.1152,-2.1812,-2.2718,-2.3105,-2.2965,-2.3292,-2.349,-2.3389,-2.4166,-2.4438,-2.3982,-2.4338,-2.453,-2.4614,-2.5023,-2.53,-2.5312,-2.5312,-2.5312,-2.5312,-2.5382,-2.5453,-2.5407,-2.5551,-2.596,-2.6275,-2.6627,-2.7039,-2.758,-2.875,-2.9529,-2.9429,-3.0686,-3.1901,-3.286,-3.3171,-3.3312,-3.3326,-3.3312,-3.3312,-3.3312,-3.3312,-3.3312,-3.3312,-3.3312,-3.3312,-3.3312,-3.3312,-3.3312,-3.3312,-3.3466,-3.3536,-3.3536,-3.3633,-3.3717,-3.39,-3.4055,-3.4043,-3.4058,-3.3845,-3.3605,-3.3744,-3.3799,-3.3882,-3.3736,-3.3575,-3.3226,-3.2694,-3.2349,-3.2105,-3.1853,-3.1685,-3.1411,-3.1217,-3.1232,-3.1482,-1.297,-1.2946,-1.2777,-1.2699,-1.2631,-1.2716,-1.2782,-1.2977,-1.3033,-1.3212,-1.3464,-1.3483,-1.3561,-1.3822,-1.4398,-1.4803,-1.5213,-1.6206,-1.7432,-1.8505,-1.8665,-1.8825,-1.9213,-1.9292,-1.9292,-1.9292,-1.9292,-1.9292,-1.9283,-1.9155,-1.9081,-1.9017,-1.8764,-1.8359,-1.8009,-1.8164,-1.845,-1.8768,-1.9592,-2.0417,-2.1076,-2.195,-2.2486,-2.2507,-2.2874,-2.2927,-2.2775,-2.3508,-2.3809,-2.3628,-2.3965,-2.4314,-2.4518,-2.4912,-2.5177,-2.5288,-2.5382,-2.5382,-2.5312,-2.5382,-2.5453,-2.5453,-2.5535,-2.5739,-2.6151,-2.631,-2.6748,-2.7274,-2.8138,-2.8749,-2.8975,-2.9904,-3.1469,-3.2917,-3.3016,-3.3227,-3.3396,-3.3536,-3.3536,-3.3536,-3.3536,-3.3536,-3.3536,-3.3536,-3.3536,-3.3536,-3.3536,-3.3536,-3.3536,-3.3605,-3.3675,-3.3744,-3.3758,-3.3896,-3.3951,-3.4034,-3.4034,-3.4008,-3.4008,-3.3882,-3.3951,-3.3922,-3.3977,-3.3581,-3.3316,-3.2681,-3.2147,-3.2052,-3.1835,-3.1584,-3.1221,-3.1032,-3.0858,-3.0846,-3.1023,-1.2619,-1.2613,-1.2687,-1.2826,-1.2959,-1.2856,-1.2958,-1.3283,-1.315,-1.3355,-1.3704,-1.3743,-1.3828,-1.4004,-1.4166,-1.458,-1.5311,-1.5966,-1.6854,-1.7674,-1.7997,-1.8327,-1.9222,-1.9292,-1.9292,-1.9292,-1.9292,-1.9274,-1.927,-1.8994,-1.8705,-1.8718,-1.8499,-1.821,-1.7984,-1.8005,-1.7989,-1.7998,-1.8627,-1.9407,-2.0063,-2.0903,-2.1596,-2.2171,-2.2294,-2.2306,-2.2366,-2.2814,-2.3003,-2.3039,-2.355,-2.3972,-2.437,-2.4594,-2.4905,-2.5129,-2.5414,-2.5414,-2.5298,-2.5332,-2.5392,-2.5594,-2.5688,-2.5676,-2.6021,-2.634,-2.6574,-2.6756,-2.7443,-2.8149,-2.9001,-2.9601,-3.0569,-3.2047,-3.2567,-3.3059,-3.3659,-3.3739,-3.3585,-3.3742,-3.3882,-3.3854,-3.377,-3.3813,-3.3813,-3.3882,-3.3813,-3.3827,-3.3813,-3.3813,-3.3882,-3.3882,-3.3937,-3.402,-3.4142,-3.4142,-3.4142,-3.4157,-3.4142,-3.4113,-3.4027,-3.3969,-3.3537,-3.3165,-3.2811,-3.2173,-3.1758,-3.1569,-3.1413,-3.1078,-3.0831,-3.0671,-3.0702,-3.0762,-3.0821,-1.1671,-1.1735,-1.2326,-1.2671,-1.2831,-1.2839,-1.3105,-1.3367,-1.349,-1.3652,-1.3913,-1.4004,-1.3997,-1.4088,-1.4088,-1.425,-1.4496,-1.4741,-1.5643,-1.6862,-1.7017,-1.7917,-1.9054,-1.9292,-1.9292,-1.9292,-1.9432,-1.9399,-1.913,-1.904,-1.8929,-1.8723,-1.8309,-1.8128,-1.7986,-1.7903,-1.8037,-1.8529,-1.9309,-2.002,-2.0666,-2.1388,-2.1987,-2.2123,-2.2197,-2.2197,-2.2197,-2.243,-2.272,-2.3019,-2.3216,-2.3414,-2.3644,-2.4091,-2.4438,-2.4518,-2.4621,-2.4768,-2.5086,-2.5227,-2.5468,-2.5779,-2.5836,-2.6062,-2.6144,-2.6255,-2.6412,-2.6696,-2.7481,-2.8017,-2.8137,-2.8866,-2.9676,-3.0254,-3.1695,-3.284,-3.2962,-3.2716,-3.2744,-3.3625,-3.3425,-3.3425,-3.3722,-3.3894,-3.3894,-3.3908,-3.3937,-3.3908,-3.3851,-3.3891,-3.3901,-3.4016,-3.4099,-3.4264,-3.4346,-3.4346,-3.4346,-3.4346,-3.4317,-3.4192,-3.3989,-3.3825,-3.3057,-3.2295,-3.2092,-3.1569,-3.1224,-3.0918,-3.0746,-3.0717,-3.0836,-3.0895,-3.0955,-3.1014,-3.1014,-1.0768,-1.1182,-1.1705,-1.2312,-1.2826,-1.3009,-1.3231,-1.3454,-1.3697,-1.3913,-1.4088,-1.4088,-1.4088,-1.4088,-1.4088,-1.4088,-1.4166,-1.4496,-1.5228,-1.6018,-1.6458,-1.7603,-1.8921,-1.9292,-1.9292,-1.9274,-1.9303,-1.9186,-1.9002,-1.8854,-1.8673,-1.8417,-1.809,-1.7961,-1.7922,-1.787,-1.7988,-1.8452,-1.8988,-1.9639,-2.0613,-2.1083,-2.1663,-2.1987,-2.2247,-2.2309,-2.2371,-2.2494,-2.2652,-2.2821,-2.2957,-2.3105,-2.335,-2.3747,-2.403,-2.4149,-2.4263,-2.4501,-2.4644,-2.4809,-2.5012,-2.5265,-2.5599,-2.5828,-2.5959,-2.6164,-2.6396,-2.6584,-2.7237,-2.7411,-2.7589,-2.8473,-2.9201,-2.9673,-3.0912,-3.1999,-3.2269,-3.1962,-3.2274,-3.2835,-3.301,-3.2838,-3.3298,-3.3513,-3.3725,-3.3811,-3.4013,-3.3897,-3.3782,-3.3835,-3.372,-3.3729,-3.3628,-3.3564,-3.3521,-3.3521,-3.363,-3.3717,-3.374,-3.3812,-3.3725,-3.3405,-3.2542,-3.1729,-3.138,-3.1122,-3.0906,-3.0762,-3.0762,-3.0836,-3.1014,-3.1087,-3.1087,-3.119,-3.119,-0.9882,-1.0772,-1.0906,-1.1724,-1.2689,-1.315,-1.3356,-1.3612,-1.3955,-1.4082,-1.4088,-1.4088,-1.4088,-1.4088,-1.4088,-1.4088,-1.4173,-1.4741,-1.5108,-1.5576,-1.6147,-1.7296,-1.846,-1.8774,-1.8957,-1.9104,-1.9037,-1.8937,-1.8826,-1.8417,-1.8176,-1.8104,-1.7908,-1.7754,-1.7852,-1.7949,-1.8008,-1.8066,-1.8327,-1.9054,-2.0031,-2.0495,-2.1146,-2.2061,-2.2309,-2.2494,-2.2616,-2.2739,-2.2702,-2.2751,-2.2739,-2.301,-2.3392,-2.3567,-2.3753,-2.3946,-2.406,-2.4199,-2.423,-2.4255,-2.4381,-2.4645,-2.5083,-2.5311,-2.5544,-2.5963,-2.6264,-2.6251,-2.6402,-2.6785,-2.7208,-2.8293,-2.8902,-2.919,-2.9845,-3.0563,-3.1129,-3.1378,-3.1681,-3.2341,-3.2498,-3.2425,-3.2658,-3.2962,-3.3369,-3.3266,-3.3483,-3.3454,-3.3324,-3.3318,-3.31,-3.2854,-3.2738,-3.2672,-3.2658,-3.2658,-3.2794,-3.2917,-3.28,-3.2815,-3.2931,-3.2611,-3.1936,-3.1398,-3.1154,-3.1024,-3.0878,-3.0836,-3.0821,-3.0955,-3.1132,-3.1132,-3.119,-3.1234,-3.1292,-0.8746,-0.9059,-1.057,-1.1394,-1.1976,-1.2875,-1.3353,-1.3667,-1.3961,-1.4088,-1.4088,-1.4088,-1.4088,-1.4088,-1.4082,-1.4088,-1.4166,-1.4384,-1.4629,-1.5337,-1.6166,-1.6596,-1.7209,-1.7438,-1.8131,-1.861,-1.8919,-1.8839,-1.8514,-1.8475,-1.8317,-1.8027,-1.7959,-1.794,-1.793,-1.793,-1.8008,-1.8066,-1.8462,-1.911,-1.9901,-2.0484,-2.1135,-2.2123,-2.2359,-2.2543,-2.2787,-2.2848,-2.2909,-2.2957,-2.2921,-2.2947,-2.312,-2.3181,-2.3329,-2.3368,-2.3454,-2.3604,-2.3929,-2.4054,-2.4216,-2.4553,-2.4716,-2.4931,-2.4956,-2.5473,-2.5749,-2.5862,-2.6189,-2.6533,-2.676,-2.7404,-2.7906,-2.8185,-2.8655,-2.9256,-2.9891,-3.0463,-3.1219,-3.1985,-3.2019,-3.1917,-3.2396,-3.2513,-3.2716,-3.2745,-3.2817,-3.2861,-3.2788,-3.2716,-3.2518,-3.2227,-3.2184,-3.2174,-3.2159,-3.2145,-3.2192,-3.2255,-3.2108,-3.2021,-3.2152,-3.2185,-3.1611,-3.126,-3.1027,-3.091,-3.0895,-3.1058,-3.1117,-3.1234,-3.1204,-3.1159,-3.1172,-3.1289,-3.114,-0.7764,-0.8383,-0.9364,-1.0451,-1.1551,-1.2336,-1.3046,-1.3579,-1.3961,-1.4088,-1.4088,-1.4088,-1.4166,-1.4237,-1.4243,-1.4328,-1.4287,-1.4261,-1.4365,-1.4706,-1.5035,-1.5211,-1.5737,-1.6195,-1.6996,-1.7972,-1.8493,-1.849,-1.8379,-1.8298,-1.8213,-1.8027,-1.8008,-1.8008,-1.8008,-1.8008,-1.8008,-1.8008,-1.8337,-1.8911,-1.9704,-2.0096,-2.0933,-2.1901,-2.2408,-2.2726,-2.2957,-2.3017,-2.3017,-2.3078,-2.3017,-2.2969,-2.303,-2.3078,-2.3065,-2.3125,-2.3138,-2.3178,-2.354,-2.3602,-2.3641,-2.4029,-2.4268,-2.4406,-2.4556,-2.4921,-2.5197,-2.5347,-2.5699,-2.6194,-2.6471,-2.6726,-2.7095,-2.7484,-2.7802,-2.8312,-2.9016,-2.9732,-3.0513,-3.1257,-3.1264,-3.1264,-3.1496,-3.1874,-3.2048,-3.2063,-3.2527,-3.2556,-3.2247,-3.2207,-3.2021,-3.1801,-3.1772,-3.1728,-3.1789,-3.1745,-3.1733,-3.1735,-3.1617,-3.1558,-3.1588,-3.1529,-3.1456,-3.1235,-3.1087,-3.1028,-3.1073,-3.1249,-3.1276,-3.1188,-3.1157,-3.1123,-3.0884,-3.063,-3.0436,-0.7019,-0.7931,-0.8084,-0.9346,-1.1051,-1.1629,-1.2388,-1.3326,-1.3787,-1.3913,-1.4088,-1.4088,-1.4159,-1.4321,-1.4398,-1.4468,-1.4518,-1.4351,-1.4265,-1.4151,-1.3874,-1.4087,-1.4602,-1.5251,-1.6016,-1.722,-1.7999,-1.8245,-1.8209,-1.8075,-1.8066,-1.8008,-1.8008,-1.8008,-1.8008,-1.8008,-1.8008,-1.8076,-1.8144,-1.8596,-1.9309,-1.9507,-2.0344,-2.169,-2.2531,-2.2909,-2.3017,-2.3078,-2.3065,-2.3125,-2.3125,-2.3125,-2.3125,-2.3125,-2.3125,-2.3125,-2.3125,-2.3175,-2.3153,-2.3201,-2.3201,-2.315,-2.3565,-2.3841,-2.3979,-2.433,-2.4632,-2.487,-2.5172,-2.5699,-2.6226,-2.6578,-2.6899,-2.7391,-2.7683,-2.813,-2.8634,-2.9345,-3.0125,-3.0323,-3.0725,-3.0872,-3.0991,-3.1224,-3.134,-3.1529,-3.1995,-3.2198,-3.1933,-3.1687,-3.1557,-3.1454,-3.1439,-3.1499,-3.1544,-3.1544,-3.1516,-3.1457,-3.1294,-3.1249,-3.119,-3.1101,-3.1115,-3.1249,-3.1132,-3.1116,-3.0983,-3.0936,-3.0964,-3.1023,-3.0798,-3.0451,-3.0193,-2.9909,-2.9789,-0.6942,-0.7169,-0.8161,-0.8966,-0.9566,-1.0429,-1.1502,-1.2413,-1.2856,-1.3392,-1.4004,-1.4088,-1.4082,-1.423,-1.4307,-1.4428,-1.4384,-1.4135,-1.3905,-1.3804,-1.3589,-1.3761,-1.3902,-1.4609,-1.5287,-1.6148,-1.7237,-1.7889,-1.8017,-1.8037,-1.8008,-1.8008,-1.8008,-1.8008,-1.8008,-1.8008,-1.8144,-1.8212,-1.8212,-1.8674,-1.9264,-1.9594,-2.0226,-2.169,-2.2457,-2.2896,-2.3078,-2.3125,-2.3125,-2.3125,-2.3125,-2.3125,-2.3125,-2.3125,-2.3125,-2.3138,-2.3138,-2.3138,-2.3125,-2.3138,-2.3138,-2.309,-2.3276,-2.3314,-2.3452,-2.3791,-2.418,-2.433,-2.4657,-2.5159,-2.574,-2.6202,-2.6817,-2.7512,-2.8179,-2.8933,-2.9372,-2.9827,-3.0119,-2.9925,-3.0225,-3.0628,-3.0878,-3.0951,-3.1128,-3.1231,-3.1436,-3.1672,-3.1543,-3.1397,-3.1279,-3.1205,-3.1176,-3.122,-3.1323,-3.1353,-3.1382,-3.1351,-3.1217,-3.1142,-3.1008,-3.0768,-3.0738,-3.08,-3.0919,-3.0904,-3.0812,-3.069,-3.0481,-3.0332,-3.0003,-2.9729,-2.9604,-2.9424,-2.9409,-0.6917,-0.7223,-0.777,-0.8564,-0.9394,-0.9921,-1.0767,-1.1742,-1.2389,-1.2966,-1.3398,-1.3822,-1.4156,-1.4213,-1.4255,-1.4335,-1.4337,-1.4102,-1.3881,-1.3816,-1.365,-1.3512,-1.3564,-1.4258,-1.4673,-1.5321,-1.6237,-1.7295,-1.794,-1.8008,-1.8008,-1.8008,-1.8008,-1.8008,-1.8008,-1.8144,-1.8202,-1.8269,-1.8405,-1.8674,-1.9198,-1.9539,-2.0484,-2.1313,-2.2137,-2.2628,-2.3065,-2.3125,-2.3125,-2.3125,-2.3125,-2.3125,-2.3125,-2.3125,-2.3125,-2.3138,-2.3198,-2.3198,-2.3138,-2.321,-2.3198,-2.3125,-2.3198,-2.3258,-2.3321,-2.3596,-2.3936,-2.4153,-2.4392,-2.4849,-2.5434,-2.5807,-2.6193,-2.6722,-2.7461,-2.7958,-2.8449,-2.9304,-2.9468,-2.9472,-3.0187,-3.0675,-3.0955,-3.1058,-3.1028,-3.1087,-3.1087,-3.1146,-3.119,-3.119,-3.1176,-3.113,-3.1086,-3.1084,-3.1083,-3.1023,-3.1021,-3.0989,-3.1001,-3.0926,-3.0657,-3.0268,-3.0178,-3.0197,-3.0317,-3.0328,-3.0298,-3.0028,-2.9804,-2.9579,-2.9364,-2.9139,-2.9072,-2.9034,-2.8974,-0.6962,-0.7426,-0.7426,-0.8196,-0.926,-0.9377,-1.0084,-1.1203,-1.2089,-1.2699,-1.3045,-1.3808,-1.4248,-1.4246,-1.4268,-1.4273,-1.4362,-1.4015,-1.3899,-1.3821,-1.3638,-1.3499,-1.3702,-1.4122,-1.4609,-1.5037,-1.5534,-1.6446,-1.751,-1.7725,-1.793,-1.8076,-1.8144,-1.8076,-1.8144,-1.8279,-1.8337,-1.8405,-1.8472,-1.8674,-1.9008,-1.9649,-2.0291,-2.0869,-2.1553,-2.2113,-2.2506,-2.2811,-2.2884,-2.2944,-2.3065,-2.3198,-2.3198,-2.3198,-2.3198,-2.3198,-2.3271,-2.321,-2.321,-2.3271,-2.333,-2.3198,-2.333,-2.339,-2.345,-2.3586,-2.3786,-2.4131,-2.4246,-2.4464,-2.4937,-2.5128,-2.5394,-2.5827,-2.614,-2.6424,-2.7216,-2.7963,-2.8828,-2.924,-3.0148,-3.0617,-3.0866,-3.1132,-3.119,-3.1249,-3.1307,-3.1307,-3.1351,-3.1351,-3.1306,-3.1155,-3.1093,-3.0989,-3.0869,-3.0675,-3.0526,-3.0372,-3.0328,-3.0268,-2.9924,-2.9535,-2.9535,-2.952,-2.9214,-2.9222,-2.9259,-2.9379,-2.9207,-2.8982,-2.8726,-2.8546,-2.8559,-2.851,-2.8455,-0.7036,-0.743,-0.7676,-0.8045,-0.8437,-0.8547,-0.9321,-1.0697,-1.1477,-1.2516,-1.3353,-1.4203,-1.4372,-1.4223,-1.3936,-1.3931,-1.3939,-1.3809,-1.3657,-1.3623,-1.3528,-1.3492,-1.3564,-1.392,-1.4482,-1.4832,-1.5409,-1.6315,-1.7019,-1.7217,-1.7706,-1.8202,-1.8347,-1.8414,-1.8347,-1.8414,-1.8549,-1.8741,-1.8741,-1.8875,-1.9131,-1.9704,-2.0096,-2.042,-2.0933,-2.1439,-2.1765,-2.2249,-2.2628,-2.2628,-2.3185,-2.3497,-2.3556,-2.3569,-2.3569,-2.345,-2.333,-2.3138,-2.3138,-2.333,-2.3403,-2.333,-2.345,-2.3556,-2.3628,-2.3628,-2.3739,-2.3667,-2.3756,-2.4,-2.4436,-2.4564,-2.4869,-2.5325,-2.5831,-2.6171,-2.664,-2.7207,-2.8008,-2.8584,-2.9318,-3.019,-3.0746,-3.1041,-3.1292,-3.1424,-3.1452,-3.1377,-3.1273,-3.1108,-3.1004,-3.072,-3.0642,-3.0537,-3.0477,-3.0298,-3.0028,-2.9744,-2.9708,-2.9633,-2.9244,-2.8914,-2.8884,-2.8764,-2.8441,-2.8439,-2.874,-2.8852,-2.8656,-2.8505,-2.8354,-2.8223,-2.8091,-2.8054,-2.8137,-0.7476,-0.7875,-0.7865,-0.8113,-0.841,-0.8337,-0.8751,-0.9691,-1.0656,-1.1662,-1.2739,-1.3559,-1.3892,-1.3881,-1.3668,-1.3693,-1.3644,-1.3563,-1.3564,-1.3528,-1.3492,-1.3492,-1.3564,-1.371,-1.4137,-1.4561,-1.484,-1.5409,-1.6245,-1.7148,-1.7696,-1.7988,-1.8337,-1.8482,-1.8549,-1.8617,-1.8684,-1.8808,-1.8875,-1.8998,-1.9198,-1.9528,-1.9977,-2.0344,-2.0869,-2.1198,-2.1714,-2.2273,-2.2641,-2.2763,-2.333,-2.3556,-2.3616,-2.3556,-2.3556,-2.3556,-2.3509,-2.339,-2.333,-2.345,-2.339,-2.333,-2.3437,-2.3688,-2.3806,-2.3865,-2.3865,-2.3878,-2.3865,-2.402,-2.4188,-2.424,-2.4583,-2.4998,-2.5414,-2.57,-2.609,-2.6772,-2.7367,-2.7911,-2.8461,-2.9254,-2.9906,-3.0033,-3.0383,-3.081,-3.0645,-3.0421,-3.0372,-3.0223,-3.0133,-3.0058,-2.9968,-2.9924,-2.9894,-2.9789,-2.9445,-2.9229,-2.917,-2.9004,-2.8583,-2.8342,-2.8387,-2.8378,-2.8238,-2.8273,-2.843,-2.8414,-2.8334,-2.8167,-2.802,-2.8103,-2.8201,-2.8235,-2.8446,-0.7519,-0.8199,-0.8024,-0.8138,-0.8414,-0.8361,-0.8636,-0.9154,-1.0288,-1.1199,-1.1969,-1.2775,-1.3297,-1.3459,-1.3474,-1.355,-1.3506,-1.3492,-1.3564,-1.3637,-1.363,-1.3702,-1.3928,-1.3928,-1.4209,-1.4346,-1.4776,-1.5275,-1.6044,-1.6872,-1.7423,-1.7842,-1.8462,-1.8684,-1.8684,-1.8818,-1.8875,-1.8875,-1.9008,-1.9142,-1.9274,-1.9462,-1.9911,-2.0355,-2.0741,-2.1135,-2.1663,-2.2161,-2.2457,-2.2531,-2.321,-2.3509,-2.3497,-2.3688,-2.3747,-2.3747,-2.3747,-2.3688,-2.3641,-2.3641,-2.3509,-2.3497,-2.3497,-2.3865,-2.3995,-2.4125,-2.4112,-2.4054,-2.4054,-2.4054,-2.4125,-2.4093,-2.4275,-2.455,-2.4767,-2.5077,-2.5308,-2.5792,-2.6149,-2.6523,-2.7087,-2.7987,-2.8484,-2.8739,-2.9253,-2.9973,-2.9953,-2.9609,-2.952,-2.949,-2.943,-2.9469,-2.9325,-2.9259,-2.9019,-2.8959,-2.8734,-2.8741,-2.868,-2.8535,-2.8233,-2.8117,-2.8132,-2.8111,-2.8054,-2.8164,-2.8415,-2.821,-2.8054,-2.8103,-2.8201,-2.8284,-2.8365,-2.8462,-2.8858,-0.6792,-0.8016,-0.7845,-0.7886,-0.8073,-0.8457,-0.8859,-0.9264,-1.0426,-1.1168,-1.1822,-1.2648,-1.3076,-1.3127,-1.3276,-1.3419,-1.3492,-1.3492,-1.3702,-1.3992,-1.4057,-1.4209,-1.4353,-1.4641,-1.4903,-1.5029,-1.5188,-1.5434,-1.5929,-1.6446,-1.7354,-1.8192,-1.8529,-1.8865,-1.9008,-1.9008,-1.9008,-1.9075,-1.9065,-1.9274,-1.9407,-1.9605,-1.9857,-2.0096,-2.0161,-2.0226,-2.0355,-2.125,-2.1765,-2.1827,-2.2763,-2.339,-2.345,-2.37,-2.3819,-2.3936,-2.3995,-2.3936,-2.3891,-2.3832,-2.3832,-2.3891,-2.3936,-2.3995,-2.4112,-2.4125,-2.4125,-2.4125,-2.4125,-2.4125,-2.4125,-2.4112,-2.4171,-2.4281,-2.4386,-2.4464,-2.4603,-2.4527,-2.4869,-2.5084,-2.5785,-2.6776,-2.748,-2.7803,-2.8575,-2.9346,-2.9295,-2.8951,-2.9139,-2.9124,-2.8989,-2.8899,-2.8764,-2.8531,-2.8071,-2.8047,-2.8258,-2.8354,-2.8349,-2.8228,-2.8126,-2.8069,-2.8118,-2.8168,-2.8201,-2.825,-2.8299,-2.825,-2.825,-2.8299,-2.8396,-2.8477,-2.8811,-2.9166,-2.9601,-0.6683,-0.7205,-0.7458,-0.7752,-0.8004,-0.8064,-0.8502,-0.9086,-0.9746,-1.0525,-1.1414,-1.2164,-1.2411,-1.2404,-1.2769,-1.3112,-1.3324,-1.3775,-1.4057,-1.4274,-1.4418,-1.4489,-1.4641,-1.4752,-1.4822,-1.4928,-1.5213,-1.5415,-1.5523,-1.6148,-1.6664,-1.7364,-1.8182,-1.8731,-1.8931,-1.9131,-1.9142,-1.9131,-1.9131,-1.9208,-1.9341,-1.9726,-1.9977,-2.0096,-2.0624,-2.0764,-2.0892,-2.1388,-2.1639,-2.1877,-2.2494,-2.2944,-2.333,-2.3569,-2.3819,-2.4067,-2.4112,-2.4067,-2.4008,-2.3949,-2.3891,-2.3891,-2.3949,-2.4008,-2.4125,-2.4125,-2.4125,-2.4125,-2.4125,-2.4125,-2.4125,-2.4125,-2.4112,-2.4125,-2.4125,-2.4125,-2.4125,-2.4125,-2.4287,-2.4761,-2.5201,-2.58,-2.6443,-2.7001,-2.7883,-2.8636,-2.8532,-2.8449,-2.8636,-2.8748,-2.8598,-2.8493,-2.8372,-2.8333,-2.7966,-2.789,-2.7955,-2.8005,-2.8054,-2.8103,-2.8152,-2.8266,-2.8314,-2.8314,-2.8314,-2.8348,-2.8348,-2.8348,-2.8396,-2.8493,-2.8525,-2.8573,-2.909,-2.975,-3.0166,-0.626,-0.6644,-0.7019,-0.7466,-0.7829,-0.804,-0.8382,-0.8954,-0.9384,-0.9932,-1.0852,-1.1459,-1.1677,-1.167,-1.2077,-1.2599,-1.2959,-1.3404,-1.3992,-1.4353,-1.4561,-1.4713,-1.4856,-1.4958,-1.5056,-1.4911,-1.5121,-1.5399,-1.5292,-1.6026,-1.6507,-1.7028,-1.7638,-1.8395,-1.8798,-1.9142,-1.9274,-1.9396,-1.9396,-1.9462,-1.966,-1.9977,-2.0366,-2.0495,-2.0892,-2.1094,-2.1158,-2.1388,-2.1577,-2.1765,-2.2125,-2.2604,-2.3005,-2.333,-2.3641,-2.3936,-2.4112,-2.4112,-2.4067,-2.4008,-2.3949,-2.4008,-2.4008,-2.4008,-2.4067,-2.4125,-2.4125,-2.4125,-2.4125,-2.4125,-2.4125,-2.4125,-2.4125,-2.4125,-2.4125,-2.4125,-2.4125,-2.4112,-2.4287,-2.4576,-2.4962,-2.5397,-2.6204,-2.6922,-2.7661,-2.8306,-2.8252,-2.8167,-2.8218,-2.8233,-2.8193,-2.8117,-2.8072,-2.8096,-2.8054,-2.8054,-2.8103,-2.8168,-2.825,-2.825,-2.8299,-2.8396,-2.8411,-2.8363,-2.8363,-2.8411,-2.8396,-2.8396,-2.8477,-2.8605,-2.8826,-2.912,-2.9645,-3.0335,-3.0559,-0.5162,-0.656,-0.6641,-0.7034,-0.761,-0.834,-0.8646,-0.8823,-0.9525,-0.9905,-1.0116,-1.0628,-1.0923,-1.0962,-1.1558,-1.2077,-1.2592,-1.2813,-1.347,-1.4418,-1.4784,-1.5141,-1.5443,-1.5613,-1.539,-1.5334,-1.5479,-1.553,-1.5232,-1.5739,-1.6245,-1.683,-1.751,-1.825,-1.8405,-1.9208,-1.9726,-2.0042,-1.9977,-2.0107,-2.0302,-2.0431,-2.0635,-2.0828,-2.1094,-2.1169,-2.1233,-2.1285,-2.1348,-2.1411,-2.1702,-2.2125,-2.2555,-2.3017,-2.339,-2.3865,-2.3995,-2.4054,-2.4125,-2.4067,-2.4067,-2.4067,-2.4067,-2.4067,-2.4125,-2.4125,-2.4125,-2.4125,-2.4125,-2.4125,-2.4125,-2.4125,-2.4125,-2.4125,-2.4125,-2.4125,-2.4125,-2.4125,-2.4287,-2.4434,-2.4821,-2.5314,-2.6162,-2.6967,-2.7575,-2.7996,-2.8,-2.8005,-2.8005,-2.8005,-2.8054,-2.8103,-2.8103,-2.8152,-2.8201,-2.8186,-2.825,-2.8363,-2.8363,-2.8348,-2.8348,-2.8411,-2.8411,-2.8411,-2.8411,-2.8411,-2.8396,-2.8396,-2.8732,-2.9166,-2.9645,-3.0021,-3.0444,-3.0747,-3.0885,-0.4851,-0.5625,-0.6553,-0.7169,-0.7484,-0.7787,-0.8169,-0.8775,-0.9463,-0.9922,-0.9922,-1.0293,-1.0443,-1.0594,-1.1111,-1.1781,-1.2224,-1.3397,-1.4122,-1.4545,-1.4991,-1.5443,-1.5735,-1.5762,-1.5591,-1.542,-1.5557,-1.5608,-1.5223,-1.567,-1.6035,-1.6551,-1.7364,-1.824,-1.9187,-1.9857,-1.9977,-2.0096,-2.0096,-2.0161,-2.0291,-2.0495,-2.07,-2.0903,-2.1094,-2.1169,-2.1233,-2.1233,-2.1233,-2.1233,-2.1463,-2.1702,-2.2125,-2.2519,-2.2689,-2.3113,-2.3365,-2.3819,-2.3995,-2.4125,-2.4125,-2.4125,-2.4125,-2.4125,-2.4125,-2.4125,-2.4125,-2.4125,-2.4125,-2.4125,-2.4125,-2.4125,-2.4125,-2.4125,-2.4125,-2.4125,-2.4125,-2.4125,-2.4171,-2.4434,-2.4694,-2.5356,-2.6162,-2.7019,-2.7725,-2.8005,-2.8054,-2.8103,-2.8103,-2.8152,-2.8137,-2.825,-2.8299,-2.8299,-2.8299,-2.8299,-2.8299,-2.8363,-2.8411,-2.8411,-2.8411,-2.8411,-2.846,-2.8444,-2.8411,-2.8411,-2.8573,-2.8826,-2.9332,-2.9761,-3.0064,-3.0318,-3.0584,-3.0788,-3.0982,-0.4506,-0.5004,-0.6086,-0.6857,-0.7399,-0.794,-0.8551,-0.9155,-0.969,-0.9922,-1.0073,-1.0143,-1.0293,-1.0438,-1.0812,-1.1409,-1.1855,-1.2586,-1.3535,-1.4034,-1.4768,-1.5062,-1.5284,-1.563,-1.5566,-1.5429,-1.5531,-1.56,-1.5249,-1.58,-1.6385,-1.6821,-1.7157,-1.824,-1.9309,-1.9715,-2.0118,-2.0377,-2.0571,-2.056,-2.0624,-2.07,-2.0828,-2.0903,-2.1042,-2.1233,-2.1233,-2.1233,-2.1233,-2.1233,-2.1296,-2.1463,-2.1765,-2.1951,-2.2125,-2.2616,-2.3125,-2.3628,-2.3995,-2.4112,-2.4125,-2.4125,-2.4112,-2.4125,-2.4125,-2.4125,-2.4125,-2.4125,-2.4125,-2.4125,-2.4125,-2.4125,-2.4112,-2.4112,-2.4171,-2.4171,-2.4171,-2.4171,-2.4332,-2.4536,-2.4964,-2.5632,-2.6322,-2.7019,-2.7825,-2.7989,-2.8103,-2.8152,-2.825,-2.825,-2.8299,-2.8348,-2.8411,-2.8348,-2.8348,-2.8396,-2.8411,-2.8411,-2.8411,-2.8411,-2.8411,-2.8411,-2.8444,-2.8493,-2.8525,-2.8653,-2.8904,-2.9257,-2.9689,-2.9978,-3.0218,-3.0444,-3.0666,-3.0925,-3.1179,-0.391,-0.4691,-0.5165,-0.6086,-0.7242,-0.8551,-0.9392,-0.9846,-0.9922,-0.9997,-1.0218,-1.0212,-1.0368,-1.0519,-1.0588,-1.0887,-1.1416,-1.1632,-1.2291,-1.3025,-1.3897,-1.425,-1.476,-1.5259,-1.532,-1.5367,-1.5557,-1.5713,-1.5386,-1.587,-1.6673,-1.7295,-1.7501,-1.824,-1.8854,-1.932,-1.9846,-2.0237,-2.07,-2.0688,-2.0688,-2.1019,-2.1094,-2.1106,-2.1169,-2.1233,-2.1233,-2.1233,-2.1233,-2.1233,-2.1233,-2.1463,-2.1702,-2.1889,-2.2187,-2.2555,-2.3065,-2.3556,-2.3982,-2.4099,-2.4287,-2.4287,-2.4216,-2.4171,-2.4125,-2.4125,-2.4125,-2.4125,-2.4125,-2.4125,-2.4125,-2.4112,-2.4157,-2.4171,-2.4229,-2.4287,-2.4287,-2.439,-2.4536,-2.4865,-2.5481,-2.6136,-2.6916,-2.761,-2.7775,-2.794,-2.8103,-2.8201,-2.825,-2.8348,-2.8348,-2.8348,-2.8411,-2.8411,-2.8411,-2.8411,-2.8411,-2.8411,-2.8411,-2.8411,-2.8411,-2.8493,-2.8589,-2.8668,-2.8732,-2.8951,-2.9422,-2.9689,-2.9935,-3.0234,-3.0567,-3.073,-3.1044,-3.1278,-3.1542,-0.4048,-0.454,-0.5237,-0.5931,-0.67,-0.8313,-0.9311,-0.97,-0.9846,-1.0067,-1.0443,-1.0443,-1.0519,-1.0743,-1.0887,-1.1037,-1.1329,-1.1781,-1.215,-1.2652,-1.3194,-1.3585,-1.4034,-1.4537,-1.4822,-1.5246,-1.5545,-1.586,-1.5992,-1.6333,-1.6551,-1.7028,-1.7304,-1.7706,-1.8114,-1.8375,-1.8977,-1.9639,-2.0096,-2.0366,-2.0624,-2.0828,-2.0967,-2.1094,-2.1158,-2.1169,-2.1233,-2.1233,-2.1233,-2.1233,-2.1221,-2.1336,-2.1336,-2.1411,-2.1588,-2.2125,-2.2738,-2.3399,-2.3884,-2.4421,-2.4721,-2.4677,-2.4664,-2.4447,-2.4287,-2.4171,-2.4171,-2.4229,-2.4229,-2.4287,-2.4332,-2.4332,-2.4376,-2.4434,-2.4505,-2.4563,-2.462,-2.4721,-2.4878,-2.5272,-2.5839,-2.6351,-2.7188,-2.7458,-2.756,-2.7825,-2.8039,-2.8186,-2.8299,-2.8348,-2.8411,-2.8411,-2.8411,-2.8411,-2.8411,-2.8411,-2.8411,-2.8411,-2.8411,-2.8444,-2.8573,-2.8653,-2.8763,-2.8936,-2.9182,-2.9601,-3.0123,-3.0335,-3.0418,-3.0747,-3.1083,-3.1218,-3.1389,-3.1579,-3.1709,-0.3885,-0.4226,-0.4929,-0.5625,-0.6395,-0.777,-0.877,-0.9458,-0.9916,-1.0293,-1.0594,-1.0594,-1.0738,-1.0887,-1.1031,-1.1051,-1.0942,-1.1297,-1.1589,-1.188,-1.2659,-1.3013,-1.3411,-1.397,-1.4394,-1.484,-1.5275,-1.5683,-1.5982,-1.6403,-1.6682,-1.6899,-1.6908,-1.7176,-1.7442,-1.7638,-1.7842,-1.8509,-1.9034,-1.9507,-1.9966,-2.0431,-2.0624,-2.0892,-2.1019,-2.1221,-2.1233,-2.1233,-2.1285,-2.1285,-2.1348,-2.1434,-2.1434,-2.1434,-2.1675,-2.2211,-2.2786,-2.3386,-2.393,-2.458,-2.4892,-2.5005,-2.5005,-2.4848,-2.4677,-2.4563,-2.4563,-2.4563,-2.4505,-2.4505,-2.4549,-2.4607,-2.465,-2.4708,-2.4821,-2.4948,-2.5005,-2.5118,-2.5342,-2.5633,-2.6056,-2.6457,-2.6878,-2.7137,-2.7444,-2.7775,-2.8054,-2.825,-2.8348,-2.8411,-2.8411,-2.8411,-2.8411,-2.8411,-2.8411,-2.8396,-2.8444,-2.8444,-2.8411,-2.8493,-2.8637,-2.8826,-2.892,-2.9319,-2.9705,-3.0166,-3.0625,-3.0804,-3.0925,-3.1257,-3.1466,-3.1504,-3.1579,-3.1671,-3.1746,-0.3605,-0.3904,-0.4533,-0.5303,-0.616,-0.7157,-0.8075,-0.9221,-0.9986,-1.0594,-1.0812,-1.0812,-1.0887,-1.1037,-1.1105,-1.096,-1.0949,-1.1052,-1.1275,-1.1103,-1.188,-1.2421,-1.2844,-1.355,-1.3905,-1.4266,-1.4697,-1.5267,-1.5551,-1.6044,-1.6542,-1.6908,-1.6908,-1.7038,-1.7038,-1.7107,-1.7235,-1.7569,-1.8307,-1.89,-1.9375,-1.977,-2.0161,-2.0495,-2.0892,-2.1296,-2.1285,-2.1348,-2.14,-2.1474,-2.1561,-2.1647,-2.1635,-2.1635,-2.1937,-2.2285,-2.2811,-2.328,-2.3813,-2.435,-2.4765,-2.4948,-2.5005,-2.5061,-2.5005,-2.4835,-2.4791,-2.4791,-2.4734,-2.4734,-2.4778,-2.4962,-2.5018,-2.5061,-2.5174,-2.5286,-2.5328,-2.5453,-2.5674,-2.6002,-2.6365,-2.6774,-2.7152,-2.7458,-2.781,-2.794,-2.8103,-2.8299,-2.8348,-2.8411,-2.8411,-2.8411,-2.8396,-2.8396,-2.8444,-2.8444,-2.8444,-2.8444,-2.8493,-2.8668,-2.8936,-2.9059,-2.9136,-2.9617,-3.0081,-3.0584,-3.0948,-3.1123,-3.1295,-3.1542,-3.1709,-3.1763,-3.18,-3.18,-3.18,-0.4085,-0.4341,-0.4795,-0.5225,-0.5696,-0.678,-0.7391,-0.7851,-0.9382,-1.0368,-1.0887,-1.0893,-1.0875,-1.1075,-1.1224,-1.1077,-1.0984,-1.1062,-1.1288,-1.1342,-1.1722,-1.1992,-1.2137,-1.2893,-1.3258,-1.3608,-1.4114,-1.4982,-1.5551,-1.5974,-1.6333,-1.6839,-1.6908,-1.6908,-1.6908,-1.6908,-1.6968,-1.7097,-1.7501,-1.8432,-1.9299,-2.0042,-2.07,-2.1031,-2.1434,-2.1434,-2.1498,-2.1561,-2.1624,-2.1635,-2.1698,-2.171,-2.171,-2.171,-2.1761,-2.1999,-2.2641,-2.31,-2.3458,-2.3989,-2.4452,-2.4821,-2.5005,-2.5286,-2.5397,-2.5174,-2.5005,-2.5005,-2.5005,-2.5061,-2.5061,-2.5244,-2.5369,-2.5467,-2.5522,-2.5564,-2.5605,-2.5784,-2.5948,-2.6258,-2.6669,-2.6982,-2.7306,-2.7675,-2.8137,-2.8299,-2.8299,-2.8411,-2.8411,-2.8411,-2.846,-2.8444,-2.8396,-2.8396,-2.8493,-2.8573,-2.8621,-2.8716,-2.8763,-2.8982,-2.9259,-2.9396,-2.9515,-2.9995,-3.0502,-3.0828,-3.1162,-3.1504,-3.1671,-3.18,-3.18,-3.18,-3.18,-3.18,-3.18,-0.4203,-0.4378,-0.4757,-0.5098,-0.5389,-0.6089,-0.6703,-0.7314,-0.8309,-0.9453,-1.0513,-1.0807,-1.0902,-1.096,-1.1156,-1.1099,-1.0978,-1.1184,-1.1262,-1.1352,-1.1565,-1.1786,-1.2091,-1.2452,-1.2599,-1.3025,-1.4042,-1.4903,-1.5621,-1.6263,-1.6621,-1.6839,-1.6908,-1.6908,-1.6908,-1.6908,-1.6978,-1.7038,-1.7166,-1.7901,-1.9034,-1.9573,-1.9835,-2.0237,-2.0839,-2.1031,-2.136,-2.1498,-2.1749,-2.1812,-2.1886,-2.1949,-2.1949,-2.1949,-2.1949,-2.2111,-2.258,-2.298,-2.3148,-2.3564,-2.4092,-2.4394,-2.4567,-2.4681,-2.4794,-2.4694,-2.5286,-2.5286,-2.5453,-2.5508,-2.5508,-2.5633,-2.5688,-2.5743,-2.5743,-2.5784,-2.5784,-2.5839,-2.5948,-2.6056,-2.6312,-2.6365,-2.6683,-2.6878,-2.7342,-2.771,-2.7875,-2.8348,-2.8363,-2.8444,-2.8493,-2.8541,-2.8573,-2.8668,-2.8811,-2.8858,-2.8889,-2.8982,-2.9029,-2.9213,-2.9396,-2.9681,-2.9989,-3.0284,-3.0584,-3.0885,-3.1218,-3.1559,-3.1726,-3.18,-3.18,-3.18,-3.18,-3.18,-3.18,-0.3975,-0.4215,-0.458,-0.4985,-0.5321,-0.5398,-0.6012,-0.7011,-0.7242,-0.8138,-0.9482,-1.0335,-1.0654,-1.0864,-1.0972,-1.0833,-1.0918,-1.1378,-1.1313,-1.137,-1.1644,-1.1886,-1.2111,-1.2305,-1.2378,-1.2739,-1.3528,-1.4537,-1.5471,-1.5895,-1.6254,-1.676,-1.6908,-1.6908,-1.6908,-1.6908,-1.6968,-1.7107,-1.7304,-1.7706,-1.8104,-1.8499,-1.8767,-1.9233,-1.977,-2.0442,-2.0764,-2.1083,-2.16,-2.1862,-2.1925,-2.2061,-2.2135,-2.2135,-2.2135,-2.2247,-2.2531,-2.2811,-2.298,-2.3267,-2.361,-2.3846,-2.3904,-2.4021,-2.415,-2.4624,-2.5216,-2.5564,-2.5729,-2.5839,-2.5839,-2.5839,-2.5893,-2.5893,-2.5893,-2.5893,-2.5893,-2.5893,-2.5893,-2.5948,-2.6002,-2.6056,-2.6258,-2.651,-2.6826,-2.7188,-2.756,-2.794,-2.8299,-2.8477,-2.8621,-2.8748,-2.8889,-2.8982,-2.9075,-2.9121,-2.9167,-2.9213,-2.9305,-2.9396,-2.9531,-2.9842,-3.0087,-3.0267,-3.0584,-3.1004,-3.1257,-3.1542,-3.1671,-3.18,-3.18,-3.18,-3.18,-3.18,-3.18,-0.3338,-0.4709,-0.4842,-0.5139,-0.5538,-0.5712,-0.6099,-0.6563,-0.7173,-0.7551,-0.8014,-0.899,-0.9851,-1.0953,-1.1401,-1.1401,-1.1179,-1.1514,-1.1748,-1.1877,-1.1965,-1.2125,-1.2285,-1.2305,-1.2305,-1.2592,-1.3025,-1.36,-1.4824,-1.518,-1.5683,-1.6691,-1.683,-1.6899,-1.6899,-1.6899,-1.7047,-1.7245,-1.7382,-1.7657,-1.7842,-1.8297,-1.8946,-1.941,-1.9803,-2.002,-2.0226,-2.0366,-2.0752,-2.1273,-2.1788,-2.1999,-2.2123,-2.2123,-2.2197,-2.2197,-2.2482,-2.2469,-2.2641,-2.2702,-2.2932,-2.3267,-2.3386,-2.3695,-2.3989,-2.4523,-2.5048,-2.537,-2.5605,-2.5729,-2.5784,-2.5893,-2.5893,-2.5893,-2.5893,-2.5893,-2.5893,-2.5893,-2.5893,-2.6056,-2.6204,-2.6418,-2.6721,-2.7034,-2.7458,-2.7775,-2.7925,-2.825,-2.8396,-2.8573,-2.8748,-2.8967,-2.9152,-2.9152,-2.9167,-2.9396,-2.9441,-2.9486,-2.9576,-2.9665,-2.9826,-3.007,-3.0267,-3.0418,-3.0764,-3.1179,-3.1428,-3.1542,-3.1709,-3.18,-3.18,-3.18,-3.1765,-3.1662,-3.1558]}]]